[[{"header":{"parameterUnit":"m.s-1","parameterCategory":1,"la1":31.0,"la2":29.5877,"lo1":-88.7671,"lo2":-86.6584,"dy":0.0162,"dx":0.0185,"nx":115,"ny":88,"refTime":"2023-04-07T00:00:00:Z","depth":0,"parameterNumber":2,"parameterNumberName":"U-component_of_WINDS"},"data":[0.0,0.0,0.0,0.0,0.0,0.0,0.0,0.0,0.0,0.0,0.0,0.0,0.0,0.0,0.0,0.0,0.0,0.0,0.0,0.0,0.0,0.0,0.0,0.0,0.0,0.0,0.0,0.0,0.0,0.0,0.0,0.0,0.0,0.0,0.0,0.0,0.0,0.0,0.0,0.0,0.0,0.0,0.0,0.0,0.0,0.0,0.0,0.0,0.0,0.0,0.0,0.0,0.0,0.0,0.0,0.0,0.0,0.0,0.0,0.0,0.0,0.0,0.0,0.0,0.0,0.0,0.0,0.0,0.0,0.0,0.0,0.0,0.0,0.0,0.0,0.0,0.0,0.0,0.0,0.0,0.0,0.0,0.0,0.0,0.0,0.0,0.0,0.0,0.0,0.0,0.0,0.0,0.0,0.0,0.0,0.0,0.0,0.0,0.0,0.0,0.0,0.0,0.0,0.0,0.0,0.0,0.0,0.0,0.0,0.0,0.0,0.0,0.0,0.0,0.0,0.0,0.0,0.0,0.0,0.0,0.0,0.0,0.0,0.0,0.0,0.0,0.0,0.0,0.0,0.0,0.0,0.0,0.0,0.0,0.0,0.0,0.0,0.0,0.0,0.0,0.0,0.0,0.0,0.0,0.0,0.0,0.0,0.0,0.0,0.0,0.0,0.0,0.0,0.0,0.0,0.0,0.0,0.0,0.0,0.0,0.0,0.0,0.0,0.0,0.0,0.0,0.0,0.0,0.0,0.0,0.0,0.0,0.0,0.0,0.0,0.0,0.0,0.0,0.0,0.0,0.0,0.0,0.0,0.0,0.0,0.0,0.0,0.0,0.0,0.0,0.0,0.0,0.0,0.0,0.0,0.0,0.0,0.0,0.0,0.0,0.0,0.0,0.0,0.0,0.0,0.0,0.0,0.0,0.0,0.0,0.0,0.0,0.0,0.0,0.0,0.0,0.0,0.0,0.0,0.0,0.0,0.0,0.0,0.0,0.0,0.0,0.0,0.0,0.0,0.0,0.0,0.0,0.0,0.0,0.0,0.0,0.0,0.0,0.0,0.0,0.0,0.0,0.0,0.0,0.0,0.0,0.0,0.0,0.0,0.0,0.0,0.0,0.0,0.0,0.0,0.0,0.0,0.0,0.0,0.0,0.0,0.0,0.0,0.0,0.0,0.0,0.0,0.0,0.0,0.0,0.0,0.0,0.0,0.0,0.0,0.0,0.0,0.0,0.0,0.0,0.0,0.0,0.0,0.0,0.0,0.0,0.0,0.0,0.0,0.0,0.0,0.0,0.0,0.0,0.0,0.0,0.0,0.0,0.0,0.0,0.0,0.0,0.0,0.0,0.0,0.0,0.0,0.0,0.0,0.0,0.0,0.0,0.0,0.0,0.0,0.0,0.0,0.0,0.0,0.0,0.0,0.0,0.0,0.0,0.0,0.0,0.0,0.0,0.0,0.0,0.0,0.0,0.0,0.0,0.0,0.0,0.0,0.0,0.0,0.0,0.0,0.0,0.0,0.0,0.0,0.0,0.0,0.0,0.0,0.0,0.0,0.0,0.0,0.0,0.0,0.0,0.0,0.0,0.0,0.0,0.0,0.0,0.0,0.0,0.0,0.0,0.0,0.0,0.0,0.0,0.0,0.0,0.0,0.0,0.0,0.0,0.0,0.0,0.0,0.0,0.0,0.0,0.0,0.0,0.0,0.0,0.0,0.0,0.0,0.0,0.0,0.0,0.0,0.0,0.0,0.0,0.0,0.0,0.0,0.0,0.0,0.0,0.0,0.0,0.0,0.0,0.0,0.0,0.0,0.0,0.0,0.0,0.0,0.0,0.0,0.0,0.0,0.0,0.0,0.0,0.0,0.0,0.0,0.0,0.0,0.0,0.0,0.0,0.0,0.0,0.0,0.0,0.0,0.0,0.0,0.0,0.0,0.0,0.0,0.0,0.0,0.0,0.0,0.0,0.0,0.0,0.0,0.0,0.0,0.0,0.0,0.0,0.0,0.0,0.0,0.0,0.0,0.0,0.0,0.0,0.0,0.0,0.0,0.0,0.0,0.0,0.0,0.0,0.0,0.0,0.0,0.0,0.0,0.0,0.0,0.0,0.0,0.0,0.0,0.0,0.0,0.0,0.0,0.0,0.0,0.0,0.0,0.0,0.0,0.0,0.0,0.0,0.0,0.0,0.0,0.0,0.0,0.0,0.0,0.0,0.0,0.0,0.0,0.0,0.0,0.0,0.0,0.0,0.0,0.0,0.0,0.0,0.0,0.0,0.0,0.0,0.0,0.0,0.0,0.0,0.0,0.0,0.0,0.0,0.0,0.0,0.0,0.0,0.0,0.0,0.0,0.0,0.0,0.0,0.0,0.0,0.0,0.0,0.0,0.0,0.0,0.0,0.0,0.0,0.0,0.0,0.0,0.0,0.0,0.0,0.0,0.0,0.0,0.0,0.0,0.0,0.0,0.0,0.0,0.0,0.0,0.0,0.0,0.0,0.0,0.0,0.0,0.0,0.0,0.0,0.0,0.0,0.0,0.0,0.0,0.0,0.0,0.0,0.0,0.0,0.0,0.0,0.0,0.0,0.0,0.0,0.0,0.0,0.0,0.0,0.0,0.0,0.0,0.0,0.0,0.0,0.0,0.0,0.0,0.0,0.0,0.0,0.0,0.0,0.0,0.0,0.0,0.0,0.0,0.0,0.0,0.0,0.0,0.0,0.0,0.0,0.0,0.0,0.0,0.0,0.0,0.0,0.0,0.0,0.0,0.0,0.0,0.0,0.0,0.0,0.0,0.0,0.0,0.0,0.0,0.0,0.0,0.0,0.0,0.0,0.0,0.0,0.0,0.0,0.0,0.0,0.0,0.0,0.0,0.0,0.0,0.0,0.0,0.0,0.0,0.0,0.0,0.0,0.0,0.0,0.0,0.0,0.0,0.0,0.0,0.0,0.0,0.0,0.0,0.0,0.0,0.0,0.0,0.0,0.0,0.0,0.0,0.0,0.0,0.0,0.0,0.0,0.0,0.0,0.0,0.0,0.0,0.0,0.0,0.0,0.0,0.0,0.0,0.0,0.0,0.0,0.0,0.0,0.0,0.0,0.0,0.0,0.0,0.0,0.0,0.0,0.0,0.0,0.0,0.0,0.0,0.0,0.0,0.0,0.0,0.0,0.0,0.0,0.0,0.0,0.0,0.0,0.0,0.0,0.0,0.0,0.0,0.0,0.0,0.0,0.0,0.0,0.0,0.0,0.0,0.0,0.0,0.0,0.0,0.0,0.0,0.0,0.0,0.0,0.0,0.0,0.0,0.0,0.0,0.0,0.0,0.0,0.0,0.0,0.0,0.0,0.0,0.0,0.0,0.0,0.0,0.0,0.0,0.0,0.0,0.0,0.0,0.0,0.0,0.0,0.0,0.0,0.0,0.0,0.0,0.0,0.0,0.0,0.0,0.0,0.0,0.0,0.0,0.0,0.0,0.0,0.0,0.0,0.0,0.0,0.0,0.0,0.0,0.0,0.0,0.0,0.0,0.0,0.0,0.0,0.0,0.0,0.0,0.0,0.0,0.0,0.0,0.0,0.0,0.0,0.0,0.0,0.0,0.0,0.0,0.0,0.0,0.0,0.0,0.0,0.0,0.0,0.0,0.0,0.0,0.0,0.0,0.0,0.0,0.0,0.0,0.0,0.0,0.0,0.0,0.0,0.0,0.0,0.0,0.0,0.0,0.0,0.0,0.0,0.0,0.0,0.0,0.0,0.0,0.0,0.0,0.0,0.0,0.0,0.0,0.0,0.0,0.0,0.0,0.0,0.0,0.0,0.0,0.0,0.0,0.0,0.0,0.0,0.0,0.0,0.0,0.0,0.0,0.0,0.0,0.0,0.0,0.0,0.0,0.0,0.0,0.0,0.0,0.0,0.0,0.0,0.0,0.0,0.0,0.0,0.0,0.0,0.0,0.0,0.0,0.0,0.0,0.0,0.0,0.0,0.0,0.0,0.0,0.0,0.0,0.0,0.0,0.0,0.0,0.0,0.0,0.0,0.0,0.0,0.0,0.0,0.0,0.0,0.0,0.0,0.0,0.0,0.0,0.0,0.0,0.0,0.0,0.0,0.0,0.0,0.0,0.0,0.0,0.0,0.0,0.0,0.0,0.0,0.0,0.0,0.0,0.0,0.0,0.0,0.0,0.0,0.0,0.0,0.0,0.0,0.0,0.0,0.0,0.0,0.0,0.0,0.0,0.0,0.0,0.0,0.0,0.0,0.0,0.0,0.0,0.0,1.3644,0.0,0.0,0.0,0.0,0.0,0.0,0.0,0.0,0.0,0.0,0.0,0.0,0.0,0.0,0.0,0.0,0.0,0.0,0.0,0.0,0.0,0.0,0.0,0.0,0.0,0.0,0.0,0.0,0.0,0.0,0.0,0.0,0.0,0.0,0.0,0.0,0.0,0.0,0.0,0.0,0.0,0.0,0.0,0.0,0.0,0.0,0.0,0.0,0.0,0.0,0.0,0.0,0.0,0.0,0.0,0.0,0.0,0.0,0.0,0.0,0.0,0.0,0.0,0.0,0.0,0.0,0.0,0.0,0.0,0.0,0.0,0.0,0.0,0.0,0.0,0.0,0.0,0.0,0.0,0.0,0.0,0.0,0.0,0.0,0.0,0.0,0.0,0.0,0.0,0.0,0.0,0.0,0.0,0.0,0.0,0.0,0.0,0.0,0.0,0.0,0.0,0.0,0.0,0.0,0.0,0.0,0.0,0.0,0.0,0.0,1.3847,1.3776,1.3705,1.3549,1.333,0.0,0.0,0.0,0.0,0.0,0.0,0.0,0.0,0.0,0.0,0.0,0.0,0.0,0.0,0.0,0.0,0.0,0.0,0.0,0.0,0.0,0.0,0.0,0.0,0.0,0.0,0.0,0.0,0.0,0.0,0.0,0.0,0.0,0.0,0.0,0.0,0.0,0.0,0.0,0.0,0.0,0.0,0.0,0.0,0.0,0.0,0.0,0.0,0.0,0.0,0.0,0.0,0.0,0.0,0.0,0.0,0.0,0.0,0.0,0.0,0.0,0.0,0.0,0.0,0.0,0.0,0.0,0.0,0.0,0.0,0.0,0.0,0.0,0.0,0.0,0.0,0.0,0.0,0.0,0.0,0.0,0.0,0.0,0.0,0.0,0.0,0.0,0.0,0.0,0.0,0.0,0.0,0.0,0.0,0.0,0.0,0.0,0.0,0.0,0.0,0.0,0.0,0.0,0.0,0.0,0.0,0.0,0.0,0.0,0.0,0.0,0.0,1.3348,1.3248,1.3051,0.0,0.0,0.0,0.0,0.0,0.0,0.0,0.0,0.0,0.0,0.0,0.0,0.0,0.0,0.0,0.0,0.0,0.0,0.0,0.0,0.0,0.0,0.0,0.0,0.0,0.0,0.0,0.0,0.0,0.0,0.0,0.0,0.0,0.0,0.0,0.0,0.0,0.0,0.0,0.0,0.0,0.0,0.0,0.0,0.0,0.0,0.0,0.0,0.0,0.0,0.0,0.0,0.0,0.0,0.0,0.0,0.0,0.0,0.0,0.0,0.0,0.0,0.0,0.0,0.0,0.0,0.0,0.0,0.0,0.0,0.0,0.0,0.0,0.0,0.0,0.0,0.0,0.0,0.0,0.0,0.0,0.0,0.0,0.0,0.0,0.0,0.0,0.0,0.0,0.0,0.0,0.0,0.0,0.0,0.0,0.0,0.0,0.0,0.0,0.0,0.0,0.0,0.0,0.0,0.0,0.0,0.0,0.0,0.0,0.0,1.3242,1.3218,1.3152,0.0,1.2929,0.0,0.0,0.0,0.0,0.0,0.0,0.0,0.0,0.0,0.0,0.0,0.0,0.0,0.0,0.0,0.0,0.0,0.0,0.0,0.0,0.0,0.0,0.0,0.0,0.0,0.0,0.0,0.0,0.0,0.0,0.0,0.0,0.0,0.0,0.0,0.0,0.0,0.0,0.0,0.0,0.0,0.0,0.0,0.0,0.0,0.0,0.0,0.0,0.0,0.0,0.0,0.0,0.0,0.0,0.0,0.0,0.0,0.0,0.0,0.0,0.0,0.0,0.0,0.0,0.0,0.0,0.0,0.0,0.0,0.0,0.0,0.0,0.0,0.0,0.0,0.0,0.0,0.0,0.0,0.0,0.0,0.0,0.0,0.0,0.0,0.0,0.0,0.0,0.0,0.0,0.0,0.0,0.0,0.0,0.0,0.0,0.0,0.0,0.0,0.0,0.0,0.0,0.0,0.0,0.0,0.0,0.0,0.0,0.0,0.0,1.3031,1.3021,1.292,1.2832,0.0,0.0,0.0,0.0,0.0,0.0,0.0,0.0,0.0,0.0,0.0,0.0,0.0,0.0,0.0,0.0,0.0,0.0,0.0,0.0,0.0,0.0,0.0,0.0,0.0,0.0,0.0,0.0,0.0,0.0,0.0,0.0,0.0,0.0,0.0,0.0,0.0,0.0,0.0,0.0,0.0,0.0,0.0,0.0,0.0,0.0,0.0,0.0,0.0,0.0,0.0,0.0,0.0,0.0,0.0,0.0,0.0,0.0,0.0,0.0,0.0,0.0,0.0,0.0,0.0,0.0,0.0,0.0,0.0,0.0,0.0,0.0,0.0,0.0,0.0,0.0,0.0,0.0,0.0,0.0,0.0,0.0,0.0,0.0,0.0,0.0,0.0,0.0,0.0,0.0,0.0,0.0,0.0,0.0,0.0,0.0,0.0,0.0,0.0,0.0,0.0,0.0,0.0,0.0,0.0,0.0,0.0,0.0,0.0,0.0,1.2808,1.2881,1.2832,1.2749,1.2661,1.2612,0.0,0.0,0.0,0.0,0.0,0.0,0.0,0.0,0.0,0.0,0.0,0.0,0.0,0.0,0.0,0.0,0.0,0.0,0.0,0.0,0.0,0.0,0.0,0.0,0.0,0.0,0.0,0.0,0.0,0.0,0.0,0.0,0.0,0.0,0.0,0.0,0.0,0.0,0.0,0.0,0.0,0.0,0.0,0.0,0.0,0.0,0.0,0.0,0.0,0.0,0.0,0.0,0.0,0.0,0.0,0.0,0.0,0.0,0.0,0.0,0.0,0.0,0.0,0.0,0.0,0.0,0.0,0.0,0.0,0.0,0.0,0.0,0.0,0.0,0.0,0.0,0.0,0.0,0.0,0.0,0.0,0.0,0.0,0.0,0.0,0.0,0.0,0.0,0.0,0.0,0.0,0.0,0.0,0.0,0.0,0.0,0.0,0.0,0.0,0.0,0.0,0.0,0.0,0.0,0.0,0.0,0.0,0.0,1.2505,1.2783,1.2832,1.2735,1.27,1.2578,0.0,0.0,0.0,0.0,0.0,0.0,0.0,0.0,0.0,0.0,0.0,0.0,0.0,0.0,0.0,0.0,0.0,0.0,0.0,0.0,0.0,0.0,0.0,0.0,0.0,0.0,0.0,0.0,0.0,0.0,0.0,0.0,0.0,0.0,0.0,0.0,0.0,0.0,0.0,0.0,0.0,0.0,0.0,0.0,0.0,0.0,0.0,0.0,0.0,0.0,0.0,0.0,0.0,0.0,0.0,0.0,0.0,0.0,0.0,0.0,0.0,0.0,0.0,0.0,0.0,0.0,0.0,0.0,0.0,0.0,0.0,0.0,0.0,0.0,0.0,0.0,0.0,0.0,0.0,0.0,0.0,0.0,0.0,0.0,0.0,0.0,0.0,0.0,0.0,0.0,0.0,0.0,0.0,0.0,0.0,0.0,0.0,0.0,0.0,0.0,0.0,0.0,0.0,0.0,0.0,0.0,0.0,0.0,0.0,1.2505,1.2783,1.2832,1.27,1.2529,1.2332,0.0,0.0,0.0,0.0,0.0,0.0,0.0,0.0,0.0,0.0,0.0,0.0,0.0,0.0,0.0,0.0,0.0,0.0,0.0,0.0,0.0,0.0,0.0,0.0,0.0,0.0,0.0,0.0,0.0,0.0,0.0,0.0,0.0,0.0,0.0,0.0,0.0,0.0,0.0,0.0,0.0,0.0,0.0,0.0,0.0,0.0,0.0,0.0,0.0,0.0,0.0,0.0,0.0,0.0,0.0,0.0,0.0,0.0,0.0,0.0,0.0,0.0,0.0,0.0,0.0,0.0,0.0,0.0,0.0,0.0,0.0,0.0,0.0,0.0,0.0,0.0,0.0,0.0,0.0,0.0,0.0,0.0,0.0,0.0,0.0,0.0,0.0,0.0,0.0,0.0,0.0,0.0,0.0,0.0,0.0,0.0,0.0,0.0,0.0,0.0,0.0,0.0,0.0,0.0,0.0,0.0,0.0,0.0,0.0,1.2505,0.0,1.27,1.2505,1.2298,1.2002,0.0,0.0,0.0,0.0,0.0,0.0,0.0,0.0,0.0,0.0,0.0,0.0,0.0,0.0,0.0,0.0,0.0,0.0,0.0,0.0,0.0,0.0,0.0,0.0,0.0,0.0,0.0,0.0,0.0,0.0,0.0,0.0,0.0,0.0,0.0,0.0,0.0,0.0,0.0,0.0,0.0,0.0,0.0,0.0,0.0,0.0,0.0,0.0,0.0,0.0,0.0,0.0,0.0,0.0,0.0,0.0,0.0,0.0,0.0,0.0,0.0,0.0,0.0,0.0,0.0,0.0,0.0,0.0,0.0,0.0,0.0,0.0,0.0,0.0,0.0,0.0,0.0,0.0,0.0,0.0,0.0,0.0,0.0,0.0,0.0,0.0,0.0,0.0,0.0,0.0,0.0,0.0,0.0,0.0,0.0,0.0,0.0,0.0,0.0,0.0,0.0,0.0,0.0,0.0,0.0,0.0,0.0,0.0,1.1977,1.2471,1.2495,1.2372,1.2135,1.1977,1.1653,0.0,0.0,0.0,0.0,0.0,0.0,0.0,0.0,0.0,0.0,0.0,0.0,0.0,0.0,0.0,0.0,0.0,0.0,0.0,0.0,0.0,0.0,0.0,0.0,0.0,0.0,0.0,0.0,0.0,0.0,0.0,0.0,0.0,0.0,0.0,0.0,0.0,0.0,0.0,0.0,0.0,0.0,0.0,0.0,0.0,0.0,0.0,0.0,0.0,0.0,0.0,0.0,0.0,0.0,0.0,0.0,0.0,0.0,0.0,0.0,0.0,0.0,0.0,0.0,0.0,0.0,0.0,0.0,0.0,0.0,0.0,0.0,0.0,0.0,0.0,0.0,0.0,0.0,0.0,0.0,0.0,0.0,0.0,0.0,0.0,0.0,0.0,0.0,0.0,0.0,0.0,0.0,0.0,0.0,0.0,0.0,0.0,0.0,0.0,0.0,0.0,0.0,0.0,0.0,0.0,0.0,0.0,0.0,0.0,1.2471,1.2406,1.2224,1.1977,1.1644,1.1217,0.0,0.0,0.0,0.0,0.0,0.0,0.0,0.0,0.0,0.0,0.0,0.0,0.0,0.0,0.0,0.0,0.0,0.0,0.0,0.0,0.0,0.0,0.0,0.0,0.0,0.0,0.0,0.0,0.0,0.0,0.0,0.0,0.0,0.0,0.0,0.0,0.0,0.0,0.0,0.0,0.0,0.0,0.0,0.0,0.0,0.0,0.0,0.0,0.0,0.0,0.0,0.0,0.0,0.0,0.0,0.0,0.0,0.0,0.0,0.0,0.0,0.0,0.0,0.0,0.0,0.0,0.0,0.0,0.0,0.0,0.0,0.0,0.0,0.0,0.0,0.0,0.0,0.0,0.0,0.0,0.0,0.0,0.0,0.0,0.0,0.0,0.0,0.0,0.0,0.0,0.0,0.0,0.0,0.0,0.0,0.0,0.0,0.0,0.0,0.0,0.0,0.0,0.0,0.0,0.0,0.0,0.0,0.0,0.0,1.2101,1.215,1.2002,1.1703,1.1209,1.0668,1.0069,0.0,0.0,0.0,0.0,0.0,0.0,0.0,0.0,0.0,0.0,0.0,0.0,0.0,0.0,0.0,0.0,0.0,0.0,0.0,0.0,0.0,0.0,0.0,0.0,0.0,0.0,0.0,0.0,0.0,0.0,0.0,0.0,0.0,0.0,0.0,0.0,0.0,0.0,0.0,0.0,0.0,0.0,0.0,0.0,0.0,0.0,0.0,0.0,0.0,0.0,0.0,0.0,0.0,0.0,0.0,0.0,0.0,0.0,0.0,0.0,0.0,0.0,0.0,0.0,0.0,0.0,0.0,0.0,0.0,0.0,0.0,0.0,0.0,0.0,0.0,0.0,0.0,0.0,0.0,0.0,0.0,0.0,0.0,0.0,0.0,0.0,0.0,0.0,0.0,0.0,0.0,0.0,0.0,0.0,0.0,0.0,0.0,0.0,0.0,0.0,0.0,0.0,0.0,0.0,0.0,0.0,0.0,0.0,1.1477,1.1703,1.1653,1.1276,1.066,1.0038,0.0,0.0,0.0,0.0,0.0,0.0,0.0,0.0,0.0,0.0,0.0,0.0,0.0,0.0,0.0,0.0,0.0,0.0,0.0,0.0,0.0,0.0,0.0,0.0,0.0,0.0,0.0,0.0,0.0,0.0,0.0,0.0,0.0,0.0,0.0,0.0,0.0,0.0,0.0,0.0,0.0,0.0,0.0,0.0,0.0,0.0,0.0,0.0,0.0,0.0,0.0,0.0,0.0,0.0,0.0,0.0,0.0,0.0,0.0,0.0,0.0,0.0,0.0,0.0,0.0,0.0,0.0,0.0,0.0,0.0,0.0,0.0,0.0,0.0,0.0,0.0,0.0,0.0,0.0,0.0,0.0,0.0,0.0,0.0,0.0,0.0,0.0,0.0,0.0,0.0,0.0,0.0,0.0,0.0,0.0,0.0,0.0,0.0,0.0,0.0,0.0,0.0,0.0,0.0,0.0,0.0,0.0,0.0,0.0,1.12,1.1099,1.0888,1.0633,1.0002,0.9406,0.0,0.0,0.0,0.0,0.0,0.0,0.0,0.0,0.0,0.0,0.0,0.0,0.0,0.0,0.0,0.0,0.0,0.0,0.0,0.0,0.0,0.0,0.0,0.0,0.0,0.0,0.0,0.0,0.0,0.0,0.0,0.0,0.0,0.0,0.0,0.0,0.0,0.0,0.0,0.0,0.0,0.0,0.0,0.0,0.0,0.0,0.0,0.0,0.0,0.0,0.0,0.0,0.0,0.0,0.0,0.0,0.0,0.0,0.0,0.0,0.0,0.0,0.0,0.0,0.0,0.0,0.0,0.0,0.0,0.0,0.0,0.0,0.0,0.0,0.0,0.0,0.0,0.0,0.0,0.0,0.0,0.0,0.0,0.0,0.0,0.0,0.0,0.0,0.0,0.0,0.0,0.0,0.0,0.0,0.0,0.0,0.0,0.0,0.0,0.0,0.0,0.0,0.0,0.0,0.0,0.0,0.0,0.0,1.0985,1.1051,1.0651,1.0249,0.9811,0.932,0.8751,0.0,0.0,0.0,0.0,0.0,0.0,0.0,0.0,0.0,0.0,0.0,0.0,0.0,0.0,0.0,0.0,0.0,0.0,0.0,0.0,0.0,0.0,0.0,0.0,0.0,0.0,0.0,0.0,0.0,0.0,0.0,0.0,0.0,0.0,0.0,0.0,0.0,0.0,0.0,0.0,0.0,0.0,0.0,0.0,0.0,0.0,0.0,0.0,0.0,0.0,0.0,0.0,0.0,0.0,0.0,0.0,0.0,0.0,0.0,0.0,0.0,0.0,0.0,0.0,0.0,0.0,0.0,0.0,0.0,0.0,0.0,0.0,0.0,0.0,0.0,0.0,0.0,0.0,0.0,0.0,0.0,0.0,0.0,0.0,0.0,0.0,0.0,0.0,0.0,0.0,0.0,0.0,0.0,0.0,0.0,0.0,0.0,0.0,0.0,0.0,0.0,0.0,0.0,0.0,0.0,0.0,0.0,0.0,1.0722,1.088,1.03,0.9659,0.8935,0.8616,0.8064,0.0,0.0,0.0,0.0,0.0,0.0,0.0,0.0,0.0,0.0,0.0,0.0,0.0,0.0,0.0,0.0,0.0,0.0,0.0,0.0,0.0,0.0,0.0,0.0,0.0,0.0,0.0,0.0,0.0,0.0,0.0,0.0,0.0,0.0,0.0,0.0,0.0,0.0,0.0,0.0,0.0,0.0,0.0,0.0,0.0,0.0,0.0,0.0,0.0,0.0,0.0,0.0,0.0,0.0,0.0,0.0,0.0,0.0,0.0,0.0,0.0,0.0,0.0,0.0,0.0,0.0,0.0,0.0,0.0,0.0,0.0,0.0,0.0,0.0,0.0,0.0,0.0,0.0,0.0,0.0,0.0,0.0,0.0,0.0,0.0,0.0,0.0,0.0,0.0,0.0,0.0,0.0,0.0,0.0,0.0,0.0,0.0,0.0,0.0,0.0,0.0,0.0,0.0,0.0,0.0,0.0,0.0,0.0,1.023,1.0193,0.9659,0.9031,0.8323,0.7825,0.7203,0.0,0.0,0.0,0.0,0.0,0.0,0.0,0.0,0.0,0.0,0.0,0.0,0.0,0.0,0.0,0.0,0.0,0.0,0.0,0.0,0.0,0.0,0.0,0.0,0.0,0.0,0.0,0.0,0.0,0.0,0.0,0.0,0.0,0.0,0.0,0.0,0.0,0.0,0.0,0.0,0.0,0.0,0.0,0.0,0.0,0.0,0.0,0.0,-1.0764,0.0,0.0,0.0,0.0,0.0,0.0,0.0,0.0,0.0,0.0,0.0,0.0,0.0,0.0,0.0,0.0,0.0,0.0,0.0,0.0,0.0,0.0,0.0,0.0,0.0,0.0,0.0,0.0,0.0,0.0,0.0,0.0,0.0,0.0,0.0,0.0,0.0,0.0,0.0,0.0,0.0,0.0,0.0,0.0,0.0,0.0,0.0,0.0,0.0,0.0,0.0,0.0,0.0,0.0,0.0,0.0,0.0,0.0,0.0,1.0003,0.9853,0.932,0.8569,0.765,0.6896,0.6231,0.0,0.0,0.0,0.0,0.0,0.0,0.0,0.0,0.0,0.0,0.0,0.0,0.0,0.0,0.0,0.0,0.0,0.0,0.0,0.0,0.0,0.0,0.0,0.0,0.0,0.0,0.0,0.0,0.0,0.0,0.0,0.0,0.0,0.0,0.0,0.0,0.0,0.0,0.0,0.0,0.0,0.0,0.0,0.0,0.0,0.0,0.0,0.0,0.0,0.0,0.0,0.0,0.0,0.0,0.0,0.0,0.0,0.0,0.0,0.0,0.0,0.0,0.0,0.0,0.0,0.0,0.0,0.0,0.0,0.0,0.0,0.0,0.0,0.0,0.0,0.0,0.0,0.0,0.0,0.0,0.0,0.0,0.0,0.0,0.0,0.0,0.0,0.0,0.0,0.0,0.0,0.0,0.0,0.0,0.0,0.0,0.0,0.0,0.0,0.0,0.0,0.0,0.0,0.0,0.0,0.0,0.0,0.9783,0.9803,0.9541,0.8979,0.8126,0.6976,0.599,0.5254,0.4835,0.0,0.0,0.0,0.0,0.0,0.0,0.0,0.0,0.0,0.0,0.0,0.0,0.0,0.0,0.0,0.0,0.0,0.0,0.0,0.0,0.0,0.0,0.0,0.0,0.0,0.0,0.0,0.0,0.0,0.0,0.0,0.0,0.0,0.0,0.0,0.0,0.0,0.0,-1.0822,-1.1774,0.0,0.0,0.0,0.0,0.0,0.0,0.0,0.0,-1.2252,0.0,0.0,0.0,0.0,0.0,0.0,0.0,0.0,0.0,0.0,0.0,0.0,0.0,0.0,0.0,0.0,0.0,0.0,0.0,0.0,0.0,0.0,0.0,0.0,0.0,0.0,0.0,0.0,0.0,0.0,0.0,0.0,0.0,0.0,0.0,0.0,0.0,0.0,0.0,0.0,0.0,0.0,0.0,0.0,0.0,0.0,0.0,0.0,0.0,0.0,0.0,0.0,0.0,0.0,0.0,0.0,0.9181,0.923,0.9126,0.8868,0.8323,0.7515,0.6373,0.5369,0.4484,0.3716,0.0,0.0,0.0,0.0,0.0,0.0,0.0,0.0,0.0,0.0,0.0,0.0,0.0,0.0,0.0,0.0,0.0,0.0,0.0,0.0,0.0,0.0,0.0,0.0,0.0,0.0,0.0,0.0,0.0,0.0,0.0,0.0,0.0,0.0,0.0,0.0,0.0,0.0,0.0,-1.1907,-1.2304,0.0,0.0,0.0,0.0,0.0,0.0,0.0,0.0,-1.342,0.0,0.0,0.0,0.0,0.0,0.0,0.0,0.0,0.0,0.0,0.0,0.0,0.0,0.0,0.0,0.0,0.0,0.0,0.0,0.0,0.0,0.0,0.0,0.0,0.0,0.0,0.0,0.0,0.0,0.0,0.0,0.0,0.0,0.0,0.0,0.0,0.0,0.0,0.0,0.0,0.0,0.0,0.0,0.0,0.0,0.0,0.0,0.0,0.0,0.0,0.0,0.0,0.0,0.0,0.0,0.853,0.8709,0.8583,0.8145,0.7637,0.6846,0.5723,0.4818,0.3907,0.0,0.0,0.0,0.0,0.0,0.0,0.0,0.0,0.0,0.0,0.0,0.0,0.0,0.0,0.0,0.0,0.0,0.0,0.0,0.0,0.0,0.0,0.0,0.0,0.0,0.0,0.0,0.0,0.0,0.0,0.0,0.0,0.0,0.0,0.0,0.0,0.0,0.0,0.0,0.0,-1.1703,-1.2076,-1.2529,0.0,0.0,0.0,0.0,0.0,0.0,-1.3843,-1.4023,0.0,0.0,0.0,0.0,0.0,0.0,0.0,0.0,0.0,0.0,0.0,0.0,0.0,0.0,0.0,0.0,0.0,0.0,0.0,0.0,0.0,0.0,0.0,0.0,0.0,0.0,0.0,0.0,0.0,0.0,0.0,0.0,0.0,0.0,0.0,0.0,0.0,0.0,0.0,0.0,0.0,0.0,0.0,0.0,0.0,0.0,0.0,0.0,0.0,0.0,0.0,0.0,0.0,0.0,0.0,0.7965,0.8185,0.8009,0.7409,0.6946,0.6176,0.5096,0.4291,0.3438,0.0,0.0,0.0,0.0,0.0,0.0,0.0,0.0,0.0,0.0,0.0,0.0,0.0,0.0,0.0,0.0,0.0,0.0,0.0,0.0,0.0,0.0,0.0,0.0,0.0,0.0,0.0,0.0,0.0,0.0,0.0,0.0,0.0,0.0,0.0,0.0,0.0,0.0,0.0,0.0,0.0,-1.1703,-1.2126,-1.255,0.0,0.0,0.0,0.0,-1.3792,-1.4173,0.0,0.0,0.0,0.0,0.0,0.0,0.0,0.0,0.0,0.0,0.0,0.0,0.0,0.0,0.0,0.0,0.0,0.0,0.0,0.0,0.0,0.0,0.0,0.0,0.0,0.0,0.0,0.0,0.0,0.0,0.0,0.0,0.0,0.0,0.0,0.0,0.0,0.0,0.0,0.0,0.0,0.0,0.0,0.0,0.0,0.0,0.0,0.0,0.0,0.0,0.0,0.0,0.0,0.0,0.0,0.0,0.7543,0.7577,0.7325,0.6746,0.6332,0.5608,0.46,0.3866,0.3077,0.0,0.0,0.0,0.0,0.0,0.0,0.0,0.0,0.0,0.0,0.0,0.0,0.0,0.0,0.0,0.0,0.0,0.0,0.0,0.0,0.0,0.0,0.0,0.0,0.0,0.0,0.0,0.0,0.0,0.0,0.0,0.0,0.0,0.0,0.0,0.0,0.0,0.0,0.0,0.0,0.0,-1.12,-1.1703,-1.2082,-1.2472,0.0,0.0,-1.4068,-1.4347,-1.4562,0.0,0.0,0.0,0.0,0.0,0.0,0.0,0.0,0.0,0.0,0.0,0.0,0.0,0.0,0.0,0.0,0.0,0.0,0.0,0.0,0.0,0.0,0.0,0.0,0.0,0.0,0.0,0.0,0.0,0.0,0.0,0.0,0.0,0.0,0.0,0.0,0.0,0.0,0.0,0.0,0.0,0.0,0.0,0.0,0.0,0.0,0.0,0.0,0.0,0.0,0.0,0.0,0.0,0.0,0.0,0.6794,0.7134,0.7101,0.6796,0.6318,0.5736,0.5024,0.4126,0.3304,0.2519,0.0,0.0,0.0,0.0,0.0,0.0,0.0,0.0,0.0,0.0,0.0,0.0,0.0,0.0,0.0,0.0,0.0,0.0,0.0,0.0,0.0,0.0,0.0,0.0,0.0,0.0,0.0,0.0,0.0,0.0,0.0,0.0,0.0,0.0,0.0,0.0,0.0,0.0,0.0,0.0,0.0,0.0,-1.0913,-1.1385,0.0,0.0,0.0,-1.3471,-1.3813,0.0,0.0,0.0,0.0,0.0,0.0,0.0,0.0,0.0,0.0,0.0,0.0,0.0,0.0,0.0,0.0,0.0,0.0,0.0,0.0,0.0,0.0,0.0,0.0,0.0,0.0,0.0,0.0,0.0,0.0,0.0,0.0,0.0,0.0,0.0,0.0,0.0,0.0,0.0,0.0,0.0,0.0,0.0,0.0,0.0,0.0,0.0,0.0,0.0,0.0,0.0,0.0,0.0,0.0,0.0,0.0,0.0,0.6651,0.6478,0.6243,0.5837,0.5161,0.4393,0.3625,0.2774,0.0,0.0,0.0,0.0,0.0,0.0,0.0,0.0,0.0,0.0,0.0,0.0,0.0,0.0,0.0,0.0,0.0,0.0,0.0,0.0,0.0,0.0,0.0,0.0,0.0,0.0,0.0,-0.8778,0.0,0.0,0.0,0.0,0.0,0.0,0.0,0.0,0.0,0.0,0.0,0.0,0.0,0.0,-0.9836,-1.0113,-1.0608,-1.1057,0.0,0.0,-1.2545,-1.2991,-1.3314,-1.3563,0.0,0.0,0.0,0.0,0.0,0.0,0.0,0.0,0.0,0.0,0.0,0.0,0.0,0.0,0.0,0.0,0.0,0.0,0.0,0.0,0.0,0.0,0.0,0.0,0.0,0.0,0.0,0.0,0.0,0.0,0.0,0.0,0.0,0.0,0.0,0.0,0.0,0.0,0.0,0.0,0.0,0.0,0.0,0.0,0.0,0.0,0.0,0.0,0.0,0.0,0.0,0.0,0.0,0.0,0.5958,0.5954,0.5785,0.5521,0.515,0.449,0.3799,0.3079,0.2324,0.1618,0.0,0.0,0.0,0.0,0.0,0.0,0.0,0.0,0.0,0.0,0.0,0.0,0.0,0.0,0.0,0.0,0.0,0.0,0.0,0.0,0.0,0.0,0.0,0.0,0.0,0.0,0.0,0.0,0.0,0.0,0.0,0.0,0.0,0.0,0.0,0.0,0.0,0.0,0.0,0.0,0.0,-0.9159,-0.9446,-0.9718,-1.0046,0.0,-1.0965,-1.1482,-1.2012,-1.2414,-1.2764,-1.304,0.0,0.0,0.0,0.0,0.0,0.0,0.0,0.0,0.0,0.0,0.0,0.0,0.0,0.0,0.0,0.0,0.0,0.0,0.0,0.0,0.0,0.0,0.0,0.0,0.0,0.0,0.0,0.0,0.0,0.0,0.0,0.0,0.0,0.0,0.0,0.0,0.0,0.0,0.0,0.0,0.0,0.0,0.0,0.0,0.0,0.0,0.0,0.0,0.0,0.0,0.0,0.0,0.0,0.5884,0.5947,0.5804,0.5448,0.4881,0.4253,0.3489,0.259,0.1851,0.1159,0.0,0.0,0.0,0.0,0.0,0.0,0.0,0.0,0.0,0.0,0.0,0.0,0.0,0.0,0.0,0.0,0.0,0.0,0.0,0.0,0.0,0.0,0.0,0.0,0.0,0.0,0.0,0.0,-0.8778,-0.8752,-0.8685,0.0,0.0,0.0,0.0,0.0,0.0,0.0,0.0,0.0,0.0,-0.8249,-0.8435,-0.8751,0.0,0.0,-0.9902,-1.0389,-1.0939,-1.135,-1.1758,-1.2255,-1.2329,0.0,0.0,0.0,0.0,0.0,0.0,0.0,0.0,0.0,0.0,0.0,0.0,0.0,0.0,0.0,0.0,0.0,0.0,0.0,0.0,0.0,0.0,0.0,0.0,0.0,0.0,0.0,0.0,0.0,0.0,0.0,0.0,0.0,0.0,0.0,0.0,0.0,0.0,0.0,0.0,0.0,0.0,0.0,0.0,0.0,0.0,0.0,0.0,0.0,0.0,0.0,0.0,0.5839,0.5842,0.5663,0.5164,0.4477,0.3842,0.3012,0.2034,0.1304,0.0617,0.0,0.0,0.0,0.0,0.0,0.0,0.0,0.0,0.0,0.0,0.0,0.0,0.0,0.0,0.0,0.0,0.0,0.0,0.0,0.0,0.0,0.0,0.0,0.0,0.0,0.0,0.0,0.0,-0.8752,-0.8685,-0.8553,0.0,0.0,0.0,0.0,0.0,0.0,0.0,0.0,0.0,0.0,-0.7423,-0.7498,-0.7803,-0.815,-0.8501,-0.8955,-0.9406,-0.9902,-1.0379,-1.0812,-1.1309,0.0,0.0,0.0,0.0,0.0,0.0,0.0,0.0,0.0,0.0,0.0,0.0,0.0,0.0,0.0,0.0,0.0,0.0,0.0,0.0,0.0,0.0,0.0,0.0,0.0,0.0,0.0,0.5318,0.0,0.0,0.4411,0.0,0.0,0.0,0.0,0.0,0.0,0.0,0.0,0.0,0.0,0.0,0.0,0.0,0.0,0.0,0.0,0.0,0.0,0.0,0.0,0.0,0.0,0.5695,0.5525,0.5138,0.4602,0.3925,0.3182,0.235,0.1354,0.0751,0.0091,-0.0676,0.0,0.0,0.0,0.0,0.0,0.0,0.0,0.0,0.0,0.0,0.0,0.0,0.0,0.0,0.0,0.0,0.0,0.0,0.0,0.0,0.0,0.0,0.0,0.0,0.0,0.0,-0.8778,-0.8685,-0.8553,0.0,0.0,0.0,0.0,0.0,0.0,0.0,0.0,0.0,0.0,-0.6756,-0.6647,-0.6652,-0.6928,-0.7236,-0.7515,-0.8049,-0.856,-0.8961,-0.9477,-0.9917,0.0,0.0,0.0,0.0,0.0,0.0,0.0,0.0,0.0,0.0,0.0,0.0,0.0,0.0,0.0,0.0,0.0,0.0,0.0,0.0,0.0,0.0,0.0,0.0,0.0,0.0,0.0,0.4839,0.4731,0.0,0.0,0.0,0.0,0.0,0.0,0.0,0.0,0.0,0.0,0.0,0.1684,0.1357,0.0,0.0,0.0,0.0,0.0,0.0,0.0,0.0,0.0,0.0,0.0,0.0,0.5482,0.5342,0.4966,0.4342,0.3536,0.2863,0.2066,0.1062,0.0412,-0.0482,-0.1655,0.0,0.0,0.0,0.0,0.0,0.0,0.0,0.0,0.0,0.0,0.0,0.0,0.0,0.0,0.0,0.0,0.0,0.0,0.0,0.0,0.0,0.0,0.0,0.0,0.0,-0.8752,0.0,0.0,0.0,0.0,0.0,0.0,0.0,0.0,0.0,0.0,0.0,-0.6302,-0.6295,-0.6173,-0.6137,-0.6354,-0.6489,-0.675,0.0,0.0,0.0,0.0,0.0,0.0,0.0,0.0,0.0,0.0,0.0,0.0,0.0,0.0,-1.0787,-1.1133,-1.0922,-1.0594,-1.0305,0.0,0.0,0.0,0.0,0.0,0.0,0.0,0.0,0.0,0.0,0.0,0.0,0.0,0.0,0.4165,0.0,0.3701,0.0,0.0,0.0,0.0,0.0,0.0,0.0,0.0,0.1296,0.1262,0.1177,0.0926,0.08,0.0,0.0581,0.0811,0.0,0.0,0.0,0.0,0.0,0.0,0.0,0.0,0.5479,0.5286,0.4896,0.4194,0.3288,0.2555,0.1676,0.0614,-0.0352,-0.1384,-0.2539,-0.2981,-0.3544,0.0,0.0,0.0,0.0,0.0,0.0,0.0,0.0,0.0,0.0,0.0,0.0,0.0,0.0,0.0,0.0,0.0,0.0,0.0,0.0,0.0,0.0,0.0,-0.8685,0.0,0.0,0.0,0.0,0.0,0.0,0.0,0.0,0.0,-0.6405,-0.605,-0.5784,-0.5856,-0.5764,-0.5754,-0.5958,0.0,0.0,0.0,0.0,0.0,0.0,0.0,-0.8321,-0.8614,-0.8898,-0.921,-0.9517,-0.9729,-0.978,-0.9503,0.0,0.0,-1.0105,-0.9994,-0.9703,-0.9503,-0.9216,-0.8979,-0.8724,-0.8518,-0.8312,0.0,0.0,0.0,0.0,0.0,0.0,0.0,0.0,0.3716,0.3461,0.0,0.2992,0.0,0.0,0.0,0.0,0.1302,0.1263,0.0,0.0,0.1269,0.1184,0.0974,0.0763,0.055,0.0296,0.0338,0.0506,0.0757,0.1379,0.0,0.0,0.0,0.0,0.0,0.0,0.5615,0.5269,0.48,0.4097,0.3175,0.225,0.1189,-0.0035,-0.1454,-0.2554,-0.3263,-0.3642,-0.4107,-0.4715,-0.5329,0.0,0.0,0.0,0.0,0.0,0.0,0.0,0.0,0.0,0.0,0.0,0.0,0.0,0.0,0.0,0.0,0.0,0.0,0.0,0.0,-0.8685,0.0,0.0,0.0,0.0,0.0,0.0,0.0,0.0,0.0,0.0,-0.5979,-0.5599,-0.5371,-0.5562,0.0,0.0,0.0,0.0,-0.5745,-0.6078,-0.6315,-0.6676,-0.7111,-0.7474,-0.7749,-0.7954,0.0,0.0,-0.8718,-0.8745,-0.8646,-0.8388,-0.819,-0.8263,-0.8942,-0.8988,-0.8797,-0.8441,-0.8435,-0.8435,-0.8157,-0.8153,-0.8201,0.7301,0.0,0.0,0.0,0.0,0.5048,0.4763,0.4322,0.3716,0.326,0.2901,0.2297,0.0,0.0,0.0,0.0,0.0,0.0,0.0869,0.0926,0.094,0.0818,0.0553,0.0507,0.0369,0.0092,0.0134,0.0309,0.0704,0.1006,0.1635,0.2532,0.0,0.0,0.0,0.0,0.4877,0.4569,0.4004,0.3249,0.2373,0.1484,0.0259,-0.1262,-0.2314,-0.3133,-0.3767,-0.4295,-0.4879,-0.5458,-0.6105,0.0,0.0,0.0,0.0,0.0,0.0,0.0,0.0,0.0,0.0,0.0,0.0,0.0,0.0,0.0,0.0,0.0,0.0,0.0,-0.8659,-0.8454,-0.8236,0.0,0.0,0.0,0.0,0.0,0.0,0.0,0.0,0.0,-0.5578,-0.5464,-0.5393,0.0,0.0,-0.5431,-0.5535,-0.5582,-0.5739,-0.6093,-0.6226,0.0,-0.6741,-0.6838,-0.6988,-0.7249,-0.7399,-0.7516,-0.7576,-0.7584,-0.753,-0.7369,-0.7149,-0.7042,-0.7063,-0.7465,-0.7658,-0.7417,-0.7423,-0.7456,-0.73,-0.7381,-0.7439,0.7422,0.6658,0.6615,0.6253,0.5646,0.5434,0.4987,0.4377,0.3715,0.3113,0.2618,0.2041,0.165,0.1485,0.1387,0.0,0.0,0.0,0.1173,0.1242,0.1118,0.0895,0.0572,0.0572,0.0381,0.0,0.014,0.0322,0.0597,0.0987,0.1462,0.1989,0.0,0.0,0.4083,0.4339,0.4314,0.4005,0.3418,0.2653,0.1771,0.0474,-0.0782,-0.2024,-0.2957,-0.3776,-0.4421,-0.507,-0.569,-0.6299,-0.687,-0.7378,0.0,0.0,0.0,0.0,0.0,0.0,0.0,0.0,0.0,0.0,0.0,-0.9105,-0.8958,0.0,0.0,0.0,-0.8691,-0.8693,-0.8707,-0.8401,0.0,0.0,0.0,0.0,0.0,0.0,0.0,-0.6004,-0.5651,-0.5408,-0.5399,-0.5403,-0.5413,-0.541,-0.5391,-0.5419,-0.5507,0.0,-0.562,-0.5947,-0.598,-0.6077,-0.6394,-0.6442,-0.648,-0.6613,-0.6633,-0.6624,-0.6606,-0.6593,-0.6539,-0.6426,-0.629,-0.61,-0.5805,-0.6127,-0.6453,-0.6399,-0.6539,-0.6625,-0.6495,-0.6625,-0.6723,0.7709,0.7279,0.7279,0.6842,0.6113,0.5871,0.5163,0.4265,0.3688,0.3014,0.2343,0.2005,0.1605,0.1111,0.1319,0.0,0.1531,0.1716,0.1828,0.1913,0.1626,0.1244,0.0814,0.0815,0.0527,0.0,0.0239,0.0382,0.043,0.1049,0.1431,0.1523,0.2385,0.3127,0.3707,0.3919,0.382,0.3494,0.2944,0.2193,0.1176,-0.0629,-0.1923,-0.2565,-0.3551,-0.4408,-0.5131,-0.5863,-0.653,-0.7116,-0.7638,-0.7976,-0.8184,0.0,0.0,0.0,0.0,0.0,0.0,0.0,0.0,0.0,0.0,0.0,0.0,0.0,0.0,0.0,-0.8557,0.0,-0.8826,-0.8416,0.0,0.0,0.0,-0.6935,-0.6778,-0.6202,-0.5801,-0.5801,0.0,0.0,-0.5411,-0.5395,-0.5395,-0.5395,-0.5395,-0.5395,-0.5395,-0.5395,-0.5458,-0.5583,-0.5583,-0.5716,-0.6063,-0.6166,-0.6145,-0.6089,-0.5973,-0.5914,-0.5771,-0.5719,-0.5691,-0.5591,-0.554,-0.5454,-0.5128,-0.5152,-0.5152,-0.5481,-0.5755,-0.5891,-0.5805,-0.5964,-0.6122,0.8272,0.8166,0.791,0.7386,0.6607,0.6158,0.5613,0.5023,0.4054,0.3257,0.2628,0.1968,0.1475,0.1183,0.1602,0.1791,0.18,0.1847,0.1915,0.195,0.1707,0.1278,0.0797,0.0797,0.0499,0.0,0.0098,0.0195,0.039,0.0576,0.0858,0.1191,0.1449,0.2027,0.2869,0.3093,0.2988,0.2512,0.2008,0.0961,-0.063,-0.1878,-0.2772,-0.3393,-0.4279,-0.5062,-0.5706,-0.6381,-0.6967,-0.7479,-0.827,-0.8773,-0.8926,-0.9395,0.0,0.0,0.0,0.0,0.0,0.0,0.0,0.0,0.0,-0.9392,-0.9218,0.0,-0.925,0.0,-0.867,-0.8411,-0.8357,-0.782,0.0,0.0,-0.7007,-0.6639,-0.6499,-0.6129,-0.5816,-0.5654,-0.5501,-0.5387,-0.5392,-0.5395,-0.5395,-0.5395,-0.5395,-0.5395,-0.5395,-0.5395,-0.5395,-0.5458,-0.5458,-0.5521,-0.5716,-0.5885,-0.5877,-0.5609,-0.5547,-0.5449,-0.5171,-0.5117,-0.5093,-0.5066,-0.5062,-0.5011,-0.4825,-0.4798,-0.477,-0.4794,-0.5042,-0.5317,-0.5262,-0.5395,-0.5527,0.8433,0.8276,0.8065,0.754,0.6837,0.6367,0.5916,0.5389,0.4268,0.3503,0.3013,0.2152,0.1692,0.1594,0.1915,0.2108,0.2124,0.2076,0.2098,0.2137,0.179,0.13,0.0808,0.0808,0.0505,0.0,0.0,0.0099,0.0199,0.0344,0.0538,0.0783,0.0922,0.12,0.1614,0.2001,0.2018,0.1546,0.0625,-0.0522,-0.1848,-0.2798,-0.354,-0.4038,-0.4968,-0.57,-0.6216,-0.6975,-0.7613,-0.8149,-0.883,-0.9281,-0.9475,-0.9806,-0.9951,0.0,0.0,0.0,0.0,0.0,0.0,0.0,0.0,0.0,0.0,0.0,-0.9285,-0.9132,-0.8503,-0.8116,-0.8102,-0.7494,-0.7064,-0.7117,-0.6711,-0.6399,-0.6305,-0.5984,-0.5719,-0.5617,-0.5491,-0.5395,-0.5395,-0.5395,-0.5395,-0.5395,-0.5395,-0.5395,-0.5395,-0.5395,-0.5395,-0.5395,-0.5395,-0.5425,-0.5524,-0.5624,-0.5553,-0.5236,-0.5161,-0.5084,-0.48,-0.4708,-0.4736,-0.4708,-0.4736,-0.468,-0.4632,-0.4632,-0.4574,-0.4546,-0.468,-0.4849,-0.4936,-0.5038,-0.5117,0.8381,0.8064,0.7958,0.755,0.6836,0.646,0.5984,0.5488,0.4358,0.3646,0.3263,0.2403,0.2022,0.2019,0.218,0.2279,0.2361,0.2265,0.2284,0.2269,0.1768,0.1263,0.0758,0.0758,0.0505,0.0,0.0,0.0,0.0,0.0252,0.0303,0.0303,0.0547,0.0493,0.0246,0.0775,0.0854,0.0416,-0.089,-0.1939,-0.2687,-0.3578,-0.4211,-0.4653,-0.5569,-0.6296,-0.6747,-0.7607,-0.8321,-0.8879,-0.9318,-0.967,-0.988,-1.0008,-1.0053,0.0,-1.0,0.0,0.0,0.0,0.0,0.0,0.0,0.0,0.0,-0.9334,-0.9236,-0.8888,-0.8217,-0.7801,-0.7869,-0.7237,-0.6815,-0.6815,-0.6379,-0.6145,-0.6112,-0.5785,-0.5583,-0.5583,-0.5458,-0.5395,-0.5395,-0.5395,-0.5395,-0.5395,-0.5395,-0.5395,-0.5395,-0.5395,-0.5395,-0.5395,-0.5395,-0.5395,-0.5392,-0.5375,-0.5266,-0.4986,-0.4891,-0.4789,-0.4539,-0.4491,-0.4491,-0.4487,-0.4519,-0.4491,-0.4491,-0.4491,-0.4491,-0.4491,-0.4519,-0.4546,-0.466,-0.4767,-0.4846,0.8684,0.8349,0.7917,0.7326,0.6682,0.5881,0.5501,0.5216,0.4552,0.3782,0.2954,0.2283,0.2011,0.2011,0.2053,0.2054,0.206,0.2061,0.1964,0.1768,0.1415,0.101,0.0505,0.0455,0.0303,0.0,0.0,0.0,0.0,0.005,-0.005,-0.0252,-0.0201,-0.0402,-0.0854,0.0,0.0,0.0,-0.2121,-0.2884,-0.3407,-0.4303,-0.4927,-0.5222,-0.604,0.0,-0.7575,-0.8171,-0.873,-0.9247,-0.9677,0.0,0.0,0.0,0.0,0.0,0.0,0.0,0.0,0.0,0.0,0.0,-0.9047,-0.887,-0.8909,-0.8775,-0.8538,-0.8214,-0.7919,-0.7558,-0.7134,-0.6745,-0.6449,-0.6313,-0.5984,-0.5716,-0.5716,-0.5557,-0.5425,-0.5425,-0.5395,-0.5395,-0.5395,-0.5395,-0.5395,-0.5395,-0.5395,-0.5395,-0.5395,-0.5395,-0.5395,-0.5395,-0.5395,-0.5395,-0.5395,-0.5254,-0.5131,-0.4948,-0.4809,-0.4674,-0.4535,-0.4491,-0.4491,-0.4491,-0.4491,-0.4491,-0.4491,-0.4491,-0.4491,-0.4491,-0.4491,-0.4519,-0.4546,-0.4546,-0.4574,0.8719,0.8208,0.7771,0.7049,0.0,0.5485,0.4849,0.4424,0.4224,0.3698,0.285,0.2292,0.192,0.1768,0.1819,0.1718,0.1617,0.1617,0.1516,0.1414,0.1111,0.0808,0.0404,0.0404,0.0252,0.0,0.0,-0.005,-0.0202,-0.0202,-0.0404,-0.0808,-0.0808,-0.1111,-0.1817,-0.2229,-0.2417,-0.2254,-0.3004,-0.3703,-0.4399,-0.4979,-0.5496,-0.5948,-0.6561,0.0,0.0,0.0,0.0,0.0,0.0,0.0,0.0,-1.0839,0.0,-1.0964,-1.0569,-1.0194,-0.9921,-0.9526,-0.9176,-0.8865,-0.8337,-0.8135,-0.8388,-0.831,-0.813,-0.7764,-0.7488,-0.7149,-0.6781,-0.6344,-0.6109,-0.6116,-0.5886,-0.571,-0.5679,-0.5648,-0.5549,-0.5518,-0.5474,-0.5484,-0.5405,-0.5395,-0.5395,-0.5395,-0.5395,-0.5395,-0.5395,-0.5395,-0.5395,-0.5395,-0.5395,-0.5368,-0.5257,-0.5192,-0.5015,-0.4857,-0.4741,-0.4633,-0.4515,-0.4491,-0.4491,-0.4491,-0.4491,-0.4491,-0.4491,-0.4491,-0.4491,-0.4491,-0.4491,-0.4491,-0.4491,-0.4491,-0.4491,0.863,0.7911,0.7557,0.6657,0.5543,0.4929,0.4195,0.3456,0.0,0.0,0.0,0.2241,0.1869,0.1617,0.1566,0.1364,0.1111,0.1162,0.1111,0.1061,0.0808,0.0606,0.0303,0.0252,0.0151,-0.005,-0.0101,-0.0252,-0.0556,-0.0556,-0.0808,-0.1364,-0.1414,-0.1817,-0.2667,-0.3591,-0.3854,-0.3515,-0.3932,-0.4517,-0.5246,-0.5577,-0.6039,-0.6558,-0.7046,-0.7559,-0.8106,-0.8816,-0.9382,-0.9845,-1.0461,-1.0836,-1.0921,-1.1019,-1.1045,-1.0985,-1.0571,-1.0155,-0.9665,-0.9376,-0.8944,-0.8305,-0.7731,-0.7552,-0.7837,-0.7828,-0.7663,-0.7371,-0.7043,-0.6763,-0.6513,-0.6102,-0.5916,-0.6047,-0.5911,-0.5796,-0.5796,-0.58,-0.5745,-0.565,-0.5603,-0.5545,-0.546,-0.5412,-0.5395,-0.5395,-0.5395,-0.5395,-0.5395,-0.5395,-0.5395,-0.5395,-0.5395,-0.5311,-0.5172,-0.5069,-0.4986,-0.4752,-0.4674,-0.4631,-0.4528,-0.4491,-0.4491,-0.4491,-0.4491,-0.4491,-0.4491,-0.4491,-0.4491,-0.4491,-0.4491,-0.4491,-0.4491,-0.4491,-0.4491,0.8404,0.7751,0.686,0.5817,0.4646,0.4035,0.3391,0.2741,0.2748,0.2695,0.2539,0.219,0.1869,0.1566,0.1364,0.1111,0.0859,0.0859,0.0707,0.0505,0.0455,0.0303,0.005,-0.0202,-0.0303,-0.0353,-0.0606,-0.0808,-0.1061,-0.1061,-0.1464,-0.217,-0.222,-0.2774,-0.3768,-0.4659,-0.5135,-0.5223,-0.5208,-0.5271,-0.5467,-0.6132,-0.655,-0.6776,-0.7311,-0.7952,-0.8585,-0.898,-0.9487,-1.0018,-1.0278,-1.0575,-1.0968,-1.1022,-1.1128,-1.1273,-1.0781,-1.0373,-1.0118,-0.96,-0.8962,-0.8212,-0.7715,-0.7426,-0.733,-0.7158,-0.6971,-0.6742,-0.6706,-0.6489,-0.6204,-0.6097,-0.6004,-0.5882,-0.5842,-0.5803,-0.5817,-0.582,-0.581,-0.5776,-0.5661,-0.5589,-0.5576,-0.5474,-0.5395,-0.5395,-0.5395,-0.5395,-0.5395,-0.5395,-0.5395,-0.5395,-0.5395,-0.5298,-0.5145,-0.4988,-0.4891,-0.4724,-0.461,-0.4532,-0.4501,-0.4491,-0.4491,-0.4491,-0.4491,-0.4491,-0.4491,-0.4491,-0.4491,-0.4491,-0.4491,-0.4491,-0.4491,-0.4491,-0.4491,0.8314,0.7437,0.6644,0.5594,0.4424,0.3138,0.2265,0.1673,0.1659,0.19,0.2227,0.1782,0.1415,0.1162,0.0909,0.0606,0.0353,0.0202,0.0101,-0.005,-0.0202,-0.0303,-0.0455,-0.0707,-0.0859,-0.0859,-0.111,-0.1463,-0.1817,-0.1868,-0.2321,-0.3277,-0.3828,-0.4381,-0.4872,-0.5574,-0.5939,-0.6023,-0.5892,-0.5921,-0.6218,-0.6445,-0.6812,-0.7217,-0.7542,-0.8036,-0.8689,-0.9173,-0.9575,-0.9983,-1.0458,-1.0773,-1.0888,-1.1004,-1.1058,-1.1062,-1.0481,-1.0105,-0.9879,-0.9127,-0.8446,-0.7987,-0.7484,-0.7148,-0.7025,-0.6935,-0.6826,-0.6639,-0.6514,-0.6397,-0.6218,-0.6112,-0.6036,-0.6081,-0.6051,-0.6088,-0.6047,-0.6088,-0.6017,-0.5928,-0.5796,-0.5674,-0.5634,-0.5491,-0.5395,-0.5395,-0.5395,-0.5395,-0.5395,-0.5395,-0.5395,-0.5395,-0.5392,-0.5289,-0.5064,-0.4935,-0.4826,-0.4638,-0.4539,-0.4494,-0.4491,-0.4491,-0.4491,-0.4491,-0.4491,-0.4491,-0.4491,-0.4491,-0.4491,-0.4491,-0.4491,-0.4491,-0.4491,-0.4491,-0.4491,0.8101,0.7078,0.6259,0.5148,0.3752,0.2177,0.1262,0.0908,0.085,0.1154,0.17,0.1321,0.096,0.0707,0.0404,0.0151,-0.0101,-0.0353,-0.0505,-0.0606,-0.0808,-0.0909,-0.101,-0.1313,-0.1465,-0.1515,-0.1817,-0.2219,-0.2724,-0.2774,-0.3327,-0.4383,-0.5386,-0.5887,-0.5882,-0.6342,-0.6549,-0.6582,-0.6391,-0.6482,-0.6792,-0.6726,-0.6999,-0.7541,-0.7732,-0.8099,-0.8737,-0.9369,-0.9815,-1.0045,-1.069,-1.1027,-1.0913,-1.1027,-1.1041,-1.0805,-1.0301,-0.9824,-0.9392,-0.8599,-0.7991,-0.7804,-0.7296,-0.6945,-0.6945,-0.6865,-0.674,-0.6554,-0.6378,-0.6303,-0.6266,-0.6153,-0.6129,-0.6282,-0.63,-0.6282,-0.6293,-0.63,-0.6255,-0.6084,-0.5918,-0.5755,-0.564,-0.5511,-0.5402,-0.5395,-0.5395,-0.5395,-0.5425,-0.5425,-0.5458,-0.5491,-0.5458,-0.5276,-0.4982,-0.4921,-0.4792,-0.4542,-0.4491,-0.4491,-0.4491,-0.4491,-0.4491,-0.4491,-0.4491,-0.4491,-0.4491,-0.4491,-0.4491,-0.4491,-0.4491,-0.4491,-0.4491,-0.4491,-0.4491,0.7566,0.6594,0.5273,0.364,0.2014,0.0994,0.0652,0.0799,0.0577,0.0618,0.0862,0.0859,0.0657,0.0404,0.0151,-0.0101,-0.0404,-0.0657,-0.0909,-0.1111,-0.1162,-0.1312,-0.1614,-0.2069,-0.227,-0.2371,-0.2826,-0.3328,-0.3831,-0.3882,-0.4433,-0.5436,-0.6289,-0.6692,-0.6714,-0.6972,-0.712,-0.7114,-0.7021,-0.6922,-0.6792,-0.6953,-0.7229,-0.7603,-0.7955,-0.8409,-0.8941,-0.9619,-1.013,-1.0533,-1.0787,-1.0998,-1.1112,-1.1158,-1.1101,-1.089,-1.0478,-0.9834,-0.8885,-0.8331,-0.8038,-0.7804,-0.7411,-0.718,-0.718,-0.6834,-0.656,-0.6419,-0.6349,-0.6304,-0.6279,-0.6269,-0.6272,-0.6289,-0.63,-0.63,-0.63,-0.63,-0.6293,-0.6282,-0.5986,-0.5793,-0.5745,-0.5566,-0.5402,-0.5395,-0.5425,-0.5458,-0.555,-0.5617,-0.5686,-0.5756,-0.5627,-0.5337,-0.5037,-0.4918,-0.4825,-0.4597,-0.4519,-0.4519,-0.4543,-0.4519,-0.4491,-0.457,-0.4515,-0.4515,-0.4491,-0.4491,-0.4519,-0.4491,-0.4491,-0.4491,-0.4491,-0.4491,-0.4491,0.6771,0.5664,0.4468,0.284,0.1049,0.0219,-0.0108,-0.0105,-0.0261,-0.0257,-0.0152,-0.0151,-0.005,0.0151,-0.0101,-0.0455,-0.0859,-0.1162,-0.1515,-0.1918,-0.207,-0.2271,-0.2573,-0.3127,-0.3327,-0.3379,-0.3882,-0.4435,-0.4935,-0.5438,-0.5889,-0.6339,-0.6945,-0.7294,-0.7279,-0.744,-0.7579,-0.7566,-0.7382,-0.723,-0.7133,-0.7098,-0.7335,-0.7748,-0.8041,-0.8425,-0.8923,-0.9608,-1.0075,-1.0273,-1.0638,-1.0875,-1.0835,-1.0956,-1.0951,-1.0737,-1.0327,-0.9711,-0.8755,-0.8551,-0.8302,-0.8004,-0.7714,-0.7561,-0.7522,-0.718,-0.6914,-0.6799,-0.6532,-0.63,-0.63,-0.63,-0.63,-0.63,-0.63,-0.63,-0.63,-0.63,-0.63,-0.6282,-0.6071,-0.5895,-0.5783,-0.5545,-0.5412,-0.5425,-0.5458,-0.5554,-0.5617,-0.5782,-0.598,-0.605,-0.602,-0.5831,-0.5457,-0.5272,-0.5128,-0.497,-0.4825,-0.4739,-0.4736,-0.4736,-0.4736,-0.4763,-0.4736,-0.468,-0.4632,-0.4605,-0.4605,-0.4546,-0.4491,-0.4491,-0.4491,-0.4491,-0.4491,0.5933,0.4634,0.3255,0.1658,0.0109,-0.0487,-0.085,-0.0987,-0.1033,-0.1022,-0.1011,-0.101,-0.0909,-0.0707,-0.0707,-0.101,-0.1515,-0.1817,-0.2272,-0.2825,-0.3027,-0.333,-0.3681,-0.4183,-0.4435,-0.4535,-0.4985,-0.5486,-0.5989,-0.6642,-0.7045,-0.7095,-0.7494,-0.7696,-0.7726,-0.7791,-0.7814,-0.7787,-0.7556,-0.748,-0.7421,-0.7322,-0.7454,-0.7852,-0.8084,-0.8482,-0.8995,-0.9708,-1.0129,-1.0217,-1.0703,-1.095,-1.079,-1.095,-1.0881,-1.0525,-1.0182,-0.964,-0.884,-0.8741,-0.8531,-0.8194,-0.8056,-0.794,-0.7825,-0.7603,-0.7411,-0.7257,-0.6837,-0.6528,-0.6412,-0.6335,-0.63,-0.63,-0.63,-0.63,-0.63,-0.63,-0.63,-0.6286,-0.6118,-0.5936,-0.5806,-0.5589,-0.547,-0.5534,-0.5552,-0.5716,-0.5815,-0.6112,-0.6375,-0.6441,-0.6609,-0.6436,-0.5954,-0.5716,-0.5544,-0.5374,-0.5212,-0.5135,-0.5057,-0.5007,-0.5007,-0.5007,-0.5007,-0.4956,-0.4849,-0.4798,-0.4743,-0.4601,-0.4519,-0.4491,-0.4491,-0.4491,-0.4491,0.5002,0.3541,0.1275,-0.0055,-0.0763,-0.132,-0.1559,-0.1603,-0.1629,-0.1565,-0.1614,-0.1613,-0.1866,-0.2219,-0.1818,-0.1869,-0.2371,-0.2623,-0.3177,-0.3882,-0.3982,-0.4234,-0.4734,-0.5286,-0.5536,-0.5534,-0.5987,-0.6437,-0.6745,-0.7294,-0.755,-0.7543,-0.7842,-0.7992,-0.7922,-0.7847,-0.7818,-0.7811,-0.7668,-0.759,-0.7587,-0.7577,-0.7657,-0.7912,-0.8113,-0.8556,-0.9253,-0.9927,-1.0389,-1.0649,-1.1069,-1.1252,-1.1262,-1.1257,-1.0979,-1.0396,-1.0161,-0.9709,-0.91,-0.8881,-0.8687,-0.8475,-0.8444,-0.8336,-0.8243,-0.8111,-0.791,-0.7522,-0.7334,-0.6988,-0.6676,-0.6447,-0.63,-0.63,-0.63,-0.63,-0.63,-0.63,-0.63,-0.6276,-0.6163,-0.6057,-0.5863,-0.5674,-0.5696,-0.5751,-0.5716,-0.583,-0.6271,-0.656,-0.6806,-0.7101,-0.7251,-0.7163,-0.6415,-0.6206,-0.6053,-0.5897,-0.5798,-0.562,-0.5417,-0.5304,-0.5308,-0.5308,-0.5336,-0.5281,-0.5152,-0.5018,-0.4936,-0.4798,-0.4601,-0.4546,-0.4546,-0.4491,-0.4491,0.3361,0.1556,0.0165,-0.0918,-0.1584,-0.2189,-0.2524,-0.2598,-0.2631,-0.2624,-0.2624,-0.2624,-0.2924,-0.3379,-0.3228,-0.3228,-0.3429,-0.353,-0.4083,-0.4933,-0.5035,-0.5286,-0.5837,-0.6189,-0.6392,-0.6439,-0.6739,-0.7039,-0.7294,-0.7693,-0.7842,-0.7842,-0.7939,-0.7988,-0.7978,-0.7938,-0.7907,-0.7891,-0.7811,-0.7733,-0.7729,-0.7648,-0.7679,-0.7901,-0.8299,-0.8756,-0.9357,-1.0091,-1.0637,-1.0858,-1.1309,-1.1478,-1.1305,-1.1311,-1.1101,-1.0615,-1.0491,-1.0137,-0.9503,-0.9469,-0.9437,-0.9254,-0.9217,-0.9179,-0.9116,-0.8865,-0.8546,-0.825,-0.7829,-0.748,-0.7176,-0.6795,-0.6451,-0.6338,-0.63,-0.63,-0.63,-0.63,-0.6338,-0.6468,-0.6428,-0.6378,-0.6309,-0.6216,-0.6188,-0.6304,-0.6314,-0.6493,-0.6831,-0.7162,-0.7452,-0.7694,-0.7954,-0.8064,-0.78,-0.713,-0.6759,-0.6649,-0.6534,-0.6351,-0.6173,-0.5972,-0.5945,-0.5909,-0.5882,-0.5773,-0.5668,-0.5289,-0.5179,-0.5042,-0.4849,-0.4684,-0.4632,-0.4605,-0.4546,0.184,0.0164,-0.081,-0.1591,-0.2335,-0.2887,-0.3319,-0.3584,-0.3583,-0.3633,-0.3682,-0.3732,-0.3982,-0.4435,-0.4535,-0.4684,-0.4834,-0.4636,-0.5085,-0.5937,-0.5987,-0.6237,-0.6637,-0.6942,-0.7045,-0.7095,-0.7341,-0.754,-0.7746,-0.7892,-0.7988,-0.7988,-0.7988,-0.7988,-0.7988,-0.7988,-0.7988,-0.7965,-0.7933,-0.7837,-0.7872,-0.7794,-0.7787,-0.7975,-0.8354,-0.8816,-0.924,-1.0072,-1.0639,-1.098,-1.1483,-1.1762,-1.1647,-1.1636,-1.1418,-1.0954,-1.089,-1.0623,-1.0098,-1.0152,-1.0163,-1.0054,-1.0089,-1.0113,-1.0013,-0.9699,-0.9425,-0.9101,-0.8638,-0.8198,-0.7873,-0.7423,-0.6909,-0.6518,-0.6338,-0.6338,-0.6374,-0.6412,-0.6528,-0.6745,-0.6859,-0.6904,-0.6873,-0.6772,-0.6836,-0.7025,-0.7047,-0.7151,-0.7608,-0.7972,-0.8258,-0.8433,-0.8794,-0.888,-0.8759,-0.8292,-0.774,-0.7557,-0.7365,-0.715,-0.6936,-0.6738,-0.6586,-0.651,-0.6426,-0.6349,-0.6077,-0.5641,-0.5422,-0.5312,-0.5066,-0.4877,-0.4798,-0.4688,-0.4632,0.0437,-0.0488,-0.1526,-0.2285,-0.284,-0.3362,-0.389,-0.4338,-0.4388,-0.4487,-0.4736,-0.4784,-0.5035,-0.5486,-0.5536,-0.5987,-0.6389,-0.5937,-0.6039,-0.6742,-0.6792,-0.6942,-0.7188,-0.7444,-0.7596,-0.7596,-0.7839,-0.7988,-0.7988,-0.7988,-0.7988,-0.7988,-0.7988,-0.7988,-0.7988,-0.7988,-0.7988,-0.7985,-0.7968,-0.7975,-0.7985,-0.7958,-0.7948,-0.8007,-0.8297,-0.8612,-0.8996,-0.9799,-1.0431,-1.0935,-1.1604,-1.2146,-1.236,-1.2414,-1.2081,-1.1489,-1.1343,-1.1122,-1.074,-1.0704,-1.0774,-1.0752,-1.0895,-1.0956,-1.0836,-1.0644,-1.042,-1.0072,-0.9597,-0.9166,-0.8792,-0.8326,-0.7652,-0.6794,-0.6549,-0.6507,-0.6588,-0.6644,-0.6756,-0.718,-0.7421,-0.7514,-0.7482,-0.7472,-0.7512,-0.7735,-0.7744,-0.7938,-0.8574,-0.8973,-0.9244,-0.9434,-0.965,-0.9769,-0.9628,-0.9442,-0.8914,-0.8496,-0.8278,-0.8059,-0.7792,-0.7585,-0.7399,-0.729,-0.6993,-0.6879,-0.6674,-0.6295,-0.5968,-0.5778,-0.5449,-0.5152,-0.5073,-0.4963,-0.4746,-0.0108,-0.0739,-0.1616,-0.2419,-0.3105,-0.3639,-0.4284,-0.4891,-0.4939,-0.519,-0.5591,-0.5639,-0.5942,-0.6339,-0.6439,-0.6742,-0.7294,-0.7095,-0.7141,-0.7297,-0.7347,-0.7494,-0.769,-0.7839,-0.7842,-0.7892,-0.7942,-0.7988,-0.7988,-0.7988,-0.7988,-0.7988,-0.7988,-0.7988,-0.7988,-0.7988,-0.7988,-0.7988,-0.7988,-0.7988,-0.7988,-0.7988,-0.7988,-0.8038,-0.8283,-0.8523,-0.8874,-0.9667,-1.0457,-1.107,-1.1852,-1.2558,-1.3095,-1.3252,-1.2892,-1.2224,-1.214,-1.1789,-1.13,-1.1434,-1.1597,-1.1649,-1.1803,-1.1922,-1.184,-1.1548,-1.1284,-1.099,-1.0431,-0.9953,-0.9629,-0.8996,-0.8298,-0.7506,-0.7215,-0.7068,-0.7202,-0.7449,-0.765,-0.7829,-0.8131,-0.8318,-0.8313,-0.827,-0.8407,-0.8726,-0.8678,-0.8882,-0.9509,-0.9796,-0.9968,-1.0246,-1.0449,-1.051,-1.0309,-1.01,-0.9802,-0.9332,-0.9082,-0.8811,-0.8574,-0.8387,-0.8241,-0.7998,-0.7686,-0.7465,-0.7247,-0.6922,-0.6611,-0.6282,-0.6005,-0.5732,-0.5485,-0.5266,-0.5046,-0.0426,-0.0883,-0.1649,-0.2398,-0.308,-0.3531,-0.4236,-0.4987,-0.5138,-0.5491,-0.5944,-0.6245,-0.6542,-0.6892,-0.7042,-0.7344,-0.7743,-0.7746,-0.7746,-0.7746,-0.7746,-0.7846,-0.7988,-0.7988,-0.7988,-0.7988,-0.7988,-0.7988,-0.7988,-0.7988,-0.7988,-0.7988,-0.7988,-0.7988,-0.7988,-0.7988,-0.7988,-0.7988,-0.7988,-0.7988,-0.7988,-0.7988,-0.7988,-0.8038,-0.8187,-0.8382,-0.8669,-0.9356,-1.0224,-1.1173,-1.2194,-1.3124,-1.378,-1.3835,-1.3616,-1.3156,-1.288,-1.2581,-1.2076,-1.2281,-1.2406,-1.2456,-1.2644,-1.2768,-1.2713,-1.2392,-1.2101,-1.1858,-1.1338,-1.0917,-1.0621,-0.9971,-0.9298,-0.8884,-0.8122,-0.7816,-0.7918,-0.84,-0.8652,-0.8783,-0.8952,-0.9132,-0.9155,-0.916,-0.9279,-0.9556,-0.9606,-0.9727,-1.0366,-1.0629,-1.083,-1.1013,-1.1131,-1.1093,-1.0866,-1.0717,-1.0587,-1.0225,-0.9837,-0.9519,-0.9248,-0.9137,-0.8989,-0.8716,-0.8436,-0.8311,-0.8084,-0.7589,-0.7207,-0.6896,-0.6641,-0.625,-0.5946,-0.5614,-0.5371,-0.0527,-0.088,-0.1629,-0.2275,-0.2775,-0.3079,-0.3783,-0.4686,-0.4987,-0.5441,-0.5992,-0.6495,-0.6942,-0.7238,-0.7441,-0.7743,-0.7992,-0.7992,-0.7939,-0.7939,-0.7939,-0.7988,-0.7988,-0.7988,-0.7988,-0.7988,-0.7988,-0.7988,-0.7988,-0.7988,-0.7988,-0.7988,-0.7988,-0.7988,-0.7988,-0.7988,-0.7988,-0.7988,-0.7988,-0.7988,-0.7988,-0.7988,-0.7988,-0.7988,-0.8038,-0.8134,-0.8478,-0.9114,-1.0002,-1.1238,-1.2657,-1.3654,-1.4219,-1.431,-1.4272,-1.3946,-1.3729,-1.3497,-1.3217,-1.3126,-1.3156,-1.3156,-1.3277,-1.344,-1.3364,-1.315,-1.2908,-1.2698,-1.2278,-1.192,-1.1662,-1.1096,-1.0623,-1.0441,-0.9251,-0.8639,-0.8873,-0.9423,-0.9659,-0.9735,-0.9881,-0.9954,-0.9954,-0.9954,-1.0067,-1.025,-1.0415,-1.0691,-1.102,-1.134,-1.1578,-1.1699,-1.1725,-1.1589,-1.1337,-1.1253,-1.1094,-1.0647,-1.0367,-1.0123,-0.9829,-0.9707,-0.9605,-0.9358,-0.9118,-0.9036,-0.8823,-0.8314,-0.7999,-0.7819,-0.7399,-0.6838,-0.6438,-0.6147,-0.5785,-0.0576,-0.0865,-0.1468,-0.202,-0.2522,-0.2775,-0.338,-0.4185,-0.4489,-0.5146,-0.5944,-0.6545,-0.7045,-0.7494,-0.7739,-0.7939,-0.7988,-0.7988,-0.7988,-0.7988,-0.7988,-0.7988,-0.7988,-0.7988,-0.7988,-0.7988,-0.7988,-0.7988,-0.7988,-0.7988,-0.7988,-0.7988,-0.7988,-0.7988,-0.7988,-0.7988,-0.7988,-0.7988,-0.7988,-0.7988,-0.7988,-0.7988,-0.7988,-0.7988,-0.7988,-0.8137,-0.8482,-0.9476,-1.0605,-1.1736,-1.2888,-1.3842,-1.4529,-1.4889,-1.5003,-1.4811,-1.4689,-1.4449,-1.4059,-1.3906,-1.3896,-1.3901,-1.3874,-1.3919,-1.3913,-1.3678,-1.3532,-1.3379,-1.3056,-1.2705,-1.2388,-1.1929,-1.1542,-1.108,-1.0293,-0.9805,-0.9954,-1.0319,-1.0578,-1.059,-1.0716,-1.0747,-1.0738,-1.0775,-1.0812,-1.0999,-1.1111,-1.126,-1.1558,-1.1781,-1.1924,-1.2061,-1.2115,-1.1968,-1.185,-1.1737,-1.1496,-1.1049,-1.0797,-1.0645,-1.0362,-1.0113,-1.0032,-0.985,-0.9606,-0.9485,-0.93,-0.8974,-0.8817,-0.8637,-0.819,-0.7677,-0.7207,-0.6849,-0.636,-0.0679,-0.0859,-0.1364,-0.1869,-0.2224,-0.2544,-0.3063,-0.3726,-0.4236,-0.4898,-0.5751,-0.6511,-0.7045,-0.7444,-0.7839,-0.7988,-0.7988,-0.7988,-0.8025,-0.8136,-0.8143,-0.8106,-0.8008,-0.7988,-0.7988,-0.7988,-0.7988,-0.7988,-0.7988,-0.7988,-0.7988,-0.7988,-0.7988,-0.7988,-0.7988,-0.7988,-0.7988,-0.7988,-0.7988,-0.7988,-0.7988,-0.7988,-0.7988,-0.7988,-0.7988,-0.8191,-0.8783,-0.9821,-1.09,-1.1927,-1.2845,-1.3715,-1.4592,-1.5077,-1.5319,-1.5344,-1.5279,-1.5074,-1.4812,-1.4647,-1.448,-1.4348,-1.4299,-1.4215,-1.4122,-1.3955,-1.3864,-1.3646,-1.3476,-1.3264,-1.3009,-1.2662,-1.2314,-1.1955,-1.1629,-1.1339,-1.1085,-1.1297,-1.1466,-1.1465,-1.15,-1.1489,-1.1397,-1.1341,-1.1409,-1.1477,-1.1558,-1.17,-1.1929,-1.204,-1.2157,-1.2231,-1.2305,-1.2164,-1.2031,-1.196,-1.167,-1.1269,-1.0895,-1.0841,-1.066,-1.0419,-1.0347,-1.021,-1.006,-0.9913,-0.977,-0.9622,-0.9422,-0.9188,-0.8853,-0.8481,-0.7993,-0.7609,-0.7115,-0.0888,-0.0909,-0.1415,-0.1819,-0.2077,-0.2367,-0.2847,-0.3424,-0.4105,-0.4782,-0.5489,-0.6377,-0.6956,-0.7256,-0.7839,-0.8012,-0.7988,-0.7988,-0.8136,-0.8218,-0.8316,-0.8225,-0.8096,-0.8002,-0.7992,-0.7988,-0.7988,-0.7988,-0.7988,-0.7988,-0.7988,-0.7988,-0.7988,-0.7988,-0.7988,-0.7988,-0.7988,-0.7988,-0.7988,-0.7988,-0.7988,-0.7988,-0.7988,-0.8038,-0.8088,-0.8439,-0.9133,-0.9969,-1.0904,-1.198,-1.271,-1.3624,-1.4544,-1.4933,-1.5302,-1.5636,-1.5551,-1.5425,-1.5398,-1.5125,-1.4917,-1.4679,-1.4585,-1.4442,-1.4242,-1.4133,-1.4028,-1.3828,-1.3737,-1.361,-1.3392,-1.3222,-1.2966,-1.2741,-1.2905,-1.2747,-1.2401,-1.2302,-1.2386,-1.2308,-1.2316,-1.212,-1.1928,-1.18,-1.1781,-1.1818,-1.1892,-1.2003,-1.2077,-1.215,-1.2231,-1.2268,-1.2305,-1.2305,-1.2191,-1.2084,-1.1777,-1.143,-1.1015,-1.0787,-1.068,-1.0533,-1.0559,-1.0468,-1.0303,-1.0296,-1.0356,-1.019,-0.998,-0.9775,-0.9474,-0.9095,-0.8699,-0.8397,-0.7988,-0.1305,-0.1465,-0.1766,-0.2069,-0.2328,-0.247,-0.2854,-0.3432,-0.3844,-0.4656,-0.5545,-0.6417,-0.7027,-0.74,-0.795,-0.816,-0.8022,-0.8029,-0.8123,-0.8269,-0.8449,-0.835,-0.8221,-0.8119,-0.7995,-0.7988,-0.7988,-0.7988,-0.7988,-0.7988,-0.7988,-0.7988,-0.7988,-0.7988,-0.7988,-0.7988,-0.7988,-0.7988,-0.7988,-0.7988,-0.7988,-0.7988,-0.7988,-0.8038,-0.8187,-0.8634,-0.9236,-0.9969,-1.09,-1.1878,-1.2759,-1.363,-1.4496,-1.4981,-1.5315,-1.5676,-1.5778,-1.5725,-1.5678,-1.5464,-1.5277,-1.5157,-1.4957,-1.475,-1.4462,-1.4429,-1.4272,-1.4077,-1.3997,-1.3923,-1.3685,-1.3447,-1.3355,-1.3307,-1.3307,-1.3349,-1.3305,-1.3156,-1.3067,-1.2969,-1.2831,-1.2656,-1.2538,-1.2276,-1.221,-1.2207,-1.2187,-1.2224,-1.2261,-1.2268,-1.2268,-1.2305,-1.2305,-1.2305,-1.2251,-1.2104,-1.1817,-1.1503,-1.1089,-1.076,-1.0646,-1.0586,-1.0586,-1.0586,-1.0566,-1.0586,-1.0586,-1.0579,-1.0294,-1.0169,-1.0018,-0.9679,-0.9339,-0.9108,-0.8794,-0.1931,-0.2021,-0.2422,-0.2686,-0.2918,-0.3074,-0.3323,-0.3725,-0.4291,-0.4901,-0.5692,-0.6563,-0.7183,-0.7531,-0.8046,-0.8245,-0.8279,-0.8326,-0.8397,-0.8489,-0.856,-0.8543,-0.8445,-0.8255,-0.8119,-0.8008,-0.7988,-0.7988,-0.7988,-0.7988,-0.7988,-0.7988,-0.7988,-0.7988,-0.7988,-0.7988,-0.7988,-0.7988,-0.7988,-0.7988,-0.7988,-0.7988,-0.7988,-0.8088,-0.8382,-0.8829,-0.9381,-1.0319,-1.1292,-1.2268,-1.3093,-1.3817,-1.4592,-1.5077,-1.5452,-1.5737,-1.5825,-1.5825,-1.5765,-1.5691,-1.5538,-1.5411,-1.5251,-1.5023,-1.481,-1.473,-1.4669,-1.4543,-1.4496,-1.4412,-1.4124,-1.3867,-1.3756,-1.3743,-1.3701,-1.3779,-1.3802,-1.3642,-1.345,-1.3402,-1.33,-1.3007,-1.2819,-1.2643,-1.2425,-1.2304,-1.2231,-1.2268,-1.2268,-1.2305,-1.2305,-1.2305,-1.2305,-1.2298,-1.2265,-1.2104,-1.183,-1.151,-1.1156,-1.0861,-1.0646,-1.0606,-1.0586,-1.0586,-1.0586,-1.0586,-1.0586,-1.0586,-1.0586,-1.0451,-1.0273,-1.0114,-0.9919,-0.9662,-0.9365,-0.2706,-0.2674,-0.3229,-0.3512,-0.3669,-0.3954,-0.4126,-0.4395,-0.4982,-0.5534,-0.5954,-0.6891,-0.7405,-0.7765,-0.8151,-0.8418,-0.8482,-0.8608,-0.8652,-0.8769,-0.8828,-0.8864,-0.8838,-0.8717,-0.8491,-0.8223,-0.8058,-0.8045,-0.8088,-0.8088,-0.8137,-0.8137,-0.8134,-0.8137,-0.8088,-0.8088,-0.8038,-0.8038,-0.8088,-0.8088,-0.8137,-0.8134,-0.8184,-0.8283,-0.868,-0.9175,-0.9772,-1.0654,-1.1683,-1.2764,-1.3528,-1.4202,-1.4736,-1.5213,-1.5588,-1.5778,-1.5825,-1.5825,-1.5825,-1.5798,-1.5705,-1.5471,-1.5464,-1.5324,-1.5156,-1.5062,-1.5015,-1.4981,-1.4914,-1.4803,-1.4603,-1.4312,-1.4166,-1.4119,-1.4135,-1.4088,-1.4039,-1.3906,-1.3774,-1.3657,-1.3553,-1.3333,-1.306,-1.2857,-1.265,-1.2432,-1.2365,-1.2318,-1.2318,-1.2305,-1.2305,-1.2305,-1.2305,-1.2305,-1.2278,-1.2238,-1.1951,-1.1663,-1.1303,-1.1042,-1.0801,-1.0754,-1.074,-1.0606,-1.0586,-1.0586,-1.0586,-1.0586,-1.0593,-1.0561,-1.0485,-1.0344,-1.023,-1.0174,-0.9881,-0.3805,-0.3781,-0.4332,-0.4543,-0.463,-0.4827,-0.5065,-0.5311,-0.5619,-0.6183,-0.6895,-0.7381,-0.7792,-0.8154,-0.8444,-0.8587,-0.8606,-0.8766,-0.8946,-0.9129,-0.9251,-0.9323,-0.9416,-0.9378,-0.9264,-0.9002,-0.8563,-0.8279,-0.8354,-0.8333,-0.8482,-0.863,-0.863,-0.8581,-0.8432,-0.8333,-0.8233,-0.8137,-0.8237,-0.8333,-0.8432,-0.8577,-0.868,-0.873,-0.9179,-0.9624,-1.0064,-1.0949,-1.1927,-1.2759,-1.3721,-1.4448,-1.4927,-1.5309,-1.5588,-1.573,-1.5825,-1.5825,-1.5825,-1.5825,-1.5805,-1.5765,-1.5732,-1.5611,-1.5411,-1.5317,-1.5244,-1.5129,-1.5062,-1.4995,-1.4934,-1.4623,-1.4476,-1.4402,-1.4255,-1.4122,-1.4115,-1.4039,-1.3984,-1.3955,-1.3781,-1.3567,-1.3333,-1.3086,-1.2893,-1.2679,-1.2518,-1.2438,-1.2398,-1.2358,-1.2305,-1.2305,-1.2305,-1.2305,-1.2298,-1.2278,-1.2138,-1.1926,-1.1631,-1.1376,-1.1176,-1.0982,-1.0882,-1.0808,-1.0687,-1.0586,-1.0586,-1.0593,-1.0586,-1.0593,-1.0561,-1.053,-1.0434,-1.0339,-1.0308,-0.4767,-0.4887,-0.5238,-0.5521,-0.5741,-0.5886,-0.609,-0.6319,-0.6583,-0.6993,-0.7435,-0.7875,-0.818,-0.8436,-0.8625,-0.8716,-0.8923,-0.9187,-0.9421,-0.9727,-0.9826,-1.0002,-1.0159,-1.015,-1.001,-0.9824,-0.9412,-0.9026,-0.8955,-0.8866,-0.8992,-0.913,-0.908,-0.8931,-0.8832,-0.868,-0.8577,-0.8482,-0.8531,-0.868,-0.8832,-0.9076,-0.9225,-0.9377,-0.9723,-1.0117,-1.056,-1.1438,-1.2322,-1.3001,-1.3919,-1.4646,-1.5077,-1.5452,-1.5689,-1.5778,-1.5825,-1.5825,-1.5825,-1.5825,-1.5818,-1.5825,-1.5825,-1.5772,-1.5665,-1.5605,-1.5538,-1.5424,-1.5276,-1.5184,-1.5177,-1.4917,-1.4776,-1.4696,-1.4489,-1.4335,-1.4275,-1.4175,-1.4128,-1.4115,-1.3975,-1.3801,-1.3573,-1.338,-1.318,-1.2953,-1.275,-1.2643,-1.2532,-1.2432,-1.2371,-1.2305,-1.2305,-1.2305,-1.2305,-1.2291,-1.2251,-1.2074,-1.1906,-1.1657,-1.1456,-1.1269,-1.1182,-1.1129,-1.0935,-1.072,-1.06,-1.06,-1.0593,-1.0593,-1.0586,-1.0561,-1.0561,-1.053,-1.0466,-0.5664,-0.5837,-0.6139,-0.6443,-0.67,-0.6901,-0.6956,-0.7115,-0.748,-0.766,-0.7826,-0.8266,-0.854,-0.8734,-0.8876,-0.9132,-0.9414,-0.9764,-1.0123,-1.0515,-1.0578,-1.0743,-1.0916,-1.0945,-1.0907,-1.0939,-1.0704,-1.0306,-0.9829,-0.9608,-0.9677,-0.983,-0.9677,-0.948,-0.9426,-0.9274,-0.9072,-0.8973,-0.9023,-0.9179,-0.948,-0.9776,-0.9924,-0.992,-1.0364,-1.0752,-1.1002,-1.1883,-1.2565,-1.3244,-1.4022,-1.479,-1.5131,-1.5553,-1.5784,-1.5825,-1.5825,-1.5825,-1.5825,-1.5825,-1.5825,-1.5825,-1.5825,-1.5771,-1.5764,-1.5778,-1.5792,-1.5778,-1.5645,-1.5484,-1.5444,-1.5224,-1.5077,-1.499,-1.4803,-1.4596,-1.4536,-1.4429,-1.4262,-1.4208,-1.4135,-1.4008,-1.3821,-1.3567,-1.3347,-1.3267,-1.3033,-1.2906,-1.2806,-1.2572,-1.2465,-1.2351,-1.2305,-1.2305,-1.2305,-1.2305,-1.2251,-1.2131,-1.206,-1.1933,-1.1703,-1.1523,-1.1456,-1.1376,-1.1149,-1.0915,-1.0787,-1.0653,-1.0673,-1.0673,-1.062,-1.0586,-1.0593,-1.0561,-1.053,-0.64,-0.6692,-0.6939,-0.7098,-0.7151,-0.7437,-0.7548,-0.7599,-0.7886,-0.8152,-0.8432,-0.8488,-0.8875,-0.9254,-0.9578,-0.983,-1.0116,-1.0343,-1.0802,-1.1404,-1.1514,-1.1787,-1.2164,-1.2209,-1.2144,-1.217,-1.2012,-1.1397,-1.0952,-1.074,-1.0716,-1.0905,-1.0717,-1.0507,-1.031,-1.0015,-0.9727,-0.9624,-0.9768,-1.0113,-1.056,-1.085,-1.0998,-1.1096,-1.1292,-1.1536,-1.1688,-1.2419,-1.291,-1.3195,-1.416,-1.479,-1.5131,-1.5553,-1.5737,-1.5825,-1.5825,-1.5825,-1.5825,-1.5825,-1.5825,-1.5825,-1.5825,-1.5825,-1.5825,-1.5825,-1.5825,-1.5825,-1.5772,-1.5745,-1.5678,-1.5504,-1.5384,-1.5251,-1.509,-1.495,-1.4863,-1.4663,-1.4496,-1.4389,-1.4342,-1.4208,-1.4048,-1.3773,-1.356,-1.3453,-1.3373,-1.324,-1.308,-1.2852,-1.2661,-1.2546,-1.2479,-1.2472,-1.2452,-1.2452,-1.2345,-1.2264,-1.2224,-1.2134,-1.1957,-1.179,-1.1683,-1.1563,-1.1369,-1.1223,-1.1129,-1.1008,-1.0868,-1.0747,-1.0667,-1.062,-1.0586,-1.0586,-1.0586,-0.7291,-0.7247,-0.7543,-0.7736,-0.7922,-0.8364,-0.8538,-0.8603,-0.8907,-0.9096,-0.9206,-0.9206,-0.9485,-0.9926,-1.0308,-1.0692,-1.1021,-1.1185,-1.1728,-1.2382,-1.2604,-1.2876,-1.3305,-1.3413,-1.3408,-1.3383,-1.335,-1.3382,-1.2745,-1.2112,-1.1834,-1.2162,-1.1801,-1.1438,-1.1243,-1.09,-1.0654,-1.0654,-1.09,-1.1243,-1.1536,-1.1883,-1.2073,-1.2122,-1.2316,-1.2414,-1.2608,-1.3055,-1.3448,-1.3684,-1.4454,-1.4939,-1.5172,-1.5499,-1.5825,-1.5825,-1.5825,-1.5825,-1.5825,-1.5825,-1.5825,-1.5825,-1.5825,-1.5825,-1.5825,-1.5825,-1.5825,-1.5825,-1.5825,-1.5825,-1.5825,-1.5718,-1.5671,-1.5558,-1.5357,-1.5277,-1.5144,-1.4923,-1.475,-1.4643,-1.4536,-1.4422,-1.4289,-1.4075,-1.3853,-1.3781,-1.3647,-1.3494,-1.3353,-1.318,-1.297,-1.2808,-1.2747,-1.2743,-1.2725,-1.268,-1.2599,-1.2508,-1.2435,-1.2351,-1.2214,-1.2064,-1.1944,-1.1951,-1.1931,-1.175,-1.151,-1.1229,-1.1002,-1.0868,-1.0713,-1.066,-1.0613,-1.0593,-1.0593,-0.8141,-0.7892,-0.8041,-0.8307,-0.8618,-0.9205,-0.9407,-0.9531,-0.9853,-1.0033,-1.0091,-1.0198,-1.0417,-1.0692,-1.1185,-1.1618,-1.201,-1.2223,-1.293,-1.3478,-1.3802,-1.4067,-1.4439,-1.46,-1.46,-1.46,-1.4572,-1.4669,-1.4554,-1.4037,-1.3467,-1.3563,-1.2903,-1.2531,-1.2278,-1.1927,-1.1585,-1.1634,-1.2073,-1.2311,-1.2511,-1.2905,-1.3098,-1.3195,-1.3292,-1.3383,-1.348,-1.3823,-1.4076,-1.4268,-1.479,-1.522,-1.5315,-1.5594,-1.5778,-1.5825,-1.5825,-1.5825,-1.5825,-1.5825,-1.5825,-1.5825,-1.5825,-1.5825,-1.5825,-1.5825,-1.5825,-1.5825,-1.5825,-1.5825,-1.5825,-1.5771,-1.5792,-1.5718,-1.5618,-1.5551,-1.5451,-1.5224,-1.5057,-1.4983,-1.4863,-1.4696,-1.4543,-1.4342,-1.4188,-1.4075,-1.3921,-1.3748,-1.3587,-1.3434,-1.3358,-1.3163,-1.3099,-1.3075,-1.3026,-1.2975,-1.2859,-1.2746,-1.2673,-1.2586,-1.2435,-1.2288,-1.2191,-1.2251,-1.2305,-1.2171,-1.1877,-1.151,-1.1156,-1.0969,-1.0834,-1.0707,-1.0646,-1.0651,-1.0656,-0.8985,-0.8676,-0.8485,-0.8671,-0.9114,-0.9561,-0.9836,-1.0071,-1.0494,-1.0692,-1.0802,-1.1181,-1.1459,-1.1678,-1.211,-1.2659,-1.3152,-1.3207,-1.3905,-1.4552,-1.4934,-1.5196,-1.5458,-1.5672,-1.5731,-1.5672,-1.5666,-1.5814,-1.6007,-1.564,-1.5074,-1.4596,-1.4025,-1.3673,-1.3365,-1.2975,-1.271,-1.2754,-1.3136,-1.3329,-1.3516,-1.3811,-1.4106,-1.4154,-1.4202,-1.4202,-1.425,-1.4448,-1.4598,-1.4598,-1.5118,-1.5404,-1.5452,-1.5642,-1.5784,-1.5825,-1.5825,-1.5825,-1.5825,-1.5825,-1.5825,-1.5825,-1.5825,-1.5825,-1.5825,-1.5825,-1.5825,-1.5825,-1.5825,-1.5825,-1.5825,-1.5825,-1.5825,-1.5798,-1.5745,-1.5725,-1.5631,-1.5511,-1.5364,-1.5311,-1.5177,-1.5035,-1.4919,-1.4774,-1.4425,-1.4298,-1.4068,-1.3888,-1.3822,-1.3709,-1.3695,-1.3595,-1.3481,-1.3418,-1.3358,-1.3283,-1.3209,-1.3015,-1.2893,-1.2753,-1.2592,-1.2496,-1.2452,-1.2378,-1.2378,-1.2315,-1.2275,-1.1933,-1.1612,-1.1189,-1.0935,-1.0908,-1.0811,-1.0805,-1.0803,-0.9937,-0.9937,-0.9682,-0.9567,-0.9658,-1.0406,-1.0828,-1.1078,-1.153,-1.1728,-1.1782,-1.2327,-1.2659,-1.2822,-1.3251,-1.3792,-1.4283,-1.4337,-1.4987,-1.5523,-1.5844,-1.6051,-1.6311,-1.6358,-1.6358,-1.6365,-1.6418,-1.6583,-1.6776,-1.6701,-1.6594,-1.6037,-1.5201,-1.4728,-1.4338,-1.399,-1.3727,-1.3769,-1.4004,-1.4202,-1.4298,-1.4544,-1.479,-1.479,-1.479,-1.479,-1.479,-1.4892,-1.4939,-1.5029,-1.5309,-1.5452,-1.5547,-1.5737,-1.5784,-1.5825,-1.5825,-1.5825,-1.5825,-1.5825,-1.5825,-1.5825,-1.5825,-1.5825,-1.5825,-1.5825,-1.5825,-1.5825,-1.5825,-1.5825,-1.5825,-1.5825,-1.5825,-1.5825,-1.5825,-1.5872,-1.5826,-1.5745,-1.5705,-1.5677,-1.5503,-1.5342,-1.5285,-1.5181,-1.4808,-1.4459,-1.4222,-1.4084,-1.4046,-1.409,-1.4083,-1.4086,-1.3987,-1.3951,-1.3875,-1.3712,-1.357,-1.3351,-1.3177,-1.301,-1.29,-1.279,-1.2716,-1.2599,-1.2489,-1.2439,-1.2405,-1.2344,-1.2074,-1.1633,-1.135,-1.1176,-1.1106,-1.1008,-1.109,-1.0924,-1.0905,-1.0811,-1.0561,-1.0441,-1.1208,-1.1678,-1.1965,-1.2537,-1.2871,-1.298,-1.3527,-1.3797,-1.3959,-1.4439,-1.4922,-1.525,-1.541,-1.5897,-1.6271,-1.659,-1.6743,-1.6895,-1.6942,-1.6942,-1.6942,-1.7001,-1.7113,-1.7279,-1.7272,-1.7226,-1.6904,-1.6346,-1.5788,-1.5212,-1.4836,-1.455,-1.4592,-1.4777,-1.4921,-1.4968,-1.5172,-1.5315,-1.5315,-1.5315,-1.5315,-1.5315,-1.5315,-1.5315,-1.5356,-1.5499,-1.5594,-1.5642,-1.5689,-1.5778,-1.5825,-1.5825,-1.5825,-1.5825,-1.5825,-1.5825,-1.5825,-1.5825,-1.5825,-1.5825,-1.5825,-1.5825,-1.5825,-1.5825,-1.5825,-1.5825,-1.5879,-1.5927,-1.5981,-1.6157,-1.6204,-1.6157,-1.6135,-1.6102,-1.6082,-1.5952,-1.5889,-1.5872,-1.5836,-1.5455,-1.5046,-1.4747,-1.4542,-1.4364,-1.4469,-1.4594,-1.4563,-1.4555,-1.4482,-1.4455,-1.4197,-1.3992,-1.3933,-1.3712,-1.3441,-1.3309,-1.3163,-1.3017,-1.29,-1.2746,-1.2636,-1.2609,-1.2611,-1.2387,-1.2062,-1.186,-1.1722,-1.1525,-1.1454,-1.1534,-1.1761,-1.151,-1.1667,-1.1551,-1.1402,-1.1907,-1.2291,-1.2601,-1.3354,-1.3851,-1.4164,-1.4708,-1.4928,-1.5035,-1.5512,-1.5885,-1.6158,-1.6217,-1.6537,-1.6961,-1.7067,-1.7325,-1.743,-1.7477,-1.7364,-1.7529,-1.7483,-1.743,-1.7536,-1.7536,-1.7549,-1.7462,-1.6974,-1.6522,-1.5901,-1.5374,-1.5102,-1.5143,-1.5421,-1.5488,-1.5504,-1.566,-1.5756,-1.5689,-1.5642,-1.5642,-1.5642,-1.5642,-1.5642,-1.5683,-1.5683,-1.573,-1.5778,-1.5778,-1.5825,-1.5825,-1.5825,-1.5825,-1.5825,-1.5825,-1.5825,-1.5825,-1.5825,-1.5825,-1.5825,-1.5825,-1.5825,-1.5825,-1.5825,-1.5825,-1.5879,-1.6028,-1.6076,-1.617,-1.6305,-1.6494,-1.6447,-1.6494,-1.6494,-1.6534,-1.6581,-1.6593,-1.6589,-1.6444,-1.6102,-1.5738,-1.533,-1.507,-1.4909,-1.4852,-1.5025,-1.5092,-1.5063,-1.5061,-1.4949,-1.4636,-1.4426,-1.4395,-1.4304,-1.4116,-1.385,-1.3638,-1.3441,-1.3243,-1.3119,-1.3046,-1.2966,-1.2922,-1.2854,-1.2806,-1.2514,-1.2301,-1.2094,-1.197,-1.2088,-1.2639,-1.2485,-1.2561,-1.2598,-1.269,-1.3027,-1.3337,-1.3722,-1.4493,-1.497,-1.5137,-1.5624,-1.5844,-1.6004,-1.6211,-1.6577,-1.6855,-1.6908,-1.7173,-1.743,-1.743,-1.7483,-1.7582,-1.7589,-1.7589,-1.7589,-1.7589,-1.7589,-1.7589,-1.7589,-1.7589,-1.7508,-1.7315,-1.6954,-1.6547,-1.6193,-1.6173,-1.6173,-1.6259,-1.6241,-1.6056,-1.6064,-1.6039,-1.5879,-1.5872,-1.5885,-1.5892,-1.5905,-1.5905,-1.5899,-1.5905,-1.5892,-1.5879,-1.5879,-1.5804,-1.5791,-1.5832,-1.5825,-1.5825,-1.5825,-1.5825,-1.5825,-1.5825,-1.5825,-1.5825,-1.5825,-1.5825,-1.5825,-1.5825,-1.5825,-1.5832,-1.6076,-1.617,-1.6224,-1.6407,-1.6643,-1.6737,-1.6831,-1.6878,-1.7005,-1.7052,-1.7372,-1.75,-1.7626,-1.7349,-1.7003,-1.6667,-1.5972,-1.5646,-1.5462,-1.5511,-1.5553,-1.5588,-1.5594,-1.5473,-1.5264,-1.5188,-1.5187,-1.5134,-1.4988,-1.4649,-1.429,-1.4038,-1.3899,-1.3681,-1.3463,-1.3484,-1.3506,-1.3694,-1.363,-1.3491,-1.3135,-1.2837,-1.2724,-1.2727,-1.3529,-1.3556,-1.3464,-1.3634,-1.3868,-1.3894,-1.4169,-1.4713,-1.5351,-1.5672,-1.5885,-1.6377,-1.659,-1.6696,-1.6902,-1.7054,-1.7331,-1.7325,-1.7384,-1.7589,-1.7589,-1.7589,-1.7589,-1.7589,-1.7589,-1.7589,-1.7589,-1.7589,-1.7589,-1.7589,-1.7589,-1.7588,-1.7447,-1.7241,-1.7007,-1.6803,-1.661,-1.659,-1.6557,-1.653,-1.646,-1.64,-1.6339,-1.6219,-1.6172,-1.6159,-1.6139,-1.6126,-1.6071,-1.6064,-1.6064,-1.6119,-1.6106,-1.6039,-1.6005,-1.5979,-1.5872,-1.5852,-1.5825,-1.5825,-1.5825,-1.5825,-1.5825,-1.5825,-1.5825,-1.5825,-1.5825,-1.5825,-1.5825,-1.5825,-1.5825,-1.6076,-1.6218,-1.6319,-1.6555,-1.6838,-1.716,-1.7254,-1.7387,-1.7473,-1.7746,-1.8071,-1.8488,-1.8688,-1.872,-1.8393,-1.8037,-1.7313,-1.6551,-1.6335,-1.6125,-1.6105,-1.6147,-1.6147,-1.6106,-1.6023,-1.5976,-1.5997,-1.5932,-1.5835,-1.5561,-1.5223,-1.4888,-1.4521,-1.4297,-1.4109,-1.4065,-1.4122,-1.4386,-1.4597,-1.4717,-1.4271,-1.3695,-1.3556,-1.3563,-1.4465,-1.4653,-1.4429,-1.4573,-1.4883,-1.4493,-1.4713,-1.5482,-1.5785,-1.6051,-1.6324,-1.6908,-1.7126,-1.7232,-1.743,-1.7536,-1.7536,-1.7582,-1.7582,-1.7582,-1.7589,-1.7589,-1.7589,-1.7589,-1.7589,-1.7589,-1.7589,-1.7589,-1.7589,-1.7589,-1.7589,-1.7589,-1.7535,-1.7462,-1.7308,-1.7108,-1.6901,-1.6907,-1.6901,-1.6847,-1.6747,-1.6714,-1.6653,-1.6573,-1.6547,-1.6553,-1.6553,-1.6567,-1.6593,-1.6613,-1.6633,-1.6653,-1.6593,-1.6433,-1.6388,-1.6219,-1.6032,-1.5985,-1.5965,-1.5992,-1.5972,-1.6025,-1.5917,-1.5844,-1.5825,-1.5825,-1.5825,-1.5825,-1.5825,-1.5825,-1.5825,-1.6069,-1.6312,-1.6501,-1.6791,-1.716,-1.7581,-1.7768,-1.79,-1.8125,-1.8442,-1.8812,-1.9363,-1.9666,-1.9786,-1.9825,-1.9487,-1.9027,-1.8263,-1.7321,-1.7092,-1.6681,-1.6722,-1.6722,-1.6701,-1.671,-1.6893,-1.6973,-1.6829,-1.6724,-1.6416,-1.615,-1.578,-1.5412,-1.4928,-1.4748,-1.474,-1.4919,-1.5169,-1.5403,-1.5607,-1.5316,-1.4714,-1.4554,-1.4504,-1.501,-1.5228,-1.4999,-1.504,-1.5316,-1.5202,-1.5369,-1.5838,-1.6258,-1.6518,-1.663,-1.7213,-1.7437,-1.7483,-1.7582,-1.7589,-1.7589,-1.7589,-1.7589,-1.7589,-1.7589,-1.7589,-1.7589,-1.7589,-1.7589,-1.7589,-1.7589,-1.7589,-1.7589,-1.7589,-1.7589,-1.7589,-1.7589,-1.7589,-1.7528,-1.7415,-1.7328,-1.7275,-1.7248,-1.7161,-1.7061,-1.7072,-1.6934,-1.6834,-1.6794,-1.6794,-1.6787,-1.6774,-1.6774,-1.6747,-1.6727,-1.6714,-1.6687,-1.6627,-1.6587,-1.658,-1.65,-1.6466,-1.6453,-1.6446,-1.6413,-1.638,-1.64,-1.6159,-1.5999,-1.5879,-1.5892,-1.5939,-1.5952,-1.5972,-1.5932,-1.6103,-1.6353,-1.6602,-1.6885,-1.7207,-1.7675,-1.8087,-1.8265,-1.8866,-1.9134,-1.9637,-2.0184,-2.0501,-2.0664,-2.0934,-2.0918,-2.0474,-1.9825,-1.882,-1.8046,-1.7655,-1.7294,-1.7294,-1.7416,-1.7502,-1.7743,-1.7914,-1.7752,-1.7646,-1.7509,-1.7188,-1.6761,-1.631,-1.5891,-1.5633,-1.548,-1.57,-1.5947,-1.6158,-1.6349,-1.6067,-1.5819,-1.5545,-1.5285,-1.5434,-1.5638,-1.5469,-1.5609,-1.5937,-1.6004,-1.6051,-1.6258,-1.6571,-1.667,-1.6789,-1.7312,-1.7589,-1.7589,-1.7589,-1.7589,-1.7589,-1.7589,-1.7589,-1.7589,-1.7589,-1.7589,-1.7589,-1.7589,-1.7589,-1.7589,-1.7589,-1.7589,-1.7589,-1.7589,-1.7589,-1.7589,-1.7589,-1.7589,-1.7569,-1.7542,-1.7562,-1.7549,-1.7535,-1.7468,-1.7434,-1.736,-1.7188,-1.7081,-1.7027,-1.7027,-1.7027,-1.7027,-1.7034,-1.7048,-1.7048,-1.7054,-1.7021,-1.6974,-1.678,-1.6747,-1.6667,-1.6647,-1.664,-1.666,-1.6693,-1.6714,-1.672,-1.6526,-1.6366,-1.6259,-1.6253,-1.6259,-1.6213,-1.6166,-1.6127,-1.6143,-1.6347,-1.6562,-1.6885,-1.7207,-1.7714,-1.8265,-1.8866,-1.9509,-2.0011,-2.0464,-2.0871,-2.1186,-2.1499,-2.1713,-2.1728,-2.1498,-2.0834,-1.9931,-1.9204,-1.8663,-1.8186,-1.787,-1.804,-1.8193,-1.8359,-1.8523,-1.8615,-1.8539,-1.8491,-1.8256,-1.7837,-1.7358,-1.6883,-1.6616,-1.6413,-1.6482,-1.6682,-1.6855,-1.6959,-1.6899,-1.6569,-1.6136,-1.5914,-1.5676,-1.5928,-1.5945,-1.6125,-1.6575,-1.6554,-1.6573,-1.6711,-1.6717,-1.673,-1.6889,-1.7371,-1.7589,-1.7589,-1.7589,-1.7589,-1.7589,-1.7589,-1.7589,-1.7582,-1.7589,-1.7589,-1.7589,-1.7589,-1.7589,-1.7589,-1.7589,-1.7589,-1.7589,-1.7589,-1.7589,-1.7589,-1.7589,-1.7589,-1.7589,-1.7589,-1.7589,-1.7589,-1.7589,-1.7549,-1.7562,-1.7569,-1.7589,-1.7549,-1.7528,-1.7528,-1.7542,-1.7562,-1.7589,-1.7575,-1.7555,-1.7522,-1.7428,-1.7315,-1.7054,-1.6947,-1.6914,-1.6914,-1.6927,-1.6934,-1.6887,-1.6854,-1.678,-1.6827,-1.68,-1.6573,-1.6513,-1.65,-1.646,-1.6413,-1.6388,-1.6404,-1.6531,-1.6656,-1.6833,-1.7268,-1.7784,-1.8427,-1.9142,-1.9783,-2.0374,-2.0826,-2.1239,-2.1553,-2.1865,-2.2211,-2.2385,-2.2242,-2.1814,-2.0946,-2.0276,-1.9642,-1.9146,-1.8721,-1.8643,-1.8803,-1.8904,-1.9085,-1.9216,-1.9252,-1.9166,-1.9,-1.8891,-1.835,-1.7789,-1.7587,-1.7403,-1.7396,-1.7297,-1.7235,-1.7373,-1.7604,-1.7341,-1.6788,-1.6449,-1.5909,-1.6208,-1.6195,-1.6201,-1.6132,-1.6336,-1.6418,-1.6437,-1.6917,-1.7041,-1.7113,-1.7417,-1.7569,-1.7601,-1.7549,-1.7535,-1.7522,-1.7508,-1.7575,-1.7575,-1.7569,-1.7589,-1.7589,-1.7589,-1.7589,-1.7589,-1.7589,-1.7589,-1.7589,-1.7589,-1.7589,-1.7589,-1.7589,-1.7589,-1.7589,-1.7589,-1.7589,-1.7589,-1.7589,-1.7589,-1.7589,-1.7589,-1.7589,-1.7589,-1.7589,-1.7589,-1.7589,-1.7589,-1.7589,-1.7582,-1.7582,-1.7582,-1.7569,-1.7502,-1.7442,-1.7382,-1.7301,-1.7281,-1.7281,-1.7268,-1.7268,-1.7315,-1.7328,-1.7355,-1.7248,-1.6914,-1.674,-1.674,-1.6727,-1.6687,-1.6633,-1.6656,-1.6695,-1.6764,-1.6829,-1.7332,-1.7827,-1.8543,-1.9358,-1.9965,-2.0555,-2.106,-2.1472,-2.1874,-2.222,-2.253,-2.2794,-2.2838,-2.2592,-2.1988,-2.1161,-2.0573,-2.0021,-1.9661,-1.9481,-1.9384,-1.9482,-1.9536,-1.9687,-1.973,-1.9771,-1.9591,-1.9383,-1.909,-1.8723,-1.845,-1.825,-1.8102,-1.8008,-1.7779,-1.7647,-1.7818,-1.7799,-1.734,-1.7019,-1.5925,-1.6106,-1.6245,-1.6301,-1.6275,-1.6424,-1.6496,-1.6522,-1.6826,-1.6943,-1.7054,-1.7376,-1.7561,-1.7467,-1.744,-1.7295,-1.7275,-1.7341,-1.74,-1.7447,-1.7528,-1.7582,-1.7589,-1.7589,-1.7589,-1.7589,-1.7589,-1.7589,-1.7589,-1.7589,-1.7589,-1.7589,-1.7589,-1.7589,-1.7589,-1.7589,-1.7589,-1.7589,-1.7589,-1.7589,-1.7589,-1.7589,-1.7589,-1.7589,-1.7589,-1.7589,-1.7589,-1.7589,-1.7589,-1.7589,-1.7589,-1.7589,-1.7589,-1.7569,-1.7575,-1.7562,-1.7549,-1.7589,-1.7589,-1.7589,-1.7589,-1.7589,-1.7589,-1.7502,-1.7502,-1.7215,-1.7201,-1.7194,-1.7194,-1.7161,-1.6974,-1.6951,-1.6918,-1.6982,-1.7028,-1.733,-1.782,-1.841,-1.9122,-1.9737,-2.0365,-2.0961,-2.1374,-2.1874,-2.2176,-2.2441,-2.2794,-2.2979,-2.2829,-2.2829,-2.2072,-2.1469,-2.0953,-2.0413,-2.0114,-2.0014,-2.0029,-2.0103,-2.0126,-2.0118,-2.0129,-2.0004,-1.9841,-1.9669,-1.9487,-1.9256,-1.9051,-1.8788,-1.8469,-1.8218,-1.8056,-1.7974,-1.79,-1.7803,-1.749,-1.5832,-1.5872,-1.6106,-1.6353,-1.658,-1.664,-1.6597,-1.661,-1.67,-1.6727,-1.6757,-1.7248,-1.7281,-1.7219,-1.7132,-1.6951,-1.686,-1.7021,-1.7125,-1.7286,-1.746,-1.7502,-1.7562,-1.7589,-1.7589,-1.7589,-1.7589,-1.7589,-1.7589,-1.7589,-1.7589,-1.7589,-1.7589,-1.7589,-1.7589,-1.7589,-1.7589,-1.7589,-1.7589,-1.7589,-1.7589,-1.7589,-1.7589,-1.7589,-1.7589,-1.7589,-1.7589,-1.7589,-1.7589,-1.7589,-1.7589,-1.7589,-1.7589,-1.7589,-1.7589,-1.7589,-1.7589,-1.7589,-1.7589,-1.7589,-1.7589,-1.7589,-1.7589,-1.7582,-1.7575,-1.7562,-1.7542,-1.7542,-1.7542,-1.7475,-1.7333,-1.7213,-1.7225,-1.7204,-1.726,-1.7308,-1.777,-1.8236,-1.8831,-1.9466,-2.0048,-2.0682,-2.1141,-2.1633,-2.2043,-2.2309,-2.2539,-2.2715,-2.2828,-2.2892,-2.2611,-2.224,-2.192,-2.1415,-2.0888,-2.0735,-2.0749,-2.0541,-2.0564,-2.0546,-2.0489,-2.0343,-2.0294,-2.0352,-2.0186,-1.9838,-1.9547,-1.9282,-1.8961,-1.8621,-1.8412,-1.8213,-1.7988,-1.7891,-1.7793,-1.5825,-1.5791,-1.5844,-1.5959,-1.5991,-1.6253,-1.6353,-1.64,-1.6593,-1.6707,-1.6693,-1.6754,-1.682,-1.6787,-1.6787,-1.6687,-1.662,-1.6747,-1.7018,-1.7213,-1.7293,-1.744,-1.7522,-1.7589,-1.7589,-1.7589,-1.7589,-1.7589,-1.7641,-1.7641,-1.7635,-1.7635,-1.7589,-1.7589,-1.7589,-1.7589,-1.7589,-1.7589,-1.7589,-1.7589,-1.7589,-1.7589,-1.7589,-1.7589,-1.7589,-1.7589,-1.7589,-1.7589,-1.7589,-1.7589,-1.7589,-1.7589,-1.7589,-1.7589,-1.7589,-1.7589,-1.7589,-1.7589,-1.7589,-1.7589,-1.7589,-1.7589,-1.7589,-1.7589,-1.7582,-1.7582,-1.7569,-1.7569,-1.7569,-1.7569,-1.7448,-1.7448,-1.7452,-1.7423,-1.7438,-1.7375,-1.7581,-1.7916,-1.8384,-1.897,-1.9509,-2.0056,-2.051,-2.1051,-2.1696,-2.1998,-2.2485,-2.2627,-2.2759,-2.2906,-2.3042,-2.2872,-2.264,-2.2347,-2.1799,-2.1571,-2.1487,-2.1217,-2.0946,-2.081,-2.0693,-2.0586,-2.0595,-2.0566,-2.0517,-2.0283,-1.999,-1.9697,-1.9299,-1.8968,-1.8685,-1.8432,-1.8213,-1.7988,-1.7891]},{"header":{"parameterUnit":"m.s-1","parameterCategory":1,"la1":31.0,"la2":29.5877,"lo1":-88.7671,"lo2":-86.6584,"dy":0.0162,"dx":0.0185,"nx":115,"ny":88,"refTime":"2023-04-07T00:00:00:Z","depth":0,"parameterNumber":3,"parameterNumberName":"V-component_of_WINDS"},"data":[0.0,0.0,0.0,0.0,0.0,0.0,0.0,0.0,0.0,0.0,0.0,0.0,0.0,0.0,0.0,0.0,0.0,0.0,0.0,0.0,0.0,0.0,0.0,0.0,0.0,0.0,0.0,0.0,0.0,0.0,0.0,0.0,0.0,0.0,0.0,0.0,0.0,0.0,0.0,0.0,0.0,0.0,0.0,0.0,0.0,0.0,0.0,0.0,0.0,0.0,0.0,0.0,0.0,0.0,0.0,0.0,0.0,0.0,0.0,0.0,0.0,0.0,0.0,0.0,0.0,0.0,0.0,0.0,0.0,0.0,0.0,0.0,0.0,0.0,0.0,0.0,0.0,0.0,0.0,0.0,0.0,0.0,0.0,0.0,0.0,0.0,0.0,0.0,0.0,0.0,0.0,0.0,0.0,0.0,0.0,0.0,0.0,0.0,0.0,0.0,0.0,0.0,0.0,0.0,0.0,0.0,0.0,0.0,0.0,0.0,0.0,0.0,0.0,0.0,0.0,0.0,0.0,0.0,0.0,0.0,0.0,0.0,0.0,0.0,0.0,0.0,0.0,0.0,0.0,0.0,0.0,0.0,0.0,0.0,0.0,0.0,0.0,0.0,0.0,0.0,0.0,0.0,0.0,0.0,0.0,0.0,0.0,0.0,0.0,0.0,0.0,0.0,0.0,0.0,0.0,0.0,0.0,0.0,0.0,0.0,0.0,0.0,0.0,0.0,0.0,0.0,0.0,0.0,0.0,0.0,0.0,0.0,0.0,0.0,0.0,0.0,0.0,0.0,0.0,0.0,0.0,0.0,0.0,0.0,0.0,0.0,0.0,0.0,0.0,0.0,0.0,0.0,0.0,0.0,0.0,0.0,0.0,0.0,0.0,0.0,0.0,0.0,0.0,0.0,0.0,0.0,0.0,0.0,0.0,0.0,0.0,0.0,0.0,0.0,0.0,0.0,0.0,0.0,0.0,0.0,0.0,0.0,0.0,0.0,0.0,0.0,0.0,0.0,0.0,0.0,0.0,0.0,0.0,0.0,0.0,0.0,0.0,0.0,0.0,0.0,0.0,0.0,0.0,0.0,0.0,0.0,0.0,0.0,0.0,0.0,0.0,0.0,0.0,0.0,0.0,0.0,0.0,0.0,0.0,0.0,0.0,0.0,0.0,0.0,0.0,0.0,0.0,0.0,0.0,0.0,0.0,0.0,0.0,0.0,0.0,0.0,0.0,0.0,0.0,0.0,0.0,0.0,0.0,0.0,0.0,0.0,0.0,0.0,0.0,0.0,0.0,0.0,0.0,0.0,0.0,0.0,0.0,0.0,0.0,0.0,0.0,0.0,0.0,0.0,0.0,0.0,0.0,0.0,0.0,0.0,0.0,0.0,0.0,0.0,0.0,0.0,0.0,0.0,0.0,0.0,0.0,0.0,0.0,0.0,0.0,0.0,0.0,0.0,0.0,0.0,0.0,0.0,0.0,0.0,0.0,0.0,0.0,0.0,0.0,0.0,0.0,0.0,0.0,0.0,0.0,0.0,0.0,0.0,0.0,0.0,0.0,0.0,0.0,0.0,0.0,0.0,0.0,0.0,0.0,0.0,0.0,0.0,0.0,0.0,0.0,0.0,0.0,0.0,0.0,0.0,0.0,0.0,0.0,0.0,0.0,0.0,0.0,0.0,0.0,0.0,0.0,0.0,0.0,0.0,0.0,0.0,0.0,0.0,0.0,0.0,0.0,0.0,0.0,0.0,0.0,0.0,0.0,0.0,0.0,0.0,0.0,0.0,0.0,0.0,0.0,0.0,0.0,0.0,0.0,0.0,0.0,0.0,0.0,0.0,0.0,0.0,0.0,0.0,0.0,0.0,0.0,0.0,0.0,0.0,0.0,0.0,0.0,0.0,0.0,0.0,0.0,0.0,0.0,0.0,0.0,0.0,0.0,0.0,0.0,0.0,0.0,0.0,0.0,0.0,0.0,0.0,0.0,0.0,0.0,0.0,0.0,0.0,0.0,0.0,0.0,0.0,0.0,0.0,0.0,0.0,0.0,0.0,0.0,0.0,0.0,0.0,0.0,0.0,0.0,0.0,0.0,0.0,0.0,0.0,0.0,0.0,0.0,0.0,0.0,0.0,0.0,0.0,0.0,0.0,0.0,0.0,0.0,0.0,0.0,0.0,0.0,0.0,0.0,0.0,0.0,0.0,0.0,0.0,0.0,0.0,0.0,0.0,0.0,0.0,0.0,0.0,0.0,0.0,0.0,0.0,0.0,0.0,0.0,0.0,0.0,0.0,0.0,0.0,0.0,0.0,0.0,0.0,0.0,0.0,0.0,0.0,0.0,0.0,0.0,0.0,0.0,0.0,0.0,0.0,0.0,0.0,0.0,0.0,0.0,0.0,0.0,0.0,0.0,0.0,0.0,0.0,0.0,0.0,0.0,0.0,0.0,0.0,0.0,0.0,0.0,0.0,0.0,0.0,0.0,0.0,0.0,0.0,0.0,0.0,0.0,0.0,0.0,0.0,0.0,0.0,0.0,0.0,0.0,0.0,0.0,0.0,0.0,0.0,0.0,0.0,0.0,0.0,0.0,0.0,0.0,0.0,0.0,0.0,0.0,0.0,0.0,0.0,0.0,0.0,0.0,0.0,0.0,0.0,0.0,0.0,0.0,0.0,0.0,0.0,0.0,0.0,0.0,0.0,0.0,0.0,0.0,0.0,0.0,0.0,0.0,0.0,0.0,0.0,0.0,0.0,0.0,0.0,0.0,0.0,0.0,0.0,0.0,0.0,0.0,0.0,0.0,0.0,0.0,0.0,0.0,0.0,0.0,0.0,0.0,0.0,0.0,0.0,0.0,0.0,0.0,0.0,0.0,0.0,0.0,0.0,0.0,0.0,0.0,0.0,0.0,0.0,0.0,0.0,0.0,0.0,0.0,0.0,0.0,0.0,0.0,0.0,0.0,0.0,0.0,0.0,0.0,0.0,0.0,0.0,0.0,0.0,0.0,0.0,0.0,0.0,0.0,0.0,0.0,0.0,0.0,0.0,0.0,0.0,0.0,0.0,0.0,0.0,0.0,0.0,0.0,0.0,0.0,0.0,0.0,0.0,0.0,0.0,0.0,0.0,0.0,0.0,0.0,0.0,0.0,0.0,0.0,0.0,0.0,0.0,0.0,0.0,0.0,0.0,0.0,0.0,0.0,0.0,0.0,0.0,0.0,0.0,0.0,0.0,0.0,0.0,0.0,0.0,0.0,0.0,0.0,0.0,0.0,0.0,0.0,0.0,0.0,0.0,0.0,0.0,0.0,0.0,0.0,0.0,0.0,0.0,0.0,0.0,0.0,0.0,0.0,0.0,0.0,0.0,0.0,0.0,0.0,0.0,0.0,0.0,0.0,0.0,0.0,0.0,0.0,0.0,0.0,0.0,0.0,0.0,0.0,0.0,0.0,0.0,0.0,0.0,0.0,0.0,0.0,0.0,0.0,0.0,0.0,0.0,0.0,0.0,0.0,0.0,0.0,0.0,0.0,0.0,0.0,0.0,0.0,0.0,0.0,0.0,0.0,0.0,0.0,0.0,0.0,0.0,0.0,0.0,0.0,0.0,0.0,0.0,0.0,0.0,0.0,0.0,0.0,0.0,0.0,0.0,0.0,0.0,0.0,0.0,0.0,0.0,0.0,0.0,0.0,0.0,0.0,0.0,0.0,0.0,0.0,0.0,0.0,0.0,0.0,0.0,0.0,0.0,0.0,0.0,0.0,0.0,0.0,0.0,0.0,0.0,0.0,0.0,0.0,0.0,0.0,0.0,0.0,0.0,0.0,0.0,0.0,0.0,0.0,0.0,0.0,0.0,0.0,0.0,0.0,0.0,0.0,0.0,0.0,0.0,0.0,0.0,0.0,0.0,0.0,0.0,0.0,0.0,0.0,0.0,0.0,0.0,0.0,0.0,0.0,0.0,0.0,0.0,0.0,0.0,0.0,0.0,0.0,0.0,0.0,0.0,0.0,0.0,0.0,0.0,0.0,0.0,0.0,0.0,0.0,0.0,0.0,0.0,0.0,0.0,0.0,0.0,0.0,0.0,0.0,0.0,0.0,0.0,0.0,0.0,0.0,0.0,0.0,0.0,0.0,0.0,0.0,0.0,0.0,0.0,0.0,0.0,0.0,0.0,0.0,0.0,0.0,0.0,0.0,0.0,0.0,0.0,0.0,0.0,0.0,0.0,0.0,0.0,0.0,0.0,0.0,0.0,0.0,0.0,0.0,0.0,0.0,0.0,0.0,0.0,2.1783,0.0,0.0,0.0,0.0,0.0,0.0,0.0,0.0,0.0,0.0,0.0,0.0,0.0,0.0,0.0,0.0,0.0,0.0,0.0,0.0,0.0,0.0,0.0,0.0,0.0,0.0,0.0,0.0,0.0,0.0,0.0,0.0,0.0,0.0,0.0,0.0,0.0,0.0,0.0,0.0,0.0,0.0,0.0,0.0,0.0,0.0,0.0,0.0,0.0,0.0,0.0,0.0,0.0,0.0,0.0,0.0,0.0,0.0,0.0,0.0,0.0,0.0,0.0,0.0,0.0,0.0,0.0,0.0,0.0,0.0,0.0,0.0,0.0,0.0,0.0,0.0,0.0,0.0,0.0,0.0,0.0,0.0,0.0,0.0,0.0,0.0,0.0,0.0,0.0,0.0,0.0,0.0,0.0,0.0,0.0,0.0,0.0,0.0,0.0,0.0,0.0,0.0,0.0,0.0,0.0,0.0,0.0,0.0,0.0,0.0,2.1631,2.1676,2.1721,2.1842,2.2022,0.0,0.0,0.0,0.0,0.0,0.0,0.0,0.0,0.0,0.0,0.0,0.0,0.0,0.0,0.0,0.0,0.0,0.0,0.0,0.0,0.0,0.0,0.0,0.0,0.0,0.0,0.0,0.0,0.0,0.0,0.0,0.0,0.0,0.0,0.0,0.0,0.0,0.0,0.0,0.0,0.0,0.0,0.0,0.0,0.0,0.0,0.0,0.0,0.0,0.0,0.0,0.0,0.0,0.0,0.0,0.0,0.0,0.0,0.0,0.0,0.0,0.0,0.0,0.0,0.0,0.0,0.0,0.0,0.0,0.0,0.0,0.0,0.0,0.0,0.0,0.0,0.0,0.0,0.0,0.0,0.0,0.0,0.0,0.0,0.0,0.0,0.0,0.0,0.0,0.0,0.0,0.0,0.0,0.0,0.0,0.0,0.0,0.0,0.0,0.0,0.0,0.0,0.0,0.0,0.0,0.0,0.0,0.0,0.0,0.0,0.0,0.0,2.1943,2.2049,2.2211,0.0,0.0,0.0,0.0,0.0,0.0,0.0,0.0,0.0,0.0,0.0,0.0,0.0,0.0,0.0,0.0,0.0,0.0,0.0,0.0,0.0,0.0,0.0,0.0,0.0,0.0,0.0,0.0,0.0,0.0,0.0,0.0,0.0,0.0,0.0,0.0,0.0,0.0,0.0,0.0,0.0,0.0,0.0,0.0,0.0,0.0,0.0,0.0,0.0,0.0,0.0,0.0,0.0,0.0,0.0,0.0,0.0,0.0,0.0,0.0,0.0,0.0,0.0,0.0,0.0,0.0,0.0,0.0,0.0,0.0,0.0,0.0,0.0,0.0,0.0,0.0,0.0,0.0,0.0,0.0,0.0,0.0,0.0,0.0,0.0,0.0,0.0,0.0,0.0,0.0,0.0,0.0,0.0,0.0,0.0,0.0,0.0,0.0,0.0,0.0,0.0,0.0,0.0,0.0,0.0,0.0,0.0,0.0,0.0,0.0,2.1984,2.1998,2.2106,0.0,2.2282,0.0,0.0,0.0,0.0,0.0,0.0,0.0,0.0,0.0,0.0,0.0,0.0,0.0,0.0,0.0,0.0,0.0,0.0,0.0,0.0,0.0,0.0,0.0,0.0,0.0,0.0,0.0,0.0,0.0,0.0,0.0,0.0,0.0,0.0,0.0,0.0,0.0,0.0,0.0,0.0,0.0,0.0,0.0,0.0,0.0,0.0,0.0,0.0,0.0,0.0,0.0,0.0,0.0,0.0,0.0,0.0,0.0,0.0,0.0,0.0,0.0,0.0,0.0,0.0,0.0,0.0,0.0,0.0,0.0,0.0,0.0,0.0,0.0,0.0,0.0,0.0,0.0,0.0,0.0,0.0,0.0,0.0,0.0,0.0,0.0,0.0,0.0,0.0,0.0,0.0,0.0,0.0,0.0,0.0,0.0,0.0,0.0,0.0,0.0,0.0,0.0,0.0,0.0,0.0,0.0,0.0,0.0,0.0,0.0,0.0,2.2178,2.2161,2.2265,2.2338,0.0,0.0,0.0,0.0,0.0,0.0,0.0,0.0,0.0,0.0,0.0,0.0,0.0,0.0,0.0,0.0,0.0,0.0,0.0,0.0,0.0,0.0,0.0,0.0,0.0,0.0,0.0,0.0,0.0,0.0,0.0,0.0,0.0,0.0,0.0,0.0,0.0,0.0,0.0,0.0,0.0,0.0,0.0,0.0,0.0,0.0,0.0,0.0,0.0,0.0,0.0,0.0,0.0,0.0,0.0,0.0,0.0,0.0,0.0,0.0,0.0,0.0,0.0,0.0,0.0,0.0,0.0,0.0,0.0,0.0,0.0,0.0,0.0,0.0,0.0,0.0,0.0,0.0,0.0,0.0,0.0,0.0,0.0,0.0,0.0,0.0,0.0,0.0,0.0,0.0,0.0,0.0,0.0,0.0,0.0,0.0,0.0,0.0,0.0,0.0,0.0,0.0,0.0,0.0,0.0,0.0,0.0,0.0,0.0,0.0,2.2352,2.231,2.2338,2.2363,2.2436,2.2463,0.0,0.0,0.0,0.0,0.0,0.0,0.0,0.0,0.0,0.0,0.0,0.0,0.0,0.0,0.0,0.0,0.0,0.0,0.0,0.0,0.0,0.0,0.0,0.0,0.0,0.0,0.0,0.0,0.0,0.0,0.0,0.0,0.0,0.0,0.0,0.0,0.0,0.0,0.0,0.0,0.0,0.0,0.0,0.0,0.0,0.0,0.0,0.0,0.0,0.0,0.0,0.0,0.0,0.0,0.0,0.0,0.0,0.0,0.0,0.0,0.0,0.0,0.0,0.0,0.0,0.0,0.0,0.0,0.0,0.0,0.0,0.0,0.0,0.0,0.0,0.0,0.0,0.0,0.0,0.0,0.0,0.0,0.0,0.0,0.0,0.0,0.0,0.0,0.0,0.0,0.0,0.0,0.0,0.0,0.0,0.0,0.0,0.0,0.0,0.0,0.0,0.0,0.0,0.0,0.0,0.0,0.0,0.0,2.2501,2.2366,2.2338,2.2394,2.2391,2.246,0.0,0.0,0.0,0.0,0.0,0.0,0.0,0.0,0.0,0.0,0.0,0.0,0.0,0.0,0.0,0.0,0.0,0.0,0.0,0.0,0.0,0.0,0.0,0.0,0.0,0.0,0.0,0.0,0.0,0.0,0.0,0.0,0.0,0.0,0.0,0.0,0.0,0.0,0.0,0.0,0.0,0.0,0.0,0.0,0.0,0.0,0.0,0.0,0.0,0.0,0.0,0.0,0.0,0.0,0.0,0.0,0.0,0.0,0.0,0.0,0.0,0.0,0.0,0.0,0.0,0.0,0.0,0.0,0.0,0.0,0.0,0.0,0.0,0.0,0.0,0.0,0.0,0.0,0.0,0.0,0.0,0.0,0.0,0.0,0.0,0.0,0.0,0.0,0.0,0.0,0.0,0.0,0.0,0.0,0.0,0.0,0.0,0.0,0.0,0.0,0.0,0.0,0.0,0.0,0.0,0.0,0.0,0.0,0.0,2.2501,2.2366,2.2338,2.2391,2.2487,2.2596,0.0,0.0,0.0,0.0,0.0,0.0,0.0,0.0,0.0,0.0,0.0,0.0,0.0,0.0,0.0,0.0,0.0,0.0,0.0,0.0,0.0,0.0,0.0,0.0,0.0,0.0,0.0,0.0,0.0,0.0,0.0,0.0,0.0,0.0,0.0,0.0,0.0,0.0,0.0,0.0,0.0,0.0,0.0,0.0,0.0,0.0,0.0,0.0,0.0,0.0,0.0,0.0,0.0,0.0,0.0,0.0,0.0,0.0,0.0,0.0,0.0,0.0,0.0,0.0,0.0,0.0,0.0,0.0,0.0,0.0,0.0,0.0,0.0,0.0,0.0,0.0,0.0,0.0,0.0,0.0,0.0,0.0,0.0,0.0,0.0,0.0,0.0,0.0,0.0,0.0,0.0,0.0,0.0,0.0,0.0,0.0,0.0,0.0,0.0,0.0,0.0,0.0,0.0,0.0,0.0,0.0,0.0,0.0,0.0,2.2501,0.0,2.2391,2.2501,2.2592,2.2751,0.0,0.0,0.0,0.0,0.0,0.0,0.0,0.0,0.0,0.0,0.0,0.0,0.0,0.0,0.0,0.0,0.0,0.0,0.0,0.0,0.0,0.0,0.0,0.0,0.0,0.0,0.0,0.0,0.0,0.0,0.0,0.0,0.0,0.0,0.0,0.0,0.0,0.0,0.0,0.0,0.0,0.0,0.0,0.0,0.0,0.0,0.0,0.0,0.0,0.0,0.0,0.0,0.0,0.0,0.0,0.0,0.0,0.0,0.0,0.0,0.0,0.0,0.0,0.0,0.0,0.0,0.0,0.0,0.0,0.0,0.0,0.0,0.0,0.0,0.0,0.0,0.0,0.0,0.0,0.0,0.0,0.0,0.0,0.0,0.0,0.0,0.0,0.0,0.0,0.0,0.0,0.0,0.0,0.0,0.0,0.0,0.0,0.0,0.0,0.0,0.0,0.0,0.0,0.0,0.0,0.0,0.0,0.0,2.2764,2.2497,2.2484,2.2552,2.2703,2.2764,2.2932,0.0,0.0,0.0,0.0,0.0,0.0,0.0,0.0,0.0,0.0,0.0,0.0,0.0,0.0,0.0,0.0,0.0,0.0,0.0,0.0,0.0,0.0,0.0,0.0,0.0,0.0,0.0,0.0,0.0,0.0,0.0,0.0,0.0,0.0,0.0,0.0,0.0,0.0,0.0,0.0,0.0,0.0,0.0,0.0,0.0,0.0,0.0,0.0,0.0,0.0,0.0,0.0,0.0,0.0,0.0,0.0,0.0,0.0,0.0,0.0,0.0,0.0,0.0,0.0,0.0,0.0,0.0,0.0,0.0,0.0,0.0,0.0,0.0,0.0,0.0,0.0,0.0,0.0,0.0,0.0,0.0,0.0,0.0,0.0,0.0,0.0,0.0,0.0,0.0,0.0,0.0,0.0,0.0,0.0,0.0,0.0,0.0,0.0,0.0,0.0,0.0,0.0,0.0,0.0,0.0,0.0,0.0,0.0,0.0,2.2497,2.2555,2.2632,2.2764,2.2914,2.3126,0.0,0.0,0.0,0.0,0.0,0.0,0.0,0.0,0.0,0.0,0.0,0.0,0.0,0.0,0.0,0.0,0.0,0.0,0.0,0.0,0.0,0.0,0.0,0.0,0.0,0.0,0.0,0.0,0.0,0.0,0.0,0.0,0.0,0.0,0.0,0.0,0.0,0.0,0.0,0.0,0.0,0.0,0.0,0.0,0.0,0.0,0.0,0.0,0.0,0.0,0.0,0.0,0.0,0.0,0.0,0.0,0.0,0.0,0.0,0.0,0.0,0.0,0.0,0.0,0.0,0.0,0.0,0.0,0.0,0.0,0.0,0.0,0.0,0.0,0.0,0.0,0.0,0.0,0.0,0.0,0.0,0.0,0.0,0.0,0.0,0.0,0.0,0.0,0.0,0.0,0.0,0.0,0.0,0.0,0.0,0.0,0.0,0.0,0.0,0.0,0.0,0.0,0.0,0.0,0.0,0.0,0.0,0.0,0.0,2.2699,2.2672,2.2751,2.2906,2.3109,2.3342,2.3649,0.0,0.0,0.0,0.0,0.0,0.0,0.0,0.0,0.0,0.0,0.0,0.0,0.0,0.0,0.0,0.0,0.0,0.0,0.0,0.0,0.0,0.0,0.0,0.0,0.0,0.0,0.0,0.0,0.0,0.0,0.0,0.0,0.0,0.0,0.0,0.0,0.0,0.0,0.0,0.0,0.0,0.0,0.0,0.0,0.0,0.0,0.0,0.0,0.0,0.0,0.0,0.0,0.0,0.0,0.0,0.0,0.0,0.0,0.0,0.0,0.0,0.0,0.0,0.0,0.0,0.0,0.0,0.0,0.0,0.0,0.0,0.0,0.0,0.0,0.0,0.0,0.0,0.0,0.0,0.0,0.0,0.0,0.0,0.0,0.0,0.0,0.0,0.0,0.0,0.0,0.0,0.0,0.0,0.0,0.0,0.0,0.0,0.0,0.0,0.0,0.0,0.0,0.0,0.0,0.0,0.0,0.0,0.0,2.302,2.2906,2.2932,2.3119,2.3324,2.3577,0.0,0.0,0.0,0.0,0.0,0.0,0.0,0.0,0.0,0.0,0.0,0.0,0.0,0.0,0.0,0.0,0.0,0.0,0.0,0.0,0.0,0.0,0.0,0.0,0.0,0.0,0.0,0.0,0.0,0.0,0.0,0.0,0.0,0.0,0.0,0.0,0.0,0.0,0.0,0.0,0.0,0.0,0.0,0.0,0.0,0.0,0.0,0.0,0.0,0.0,0.0,0.0,0.0,0.0,0.0,0.0,0.0,0.0,0.0,0.0,0.0,0.0,0.0,0.0,0.0,0.0,0.0,0.0,0.0,0.0,0.0,0.0,0.0,0.0,0.0,0.0,0.0,0.0,0.0,0.0,0.0,0.0,0.0,0.0,0.0,0.0,0.0,0.0,0.0,0.0,0.0,0.0,0.0,0.0,0.0,0.0,0.0,0.0,0.0,0.0,0.0,0.0,0.0,0.0,0.0,0.0,0.0,0.0,0.0,2.3156,2.3205,2.3283,2.34,2.3635,2.3878,0.0,0.0,0.0,0.0,0.0,0.0,0.0,0.0,0.0,0.0,0.0,0.0,0.0,0.0,0.0,0.0,0.0,0.0,0.0,0.0,0.0,0.0,0.0,0.0,0.0,0.0,0.0,0.0,0.0,0.0,0.0,0.0,0.0,0.0,0.0,0.0,0.0,0.0,0.0,0.0,0.0,0.0,0.0,0.0,0.0,0.0,0.0,0.0,0.0,0.0,0.0,0.0,0.0,0.0,0.0,0.0,0.0,0.0,0.0,0.0,0.0,0.0,0.0,0.0,0.0,0.0,0.0,0.0,0.0,0.0,0.0,0.0,0.0,0.0,0.0,0.0,0.0,0.0,0.0,0.0,0.0,0.0,0.0,0.0,0.0,0.0,0.0,0.0,0.0,0.0,0.0,0.0,0.0,0.0,0.0,0.0,0.0,0.0,0.0,0.0,0.0,0.0,0.0,0.0,0.0,0.0,0.0,0.0,2.4034,2.439,2.4206,2.4145,2.4284,2.4121,2.4126,0.0,0.0,0.0,0.0,0.0,0.0,0.0,0.0,0.0,0.0,0.0,0.0,0.0,0.0,0.0,0.0,0.0,0.0,0.0,0.0,0.0,0.0,0.0,0.0,0.0,0.0,0.0,0.0,0.0,0.0,0.0,0.0,0.0,0.0,0.0,0.0,0.0,0.0,0.0,0.0,0.0,0.0,0.0,0.0,0.0,0.0,0.0,0.0,0.0,0.0,0.0,0.0,0.0,0.0,0.0,0.0,0.0,0.0,0.0,0.0,0.0,0.0,0.0,0.0,0.0,0.0,0.0,0.0,0.0,0.0,0.0,0.0,0.0,0.0,0.0,0.0,0.0,0.0,0.0,0.0,0.0,0.0,0.0,0.0,0.0,0.0,0.0,0.0,0.0,0.0,0.0,0.0,0.0,0.0,0.0,0.0,0.0,0.0,0.0,0.0,0.0,0.0,0.0,0.0,0.0,0.0,0.0,0.0,2.526,2.6105,2.5414,2.5163,2.5408,2.4672,2.4364,0.0,0.0,0.0,0.0,0.0,0.0,0.0,0.0,0.0,0.0,0.0,0.0,0.0,0.0,0.0,0.0,0.0,0.0,0.0,0.0,0.0,0.0,0.0,0.0,0.0,0.0,0.0,0.0,0.0,0.0,0.0,0.0,0.0,0.0,0.0,0.0,0.0,0.0,0.0,0.0,0.0,0.0,0.0,0.0,0.0,0.0,0.0,0.0,0.0,0.0,0.0,0.0,0.0,0.0,0.0,0.0,0.0,0.0,0.0,0.0,0.0,0.0,0.0,0.0,0.0,0.0,0.0,0.0,0.0,0.0,0.0,0.0,0.0,0.0,0.0,0.0,0.0,0.0,0.0,0.0,0.0,0.0,0.0,0.0,0.0,0.0,0.0,0.0,0.0,0.0,0.0,0.0,0.0,0.0,0.0,0.0,0.0,0.0,0.0,0.0,0.0,0.0,0.0,0.0,0.0,0.0,0.0,0.0,2.54,2.6297,2.5664,2.5416,2.5615,2.4913,2.4612,0.0,0.0,0.0,0.0,0.0,0.0,0.0,0.0,0.0,0.0,0.0,0.0,0.0,0.0,0.0,0.0,0.0,0.0,0.0,0.0,0.0,0.0,0.0,0.0,0.0,0.0,0.0,0.0,0.0,0.0,0.0,0.0,0.0,0.0,0.0,0.0,0.0,0.0,0.0,0.0,0.0,0.0,0.0,0.0,0.0,0.0,0.0,0.0,1.7479,0.0,0.0,0.0,0.0,0.0,0.0,0.0,0.0,0.0,0.0,0.0,0.0,0.0,0.0,0.0,0.0,0.0,0.0,0.0,0.0,0.0,0.0,0.0,0.0,0.0,0.0,0.0,0.0,0.0,0.0,0.0,0.0,0.0,0.0,0.0,0.0,0.0,0.0,0.0,0.0,0.0,0.0,0.0,0.0,0.0,0.0,0.0,0.0,0.0,0.0,0.0,0.0,0.0,0.0,0.0,0.0,0.0,0.0,0.0,2.6578,2.7071,2.6411,2.5987,2.5824,2.5186,2.4876,0.0,0.0,0.0,0.0,0.0,0.0,0.0,0.0,0.0,0.0,0.0,0.0,0.0,0.0,0.0,0.0,0.0,0.0,0.0,0.0,0.0,0.0,0.0,0.0,0.0,0.0,0.0,0.0,0.0,0.0,0.0,0.0,0.0,0.0,0.0,0.0,0.0,0.0,0.0,0.0,0.0,0.0,0.0,0.0,0.0,0.0,0.0,0.0,0.0,0.0,0.0,0.0,0.0,0.0,0.0,0.0,0.0,0.0,0.0,0.0,0.0,0.0,0.0,0.0,0.0,0.0,0.0,0.0,0.0,0.0,0.0,0.0,0.0,0.0,0.0,0.0,0.0,0.0,0.0,0.0,0.0,0.0,0.0,0.0,0.0,0.0,0.0,0.0,0.0,0.0,0.0,0.0,0.0,0.0,0.0,0.0,0.0,0.0,0.0,0.0,0.0,0.0,0.0,0.0,0.0,0.0,0.0,2.7532,2.7877,2.7906,2.723,2.6578,2.6035,2.5437,2.5121,2.5165,0.0,0.0,0.0,0.0,0.0,0.0,0.0,0.0,0.0,0.0,0.0,0.0,0.0,0.0,0.0,0.0,0.0,0.0,0.0,0.0,0.0,0.0,0.0,0.0,0.0,0.0,0.0,0.0,0.0,0.0,0.0,0.0,0.0,0.0,0.0,0.0,0.0,0.0,2.2189,2.2319,0.0,0.0,0.0,0.0,0.0,0.0,0.0,0.0,1.7743,0.0,0.0,0.0,0.0,0.0,0.0,0.0,0.0,0.0,0.0,0.0,0.0,0.0,0.0,0.0,0.0,0.0,0.0,0.0,0.0,0.0,0.0,0.0,0.0,0.0,0.0,0.0,0.0,0.0,0.0,0.0,0.0,0.0,0.0,0.0,0.0,0.0,0.0,0.0,0.0,0.0,0.0,0.0,0.0,0.0,0.0,0.0,0.0,0.0,0.0,0.0,0.0,0.0,0.0,0.0,0.0,2.7842,2.799,2.8086,2.8127,2.7437,2.6758,2.6169,2.5535,2.5269,2.5433,0.0,0.0,0.0,0.0,0.0,0.0,0.0,0.0,0.0,0.0,0.0,0.0,0.0,0.0,0.0,0.0,0.0,0.0,0.0,0.0,0.0,0.0,0.0,0.0,0.0,0.0,0.0,0.0,0.0,0.0,0.0,0.0,0.0,0.0,0.0,0.0,0.0,0.0,0.0,2.2691,2.2544,0.0,0.0,0.0,0.0,0.0,0.0,0.0,0.0,1.8857,0.0,0.0,0.0,0.0,0.0,0.0,0.0,0.0,0.0,0.0,0.0,0.0,0.0,0.0,0.0,0.0,0.0,0.0,0.0,0.0,0.0,0.0,0.0,0.0,0.0,0.0,0.0,0.0,0.0,0.0,0.0,0.0,0.0,0.0,0.0,0.0,0.0,0.0,0.0,0.0,0.0,0.0,0.0,0.0,0.0,0.0,0.0,0.0,0.0,0.0,0.0,0.0,0.0,0.0,0.0,2.8232,2.8708,2.8746,2.8406,2.7656,2.6957,2.6358,2.5685,2.5385,0.0,0.0,0.0,0.0,0.0,0.0,0.0,0.0,0.0,0.0,0.0,0.0,0.0,0.0,0.0,0.0,0.0,0.0,0.0,0.0,0.0,0.0,0.0,0.0,0.0,0.0,0.0,0.0,0.0,0.0,0.0,0.0,0.0,0.0,0.0,0.0,0.0,0.0,0.0,0.0,2.2906,2.2712,2.2487,0.0,0.0,0.0,0.0,0.0,0.0,1.9009,1.9434,0.0,0.0,0.0,0.0,0.0,0.0,0.0,0.0,0.0,0.0,0.0,0.0,0.0,0.0,0.0,0.0,0.0,0.0,0.0,0.0,0.0,0.0,0.0,0.0,0.0,0.0,0.0,0.0,0.0,0.0,0.0,0.0,0.0,0.0,0.0,0.0,0.0,0.0,0.0,0.0,0.0,0.0,0.0,0.0,0.0,0.0,0.0,0.0,0.0,0.0,0.0,0.0,0.0,0.0,0.0,2.8721,2.9389,2.9377,2.8647,2.7858,2.7158,2.6527,2.5818,2.5472,0.0,0.0,0.0,0.0,0.0,0.0,0.0,0.0,0.0,0.0,0.0,0.0,0.0,0.0,0.0,0.0,0.0,0.0,0.0,0.0,0.0,0.0,0.0,0.0,0.0,0.0,0.0,0.0,0.0,0.0,0.0,0.0,0.0,0.0,0.0,0.0,0.0,0.0,0.0,0.0,0.0,2.2906,2.2685,2.2409,0.0,0.0,0.0,0.0,1.9335,1.9687,0.0,0.0,0.0,0.0,0.0,0.0,0.0,0.0,0.0,0.0,0.0,0.0,0.0,0.0,0.0,0.0,0.0,0.0,0.0,0.0,0.0,0.0,0.0,0.0,0.0,0.0,0.0,0.0,0.0,0.0,0.0,0.0,0.0,0.0,0.0,0.0,0.0,0.0,0.0,0.0,0.0,0.0,0.0,0.0,0.0,0.0,0.0,0.0,0.0,0.0,0.0,0.0,0.0,0.0,0.0,0.0,2.9702,2.9834,2.9515,2.879,2.7984,2.7261,2.6597,2.5865,2.5518,0.0,0.0,0.0,0.0,0.0,0.0,0.0,0.0,0.0,0.0,0.0,0.0,0.0,0.0,0.0,0.0,0.0,0.0,0.0,0.0,0.0,0.0,0.0,0.0,0.0,0.0,0.0,0.0,0.0,0.0,0.0,0.0,0.0,0.0,0.0,0.0,0.0,0.0,0.0,0.0,0.0,2.3156,2.2906,2.2664,2.2385,0.0,0.0,2.1254,2.0972,2.0942,0.0,0.0,0.0,0.0,0.0,0.0,0.0,0.0,0.0,0.0,0.0,0.0,0.0,0.0,0.0,0.0,0.0,0.0,0.0,0.0,0.0,0.0,0.0,0.0,0.0,0.0,0.0,0.0,0.0,0.0,0.0,0.0,0.0,0.0,0.0,0.0,0.0,0.0,0.0,0.0,0.0,0.0,0.0,0.0,0.0,0.0,0.0,0.0,0.0,0.0,0.0,0.0,0.0,0.0,0.0,2.9722,3.0003,3.0011,2.9881,2.9567,2.8351,2.7613,2.7406,2.6199,2.5579,0.0,0.0,0.0,0.0,0.0,0.0,0.0,0.0,0.0,0.0,0.0,0.0,0.0,0.0,0.0,0.0,0.0,0.0,0.0,0.0,0.0,0.0,0.0,0.0,0.0,0.0,0.0,0.0,0.0,0.0,0.0,0.0,0.0,0.0,0.0,0.0,0.0,0.0,0.0,0.0,0.0,0.0,2.3271,2.3022,0.0,0.0,0.0,2.1822,2.163,0.0,0.0,0.0,0.0,0.0,0.0,0.0,0.0,0.0,0.0,0.0,0.0,0.0,0.0,0.0,0.0,0.0,0.0,0.0,0.0,0.0,0.0,0.0,0.0,0.0,0.0,0.0,0.0,0.0,0.0,0.0,0.0,0.0,0.0,0.0,0.0,0.0,0.0,0.0,0.0,0.0,0.0,0.0,0.0,0.0,0.0,0.0,0.0,0.0,0.0,0.0,0.0,0.0,0.0,0.0,0.0,0.0,3.0154,3.0152,3.0181,3.0203,2.8898,2.8136,2.8008,2.6672,0.0,0.0,0.0,0.0,0.0,0.0,0.0,0.0,0.0,0.0,0.0,0.0,0.0,0.0,0.0,0.0,0.0,0.0,0.0,0.0,0.0,0.0,0.0,0.0,0.0,0.0,0.0,2.4199,0.0,0.0,0.0,0.0,0.0,0.0,0.0,0.0,0.0,0.0,0.0,0.0,0.0,0.0,2.3747,2.3609,2.3412,2.3182,0.0,0.0,2.2344,2.211,2.194,2.1811,0.0,0.0,0.0,0.0,0.0,0.0,0.0,0.0,0.0,0.0,0.0,0.0,0.0,0.0,0.0,0.0,0.0,0.0,0.0,0.0,0.0,0.0,0.0,0.0,0.0,0.0,0.0,0.0,0.0,0.0,0.0,0.0,0.0,0.0,0.0,0.0,0.0,0.0,0.0,0.0,0.0,0.0,0.0,0.0,0.0,0.0,0.0,0.0,0.0,0.0,0.0,0.0,0.0,0.0,3.0299,3.0279,3.0292,3.0342,3.0367,2.9603,2.8853,2.8113,2.7245,2.6454,0.0,0.0,0.0,0.0,0.0,0.0,0.0,0.0,0.0,0.0,0.0,0.0,0.0,0.0,0.0,0.0,0.0,0.0,0.0,0.0,0.0,0.0,0.0,0.0,0.0,0.0,0.0,0.0,0.0,0.0,0.0,0.0,0.0,0.0,0.0,0.0,0.0,0.0,0.0,0.0,0.0,2.4016,2.3904,2.3753,2.3595,0.0,2.3117,2.2843,2.2591,2.2395,2.222,2.2082,0.0,0.0,0.0,0.0,0.0,0.0,0.0,0.0,0.0,0.0,0.0,0.0,0.0,0.0,0.0,0.0,0.0,0.0,0.0,0.0,0.0,0.0,0.0,0.0,0.0,0.0,0.0,0.0,0.0,0.0,0.0,0.0,0.0,0.0,0.0,0.0,0.0,0.0,0.0,0.0,0.0,0.0,0.0,0.0,0.0,0.0,0.0,0.0,0.0,0.0,0.0,0.0,0.0,3.1367,3.1892,3.1898,3.1703,3.1262,3.0506,2.9482,2.8182,2.732,2.6537,0.0,0.0,0.0,0.0,0.0,0.0,0.0,0.0,0.0,0.0,0.0,0.0,0.0,0.0,0.0,0.0,0.0,0.0,0.0,0.0,0.0,0.0,0.0,0.0,0.0,0.0,0.0,0.0,2.4199,2.4209,2.4191,0.0,0.0,0.0,0.0,0.0,0.0,0.0,0.0,0.0,0.0,2.4302,2.4238,2.4126,0.0,0.0,2.3613,2.3403,2.3129,2.2952,2.2768,2.2571,2.2531,0.0,0.0,0.0,0.0,0.0,0.0,0.0,0.0,0.0,0.0,0.0,0.0,0.0,0.0,0.0,0.0,0.0,0.0,0.0,0.0,0.0,0.0,0.0,0.0,0.0,0.0,0.0,0.0,0.0,0.0,0.0,0.0,0.0,0.0,0.0,0.0,0.0,0.0,0.0,0.0,0.0,0.0,0.0,0.0,0.0,0.0,0.0,0.0,0.0,0.0,0.0,0.0,3.2289,3.2923,3.2954,3.2601,3.1855,3.1288,3.0241,2.8639,2.7782,2.6926,0.0,0.0,0.0,0.0,0.0,0.0,0.0,0.0,0.0,0.0,0.0,0.0,0.0,0.0,0.0,0.0,0.0,0.0,0.0,0.0,0.0,0.0,0.0,0.0,0.0,0.0,0.0,0.0,2.4209,2.4191,2.4238,0.0,0.0,0.0,0.0,0.0,0.0,0.0,0.0,0.0,0.0,2.4567,2.4524,2.4469,2.4356,2.4174,2.403,2.3878,2.3613,2.345,2.3254,2.306,0.0,0.0,0.0,0.0,0.0,0.0,0.0,0.0,0.0,0.0,0.0,0.0,0.0,0.0,0.0,0.0,0.0,0.0,0.0,0.0,0.0,0.0,0.0,0.0,0.0,0.0,0.0,3.5581,0.0,0.0,3.5607,0.0,0.0,0.0,0.0,0.0,0.0,0.0,0.0,0.0,0.0,0.0,0.0,0.0,0.0,0.0,0.0,0.0,0.0,0.0,0.0,0.0,0.0,3.2929,3.3017,3.3139,3.2745,3.1967,3.1951,3.1161,2.9539,2.8682,2.7851,2.6945,0.0,0.0,0.0,0.0,0.0,0.0,0.0,0.0,0.0,0.0,0.0,0.0,0.0,0.0,0.0,0.0,0.0,0.0,0.0,0.0,0.0,0.0,0.0,0.0,0.0,0.0,2.4199,2.4191,2.4238,0.0,0.0,0.0,0.0,0.0,0.0,0.0,0.0,0.0,0.0,2.4779,2.4808,2.4827,2.4772,2.4725,2.458,2.441,2.4257,2.4049,2.3829,2.3649,0.0,0.0,0.0,0.0,0.0,0.0,0.0,0.0,0.0,0.0,0.0,0.0,0.0,0.0,0.0,0.0,0.0,0.0,0.0,0.0,0.0,0.0,0.0,0.0,0.0,0.0,0.0,3.7068,3.655,0.0,0.0,0.0,0.0,0.0,0.0,0.0,0.0,0.0,0.0,0.0,3.7638,3.7671,0.0,0.0,0.0,0.0,0.0,0.0,0.0,0.0,0.0,0.0,0.0,0.0,3.4133,3.4708,3.4784,3.4434,3.3643,3.3138,3.2062,3.0411,2.904,2.7593,2.6119,0.0,0.0,0.0,0.0,0.0,0.0,0.0,0.0,0.0,0.0,0.0,0.0,0.0,0.0,0.0,0.0,0.0,0.0,0.0,0.0,0.0,0.0,0.0,0.0,0.0,2.4209,0.0,0.0,0.0,0.0,0.0,0.0,0.0,0.0,0.0,0.0,0.0,2.516,2.5725,2.5835,2.6064,2.6595,2.6643,2.6578,0.0,0.0,0.0,0.0,0.0,0.0,0.0,0.0,0.0,0.0,0.0,0.0,0.0,0.0,2.3265,2.3145,2.3224,2.3247,2.3077,0.0,0.0,0.0,0.0,0.0,0.0,0.0,0.0,0.0,0.0,0.0,0.0,0.0,0.0,3.8034,0.0,3.7572,0.0,0.0,0.0,0.0,0.0,0.0,0.0,0.0,3.8298,3.8553,3.8537,3.8583,3.8605,0.0,3.8023,3.7179,0.0,0.0,0.0,0.0,0.0,0.0,0.0,0.0,3.5596,3.6455,3.6273,3.577,3.4943,3.3888,3.2652,3.1263,2.9314,2.7563,2.6068,2.5667,2.5418,0.0,0.0,0.0,0.0,0.0,0.0,0.0,0.0,0.0,0.0,0.0,0.0,0.0,0.0,0.0,0.0,0.0,0.0,0.0,0.0,0.0,0.0,0.0,2.4191,0.0,0.0,0.0,0.0,0.0,0.0,0.0,0.0,0.0,2.5336,2.5443,2.5825,2.6689,2.6829,2.7071,2.7587,0.0,0.0,0.0,0.0,0.0,0.0,0.0,2.5801,2.4755,2.453,2.431,2.3855,2.3706,2.3685,2.3819,0.0,0.0,2.3591,2.3617,2.3717,2.3819,2.347,2.3164,2.3178,2.2859,2.2456,0.0,0.0,0.0,0.0,0.0,0.0,0.0,0.0,3.8591,3.8595,0.0,3.8556,0.0,0.0,0.0,0.0,3.8494,3.8593,0.0,0.0,3.8768,3.8751,3.8816,3.886,3.8805,3.8749,3.8748,3.8668,3.8528,3.6106,0.0,0.0,0.0,0.0,0.0,0.0,3.7294,3.8094,3.7408,3.6666,3.5836,3.4321,3.3025,3.2012,2.9593,2.7793,2.6814,2.5917,2.5393,2.5287,2.5205,0.0,0.0,0.0,0.0,0.0,0.0,0.0,0.0,0.0,0.0,0.0,0.0,0.0,0.0,0.0,0.0,0.0,0.0,0.0,0.0,2.4191,0.0,0.0,0.0,0.0,0.0,0.0,0.0,0.0,0.0,0.0,2.6422,2.6485,2.6851,2.7649,0.0,0.0,0.0,0.0,2.7771,2.77,2.7627,2.7542,2.7373,2.7296,2.6914,2.5916,0.0,0.0,2.4283,2.4107,2.4164,2.4275,2.4301,2.4256,2.4077,2.4039,2.4088,2.4257,2.4238,2.4238,2.4292,2.419,2.3988,4.0122,0.0,0.0,0.0,0.0,4.0743,4.1406,4.2005,4.1435,4.0847,4.0227,3.968,0.0,0.0,0.0,0.0,0.0,0.0,3.9834,4.0419,4.1024,4.1633,4.2242,4.2223,4.2244,4.2187,4.1015,4.0428,4.0306,3.8424,3.7445,3.7375,0.0,0.0,0.0,0.0,3.8009,3.8244,3.8091,3.7614,3.6818,3.5789,3.3944,3.1244,2.9813,2.8323,2.6807,2.6371,2.5852,2.5137,2.555,0.0,0.0,0.0,0.0,0.0,0.0,0.0,0.0,0.0,0.0,0.0,0.0,0.0,0.0,0.0,0.0,0.0,0.0,0.0,2.4201,2.4294,2.4616,0.0,0.0,0.0,0.0,0.0,0.0,0.0,0.0,0.0,2.8204,2.7788,2.7742,0.0,0.0,2.8948,2.9505,2.9575,2.9525,2.9454,2.9447,0.0,2.8491,2.8347,2.8029,2.7053,2.6344,2.5579,2.4684,2.4518,2.4534,2.4583,2.4628,2.4659,2.4632,2.4513,2.4474,2.4548,2.4567,2.4578,2.4645,2.4621,2.4522,4.1827,4.0056,4.0617,4.1228,4.1828,4.2348,4.2934,4.3471,4.3004,4.2523,4.2047,4.1551,4.0865,4.0031,3.9722,0.0,0.0,0.0,4.1331,4.215,4.2681,4.3194,4.3688,4.3707,4.3709,4.3652,4.2675,4.2167,4.2105,4.1121,4.0599,4.0478,0.0,0.0,3.8848,3.884,3.9,3.9347,3.9069,3.8542,3.7732,3.6227,3.4112,3.14,3.0364,2.9171,2.7716,2.7188,2.6625,2.5986,2.6325,2.6492,0.0,0.0,0.0,0.0,0.0,0.0,0.0,0.0,0.0,0.0,0.0,2.5016,2.4695,0.0,0.0,0.0,2.4542,2.4893,2.5198,2.5384,0.0,0.0,0.0,0.0,0.0,0.0,0.0,2.8096,2.8249,2.8654,2.949,2.9152,2.9031,2.9548,2.9631,2.9784,3.0265,0.0,3.0323,3.0241,3.0235,3.0036,2.945,2.936,2.8932,2.7678,2.6728,2.5844,2.4981,2.4823,2.4837,2.4847,2.4881,2.4929,2.5019,2.4922,2.484,2.4854,2.4837,2.4834,2.4889,2.4834,2.4768,4.3442,4.3497,4.3497,4.3508,4.3498,4.3492,4.3621,4.3797,4.381,4.3783,4.3785,4.3723,4.3251,4.2446,4.1678,0.0,4.2511,4.2504,4.2949,4.3806,4.3817,4.3849,4.3899,4.3918,4.3903,4.3906,4.3847,4.3807,4.3787,4.3698,4.3707,4.3606,4.0437,3.9192,3.9867,3.9788,4.0131,4.0964,4.0205,3.9372,3.8498,3.601,3.3871,3.2144,3.1165,3.0168,2.9102,2.8186,2.7597,2.7392,2.7311,2.7255,2.7193,0.0,0.0,0.0,0.0,0.0,0.0,0.0,0.0,0.0,0.0,0.0,0.0,0.0,0.0,0.0,2.5208,0.0,2.6766,2.7,0.0,0.0,0.0,2.7559,2.7698,2.7833,2.8198,2.8996,0.0,0.0,3.0302,3.0404,3.0404,3.0404,3.0404,3.0404,3.0404,3.0404,3.0373,3.031,3.031,3.0286,3.0138,3.0137,2.9543,2.7898,2.6943,2.6136,2.5247,2.5019,2.5025,2.5088,2.5119,2.5118,2.5206,2.5181,2.5181,2.5112,2.5051,2.5019,2.5019,2.4961,2.4903,4.6913,4.6912,4.6955,4.6309,4.5223,4.5247,4.5711,4.633,4.5758,4.5156,4.4571,4.3979,4.3588,4.3382,4.3173,4.3185,4.34,4.3379,4.3864,4.4664,4.4694,4.504,4.5677,4.5677,4.57,4.5644,4.5,4.4707,4.4666,4.402,4.3702,4.3656,4.2846,4.2197,4.1679,4.1016,4.0809,4.1075,4.0869,4.0027,3.851,3.6592,3.4733,3.297,3.1961,3.0659,2.9015,2.8634,2.8074,2.7315,2.7698,2.7932,2.7884,2.8388,0.0,0.0,0.0,0.0,0.0,0.0,0.0,0.0,0.0,2.6614,2.6489,0.0,2.6581,0.0,2.6488,2.6777,2.7018,2.7158,0.0,0.0,2.8366,2.8755,2.9468,2.9627,2.9749,2.9959,3.0047,3.0167,3.0385,3.0404,3.0404,3.0404,3.0404,3.0404,3.0404,3.0404,3.0404,3.0373,3.0373,3.0342,3.0286,3.0273,2.9717,2.8038,2.7572,2.6935,2.5417,2.5149,2.5174,2.5179,2.516,2.519,2.5266,2.5271,2.5276,2.5252,2.5204,2.5147,2.5159,2.5111,2.5062,4.8134,4.8161,4.8197,4.7946,4.7518,4.717,4.7327,4.7763,4.7014,4.645,4.5975,4.4792,4.4284,4.4249,4.3864,4.3895,4.4226,4.4229,4.4697,4.5536,4.557,4.5841,4.6282,4.6301,4.6306,4.6289,4.5801,4.5586,4.5566,4.5077,4.486,4.4856,4.4483,4.4007,4.3486,4.2629,4.2022,4.167,4.0913,3.984,3.8471,3.7102,3.5547,3.3803,3.275,3.152,3.0047,2.9479,2.8917,2.8303,2.8548,2.8672,2.8629,2.8992,2.9211,0.0,0.0,0.0,0.0,0.0,0.0,0.0,0.0,0.0,0.0,0.0,2.7951,2.8002,2.7811,2.7845,2.8256,2.8464,2.8734,2.9224,2.936,2.9629,3.0148,3.0254,3.0305,3.0304,3.0367,3.0404,3.0404,3.0404,3.0404,3.0404,3.0404,3.0404,3.0404,3.0404,3.0404,3.0404,3.0404,3.0379,3.0361,3.0343,2.978,2.8249,2.7846,2.7264,2.5589,2.5248,2.5243,2.5248,2.5243,2.5253,2.5302,2.5302,2.5293,2.5298,2.5253,2.5241,2.5245,2.5185,2.5149,4.846,4.8514,4.8531,4.9051,4.9826,4.9069,4.8735,4.8637,4.8006,4.7654,4.7407,4.5855,4.517,4.5111,4.438,4.4414,4.5055,4.5099,4.5489,4.6194,4.6275,4.6291,4.6302,4.6302,4.6306,4.6289,4.6289,4.6289,4.6289,4.6288,4.6288,4.6268,4.5543,4.5153,4.5136,4.4407,4.3488,4.24,4.0791,3.9464,3.8422,3.7584,3.626,3.4472,3.3505,3.2581,3.1572,3.0511,2.9878,2.9738,2.944,2.9326,2.9421,2.9377,2.9403,0.0,2.9565,0.0,0.0,0.0,0.0,0.0,0.0,0.0,0.0,2.8942,2.9404,2.9531,2.9015,2.8988,2.9758,2.9999,3.0117,3.0117,3.0173,3.0202,3.0208,3.0292,3.031,3.031,3.0373,3.0404,3.0404,3.0404,3.0404,3.0404,3.0404,3.0404,3.0404,3.0404,3.0404,3.0404,3.0404,3.0404,3.0385,3.0288,2.9673,2.8275,2.7736,2.7159,2.5577,2.5308,2.5308,2.5288,2.5303,2.5308,2.5308,2.5308,2.5308,2.5308,2.5303,2.5298,2.5297,2.5257,2.5222,5.0211,5.0229,5.0338,5.0526,5.0753,5.0636,5.0227,4.9629,4.9537,4.874,4.7447,4.6467,4.6069,4.605,4.5872,4.5891,4.6028,4.6048,4.613,4.6294,4.6306,4.6297,4.6306,4.6306,4.6288,4.6289,4.6289,4.6289,4.6289,4.6289,4.6289,4.6288,4.6132,4.6053,4.6027,0.0,0.0,0.0,4.1332,3.9994,3.8463,3.8137,3.6801,3.443,3.4038,0.0,3.2327,3.1315,3.0697,3.0484,2.9673,0.0,0.0,0.0,0.0,0.0,0.0,0.0,0.0,0.0,0.0,0.0,3.1683,3.1063,2.9484,2.9504,2.9655,2.9746,2.9684,2.9758,3.0003,3.0113,3.0178,3.0187,3.0254,3.0286,3.0286,3.0355,3.0379,3.0379,3.0404,3.0404,3.0404,3.0404,3.0404,3.0404,3.0404,3.0404,3.0404,3.0404,3.0404,3.0404,3.0404,3.0404,3.0404,2.9794,2.9102,2.8063,2.7274,2.6505,2.5558,2.5308,2.5308,2.5308,2.5308,2.5308,2.5308,2.5308,2.5308,2.5308,2.5308,2.5303,2.5298,2.5298,2.5293,5.1077,5.0747,5.0855,5.096,0.0,5.1113,5.0941,5.0568,5.0174,4.904,4.7453,4.6662,4.6288,4.6294,4.6292,4.6296,4.63,4.63,4.6303,4.6287,4.6295,4.6301,4.6287,4.6287,4.6288,4.6289,4.6289,4.6289,4.6289,4.6289,4.6287,4.6301,4.6301,4.6276,4.6234,4.5375,4.427,4.3007,4.165,4.0299,3.8991,3.8468,3.7332,3.5541,3.4558,0.0,0.0,0.0,0.0,0.0,0.0,0.0,0.0,3.0929,0.0,3.1506,3.1703,3.1846,3.1952,3.2031,3.2133,3.2241,3.2381,3.203,3.1035,3.1015,3.0881,3.0572,3.0601,3.0662,3.0745,3.0838,3.1065,3.1462,3.1565,3.1578,3.1603,3.1628,3.1468,3.1096,3.1044,3.0904,3.0462,3.0404,3.0404,3.0404,3.0404,3.0404,3.0404,3.0404,3.0404,3.0404,3.0404,3.025,2.9813,2.9448,2.8626,2.7544,2.689,2.6274,2.5442,2.5308,2.5308,2.5308,2.5308,2.5308,2.5308,2.5308,2.5308,2.5308,2.5308,2.5308,2.5308,2.5308,2.5308,5.1568,5.1031,5.0946,5.0993,5.1126,5.1189,5.1156,5.1016,0.0,0.0,0.0,4.6645,4.629,4.63,4.6302,4.6288,4.6295,4.6294,4.6295,4.6296,4.6301,4.6305,4.6288,4.6288,4.6289,4.6289,4.6289,4.6288,4.6305,4.6305,4.6301,4.6288,4.6267,4.6234,4.6075,4.4386,4.3501,4.3452,4.1788,4.0432,3.9516,3.8761,3.7861,3.6724,3.522,3.4274,3.3928,3.2902,3.2318,3.22,3.1841,3.1695,3.1831,3.1776,3.185,3.2016,3.2175,3.2329,3.2499,3.2564,3.2665,3.2853,3.2993,3.2874,3.2486,3.2448,3.2226,3.1613,3.1607,3.1649,3.1661,3.1763,3.2116,3.2827,3.2891,3.2872,3.2872,3.2891,3.2583,3.2045,3.1775,3.1448,3.0769,3.05,3.0404,3.0404,3.0404,3.0404,3.0404,3.0404,3.0404,3.0404,3.0404,3.0121,2.9333,2.8934,2.8275,2.6948,2.6505,2.6096,2.5519,2.5308,2.5308,2.5308,2.5308,2.5308,2.5308,2.5308,2.5308,2.5308,2.5308,2.5308,2.5308,2.5308,2.5308,5.1961,5.1865,5.1242,5.1056,5.1176,5.1267,5.0883,5.0199,4.9337,4.8401,4.7452,4.6648,4.629,4.6302,4.6288,4.6295,4.6301,4.6301,4.6303,4.6306,4.6306,4.6288,4.6289,4.6289,4.6288,4.6288,4.6305,4.6301,4.6296,4.6296,4.6266,4.6219,4.6216,4.6186,4.5959,4.4326,4.3388,4.3319,4.1668,4.038,3.9526,3.927,3.8371,3.6783,3.6342,3.5687,3.4756,3.3808,3.3223,3.3026,3.2229,3.2071,3.2661,3.2704,3.3019,3.3691,3.3934,3.4061,3.4158,3.4327,3.4499,3.4706,3.48,3.4203,3.2724,3.2622,3.2623,3.2591,3.2598,3.2623,3.2678,3.2698,3.2795,3.2936,3.2923,3.291,3.2987,3.3006,3.2949,3.2756,3.2102,3.1698,3.1423,3.0846,3.0404,3.0404,3.0404,3.0404,3.0404,3.0404,3.0404,3.0404,3.0404,3.0044,2.9179,2.8472,2.7736,2.6794,2.5981,2.5538,2.5365,2.5308,2.5308,2.5308,2.5308,2.5308,2.5308,2.5308,2.5308,2.5308,2.5308,2.5308,2.5308,2.5308,2.5308,5.249,5.2089,5.133,5.1081,5.1215,5.131,5.0613,4.9444,4.9034,4.8361,4.7448,4.6665,4.6306,4.6294,4.63,4.6305,4.6288,4.6289,4.6289,4.6289,4.6289,4.6288,4.6306,4.6303,4.6301,4.6301,4.6256,4.6246,4.6234,4.6251,4.6211,4.6134,4.6072,4.6022,4.5875,4.4201,4.3286,4.3195,4.1596,4.0527,4.0107,3.9576,3.888,3.8012,3.7072,3.6249,3.5676,3.4686,3.4091,3.3974,3.3422,3.328,3.3633,3.3616,3.3783,3.4172,3.4416,3.4528,3.4594,3.482,3.5011,3.5119,3.5209,3.494,3.4148,3.4087,3.3929,3.3568,3.3513,3.3496,3.355,3.3589,3.3801,3.4269,3.4314,3.4308,3.4295,3.4308,3.4122,3.3622,3.2872,3.2179,3.175,3.0942,3.0404,3.0404,3.0404,3.0404,3.0404,3.0404,3.0404,3.0404,3.0385,2.9808,2.8717,2.8165,2.7371,2.6135,2.5577,2.5327,2.5308,2.5308,2.5308,2.5308,2.5308,2.5308,2.5308,2.5308,2.5308,2.5308,2.5308,2.5308,2.5308,2.5308,2.5308,5.3017,5.2434,5.1437,5.1128,5.1249,5.1145,5.0277,4.8937,4.8703,4.8092,4.7196,4.6563,4.6299,4.6303,4.6307,4.6289,4.6289,4.6288,4.6306,4.6305,4.6301,4.63,4.6297,4.627,4.6285,4.6284,4.6234,4.6197,4.6189,4.6186,4.613,4.6042,4.5935,4.5874,4.5835,4.4077,4.3178,4.3074,4.1523,4.0639,4.0588,3.9926,3.9442,3.9024,3.7791,3.6915,3.6568,3.5746,3.5241,3.5176,3.4965,3.484,3.4875,3.484,3.4753,3.4664,3.4776,3.4833,3.4749,3.4974,3.5138,3.52,3.5269,3.532,3.532,3.5315,3.5081,3.452,3.4414,3.4428,3.4435,3.4455,3.4757,3.5404,3.55,3.5404,3.5462,3.55,3.525,3.4507,3.3564,3.2641,3.1987,3.1058,3.0442,3.0404,3.0404,3.0404,3.0379,3.0379,3.0373,3.0367,3.0373,2.9731,2.8255,2.7909,2.7178,2.5596,2.5308,2.5308,2.5308,2.5308,2.5308,2.5308,2.5308,2.5308,2.5308,2.5308,2.5308,2.5308,2.5308,2.5308,2.5308,2.5308,2.5308,5.3412,5.3226,5.1802,5.1257,5.1269,5.0615,4.9781,4.8841,4.8063,4.7222,4.6457,4.632,4.6304,4.6307,4.6289,4.6289,4.6287,4.6304,4.63,4.6295,4.6294,4.6251,4.6222,4.6223,4.6214,4.6209,4.6203,4.615,4.6111,4.6106,4.6037,4.5929,4.584,4.5803,4.5602,4.4021,4.3127,4.3088,4.1401,4.0546,4.0588,4.0462,3.9977,3.9112,3.8882,3.8327,3.7423,3.7194,3.6998,3.6885,3.671,3.6688,3.6633,3.6639,3.631,3.5619,3.566,3.5459,3.4983,3.5039,3.5167,3.52,3.5245,3.5293,3.5293,3.5361,3.5393,3.528,3.5332,3.5301,3.5385,3.5327,3.5346,3.5442,3.55,3.55,3.55,3.55,3.5462,3.5404,3.3949,3.2852,3.2583,3.1365,3.0442,3.0404,3.0379,3.0373,3.0316,3.0304,3.0311,3.0318,3.0362,2.97,2.8385,2.789,2.7192,2.5745,2.5303,2.5303,2.5279,2.5303,2.5308,2.5274,2.5284,2.5284,2.5308,2.5308,2.5303,2.5308,2.5308,2.5308,2.5308,2.5308,2.5308,5.3223,5.2783,5.1721,5.0995,5.0614,5.0273,4.9375,4.8105,4.7773,4.7109,4.6347,4.6289,4.6289,4.6289,4.6289,4.6306,4.6301,4.6294,4.6284,4.6249,4.6243,4.6233,4.6198,4.6164,4.613,4.6146,4.6106,4.6056,4.5986,4.5949,4.5893,4.5833,4.5785,4.573,4.5634,4.446,4.3822,4.3745,4.2132,4.1266,4.1243,4.0773,4.0315,3.9859,3.9303,3.8803,3.827,3.7661,3.7276,3.7201,3.7099,3.7009,3.7021,3.6986,3.6824,3.6541,3.6618,3.6403,3.578,3.5789,3.5607,3.5195,3.516,3.5193,3.5201,3.5293,3.5365,3.5388,3.5458,3.55,3.55,3.55,3.55,3.55,3.55,3.55,3.55,3.55,3.55,3.5404,3.443,3.343,3.2795,3.1448,3.05,3.0379,3.0373,3.0336,3.0304,3.0273,3.0235,3.0241,3.0266,2.9826,2.8744,2.8103,2.7336,2.6332,2.5564,2.5262,2.5243,2.5243,2.5243,2.5238,2.5243,2.5253,2.5302,2.5307,2.5307,2.5298,2.5308,2.5308,2.5308,2.5308,2.5308,5.3107,5.2315,5.1381,5.0637,5.0058,4.9568,4.8703,4.7626,4.7332,4.6844,4.6317,4.6278,4.628,4.6284,4.6284,4.6297,4.6284,4.6253,4.6253,4.6183,4.619,4.6169,4.6123,4.608,4.6056,4.6047,4.598,4.5923,4.588,4.581,4.577,4.5762,4.5698,4.5684,4.556,4.4757,4.4316,4.4162,4.2854,4.2154,4.2085,4.1527,4.0968,4.0396,3.9733,3.927,3.9156,3.8401,3.7969,3.7966,3.7791,3.772,3.7786,3.772,3.7638,3.7476,3.7348,3.7108,3.6644,3.6407,3.6055,3.5492,3.5243,3.5089,3.5115,3.5204,3.5245,3.5277,3.538,3.5439,3.546,3.5474,3.55,3.55,3.55,3.55,3.55,3.55,3.55,3.5423,3.4699,3.3878,3.2929,3.1698,3.0827,3.0796,3.0515,3.0286,3.0267,3.0208,3.0154,3.014,3.0123,2.9801,2.9104,2.8574,2.7713,2.6711,2.5907,2.5524,2.528,2.5171,2.5171,2.5171,2.5171,2.5201,2.5241,2.5271,2.5282,2.5288,2.5303,2.5308,2.5308,2.5308,2.5308,5.3164,5.2282,5.0804,5.0117,4.9975,4.838,4.7611,4.7375,4.6651,4.6262,4.6222,4.6202,4.6212,4.6197,4.6273,4.6271,4.6209,4.6195,4.616,4.6106,4.6098,4.6075,4.6007,4.5947,4.5917,4.5898,4.5861,4.58,4.5815,4.573,4.5728,4.569,4.564,4.5614,4.5507,4.4786,4.4335,4.4297,4.3489,4.3047,4.3028,4.297,4.2082,4.0703,4.0325,4.0253,4.0078,3.9816,3.9637,3.9569,3.9413,3.9401,3.9439,3.942,3.9093,3.8463,3.7758,3.7373,3.7365,3.6815,3.6359,3.6169,3.5514,3.5058,3.518,3.5131,3.5136,3.5201,3.5261,3.5331,3.5372,3.5434,3.55,3.55,3.55,3.55,3.55,3.55,3.55,3.5365,3.4731,3.3916,3.3038,3.2179,3.1699,3.1411,3.0842,3.0343,3.0315,3.0214,3.0079,3.0011,2.9915,2.9695,2.9086,2.8732,2.8026,2.716,2.6562,2.6021,2.5485,2.509,2.5109,2.5109,2.5103,2.5115,2.5181,2.5228,2.5245,2.5271,2.5288,2.5298,2.5298,2.5308,2.5308,5.2157,5.0933,5.0351,4.9484,4.8392,4.7743,4.7179,4.6646,4.6332,4.6215,4.6215,4.6215,4.6157,4.6146,4.6157,4.6157,4.6142,4.6135,4.6089,4.5966,4.5975,4.5947,4.588,4.5854,4.5845,4.5819,4.5776,4.5731,4.573,4.5665,4.564,4.564,4.5603,4.5594,4.5537,4.5306,4.5133,4.5037,4.4297,4.3855,4.3835,4.3374,4.2733,4.2117,4.1961,4.1868,4.1777,4.1043,4.0582,4.0524,3.9933,3.954,3.9589,3.9608,3.9525,3.9274,3.8984,3.8674,3.8291,3.7978,3.7503,3.6944,3.6128,3.5654,3.5569,3.523,3.4926,3.5038,3.5134,3.519,3.5273,3.5369,3.5453,3.5493,3.55,3.55,3.55,3.55,3.5493,3.5331,3.4683,3.3997,3.3632,3.2934,3.2403,3.2241,3.1562,3.1047,3.0814,3.0418,3.0027,2.9885,2.9816,2.9706,2.9494,2.9,2.8426,2.783,2.7215,2.6455,2.5835,2.524,2.5126,2.4974,2.4981,2.5006,2.505,2.5153,2.5176,2.5204,2.5241,2.5273,2.5302,2.5307,2.5298,5.11,5.0097,4.9485,4.8607,4.7521,4.7197,4.6738,4.6189,4.617,4.6166,4.6142,4.6138,4.6098,4.6056,4.6047,4.6012,4.5997,4.6037,4.5969,4.5867,4.5861,4.5827,4.5771,4.5765,4.577,4.5762,4.5703,4.5671,4.5676,4.5631,4.5594,4.5594,4.5594,4.5594,4.5594,4.5594,4.5594,4.546,4.4989,4.4729,4.4643,4.4201,4.3885,4.3831,4.3741,4.3331,4.2783,4.1952,4.151,4.134,4.0716,4.0189,3.9958,3.9921,3.9821,3.9668,3.9604,3.9474,3.9047,3.8731,3.8263,3.7686,3.6847,3.6313,3.626,3.5576,3.5327,3.5512,3.5467,3.5511,3.5885,3.608,3.5963,3.56,3.5493,3.5493,3.5467,3.546,3.5439,3.5319,3.4879,3.4511,3.4358,3.3661,3.323,3.3051,3.2287,3.1764,3.1537,3.1104,3.0422,3.0152,3.0048,2.986,2.957,2.9156,2.8762,2.8204,2.7851,2.7039,2.6227,2.5593,2.5128,2.4946,2.4847,2.4886,2.4954,2.5056,2.5105,2.5128,2.5179,2.5236,2.5271,2.5292,2.5302,5.0115,4.9744,4.8237,4.7562,4.7278,4.6617,4.6204,4.6105,4.61,4.6071,4.6026,4.6002,4.5975,4.5923,4.5917,4.5861,4.5826,4.5867,4.5874,4.5795,4.5788,4.5765,4.5708,4.5706,4.5701,4.5701,4.562,4.5594,4.5594,4.5594,4.5594,4.5594,4.5594,4.5594,4.5594,4.5594,4.5594,4.5575,4.5479,4.5518,4.5575,4.5421,4.5364,4.5413,4.5321,4.4566,4.3015,4.2658,4.2428,4.2281,4.2021,4.1501,4.0745,4.0606,4.0298,3.974,3.9558,3.9601,3.9564,3.8926,3.8522,3.8284,3.7533,3.6986,3.6878,3.6222,3.6043,3.6629,3.6453,3.6423,3.7157,3.7365,3.699,3.5786,3.5773,3.576,3.5547,3.5417,3.5376,3.5293,3.5103,3.5163,3.501,3.4413,3.3884,3.3674,3.305,3.2441,3.2279,3.1947,3.1585,3.0978,3.0605,3.0403,2.9853,2.9277,2.8931,2.8568,2.8286,2.776,2.6841,2.6128,2.5592,2.5319,2.4794,2.4806,2.4801,2.49,2.498,2.5025,2.5099,2.5181,2.5217,2.5239,2.5301,4.9433,4.8373,4.7766,4.7145,4.6596,4.6244,4.6071,4.6049,4.6025,4.5997,4.595,4.5925,4.5906,4.5833,4.5819,4.5795,4.573,4.5762,4.5735,4.575,4.5742,4.5698,4.5646,4.562,4.564,4.5631,4.5622,4.5594,4.5594,4.5594,4.5594,4.5594,4.5594,4.5594,4.5594,4.5594,4.5594,4.5594,4.5594,4.5594,4.5594,4.5594,4.5594,4.5586,4.5522,4.516,4.4614,4.3829,4.3346,4.3194,4.2378,4.1725,4.1375,4.1244,4.0887,4.0296,4.0179,3.9957,3.957,3.9227,3.8996,3.8858,3.8158,3.767,3.7553,3.6907,3.6621,3.6955,3.6833,3.6985,3.7232,3.747,3.7431,3.71,3.7118,3.6788,3.6205,3.5616,3.5234,3.5134,3.5046,3.4982,3.4963,3.4612,3.4518,3.4358,3.3705,3.3147,3.2891,3.242,3.1856,3.1418,3.1228,3.096,3.0368,2.9861,2.9508,2.9045,2.8695,2.8268,2.7401,2.6804,2.6236,2.5657,2.514,2.4901,2.4864,2.4855,2.5,2.4964,2.5012,2.5076,2.5131,2.5178,2.5223,4.8826,4.7609,4.7217,4.6735,4.6225,4.6154,4.6095,4.6,4.5983,4.5962,4.5925,4.5886,4.5824,4.5773,4.575,4.5722,4.5657,4.5676,4.5676,4.5676,4.5676,4.5659,4.5594,4.5594,4.5594,4.5594,4.5594,4.5594,4.5594,4.5594,4.5594,4.5594,4.5594,4.5594,4.5594,4.5594,4.5594,4.5594,4.5594,4.5594,4.5594,4.5594,4.5594,4.5586,4.5559,4.5504,4.539,4.4735,4.4284,4.3994,4.3235,4.2594,4.2099,4.1957,4.1598,4.0946,4.0542,4.0207,3.981,3.94,3.9197,3.9058,3.8628,3.8299,3.8132,3.758,3.7243,3.7608,3.7524,3.7608,3.7976,3.8213,3.8362,3.848,3.8009,3.7575,3.6854,3.6026,3.5524,3.5391,3.5087,3.4839,3.4772,3.4791,3.478,3.4603,3.4204,3.3784,3.3512,3.308,3.2604,3.2212,3.1986,3.1544,3.0899,3.0475,3.0107,2.9592,2.9084,2.8553,2.784,2.7507,2.7062,2.6432,2.5866,2.5866,2.5835,2.5415,2.5343,2.5186,2.5113,2.4952,2.5006,2.5063,2.5136,4.8317,4.7453,4.6651,4.6311,4.6206,4.6206,4.6134,4.6032,4.6,4.5968,4.59,4.5851,4.5765,4.57,4.5687,4.5657,4.5614,4.5614,4.5603,4.5603,4.5603,4.5594,4.5594,4.5594,4.5594,4.5594,4.5594,4.5594,4.5594,4.5594,4.5594,4.5594,4.5594,4.5594,4.5594,4.5594,4.5594,4.5594,4.5594,4.5594,4.5594,4.5594,4.5594,4.5594,4.5586,4.5549,4.5466,4.5303,4.5115,4.4864,4.4322,4.3636,4.2962,4.2767,4.2347,4.1529,4.0737,4.0485,4.0228,3.9662,3.9178,3.9178,3.8972,3.8896,3.8674,3.819,3.8025,3.8651,3.8356,3.8387,3.9058,3.9344,3.9474,3.9483,3.8534,3.7795,3.75,3.6599,3.5891,3.5708,3.5182,3.4572,3.4572,3.4572,3.4539,3.4465,3.4334,3.4167,3.4042,3.3648,3.3505,3.3152,3.277,3.2279,3.1685,3.1342,3.0901,2.9961,2.948,2.8986,2.8344,2.7994,2.7698,2.7081,2.6668,2.6716,2.6561,2.607,2.5861,2.5876,2.5592,2.5081,2.5005,2.5239,2.5184,4.8004,4.6652,4.6383,4.6264,4.6201,4.6206,4.6165,4.6099,4.609,4.6061,4.5925,4.5844,4.577,4.5698,4.5637,4.5603,4.5594,4.5594,4.5594,4.5594,4.5594,4.5594,4.5594,4.5594,4.5594,4.5594,4.5594,4.5594,4.5594,4.5594,4.5594,4.5594,4.5594,4.5594,4.5594,4.5594,4.5594,4.5594,4.5594,4.5594,4.5594,4.5594,4.5594,4.5594,4.5594,4.5568,4.5485,4.5309,4.5038,4.4776,4.4398,4.4069,4.3579,4.3396,4.2963,4.2265,4.1915,4.1522,4.0975,4.0243,3.9792,3.9666,3.9178,3.8768,3.875,3.8626,3.8615,3.8855,3.8738,3.8813,3.9141,3.9324,3.9439,3.945,3.8754,3.8256,3.7975,3.6742,3.5712,3.5607,3.4916,3.4477,3.4316,3.4305,3.4293,3.4233,3.4197,3.4148,3.4049,3.3972,3.3674,3.3708,3.3398,3.2994,3.2559,3.2247,3.1586,3.046,2.9866,2.9547,2.886,2.8265,2.7941,2.7529,2.7222,2.7161,2.6915,2.6531,2.6543,2.6581,2.6375,2.602,2.5769,2.5786,2.5508,4.7886,4.6301,4.6288,4.6271,4.6294,4.6591,4.6736,4.6687,4.6663,4.6599,4.6422,4.5967,4.577,4.5706,4.562,4.5594,4.5594,4.5594,4.5806,4.6144,4.6182,4.597,4.571,4.5594,4.5594,4.5594,4.5594,4.5594,4.5594,4.5594,4.5594,4.5594,4.5594,4.5594,4.5594,4.5594,4.5594,4.5594,4.5594,4.5594,4.5594,4.5594,4.5594,4.5594,4.5594,4.5578,4.5448,4.5235,4.4967,4.4706,4.443,4.417,4.3929,4.3786,4.3411,4.2884,4.2555,4.213,4.1685,4.0935,4.0331,3.9963,3.942,3.9056,3.8799,3.8735,3.8747,3.8803,3.8862,3.8935,3.9021,3.9115,3.9205,3.9255,3.8945,3.8746,3.8819,3.7536,3.6503,3.5951,3.5262,3.4463,3.4185,3.4142,3.4099,3.4055,3.4049,3.3979,3.3921,3.3881,3.386,3.3834,3.3807,3.3421,3.3054,3.2748,3.2063,3.0962,2.9934,2.9684,2.9189,2.8528,2.8429,2.8147,2.7827,2.761,2.7495,2.7361,2.7266,2.7263,2.7147,2.6898,2.6558,2.6426,2.6098,4.7863,4.63,4.6306,4.6292,4.6399,4.7128,4.7395,4.7474,4.7518,4.7494,4.726,4.6479,4.6198,4.5816,4.5918,4.5729,4.5594,4.5594,4.6144,4.6605,4.6865,4.6644,4.5913,4.5671,4.5614,4.5594,4.5594,4.5594,4.5594,4.5594,4.5594,4.5594,4.5594,4.5594,4.5594,4.5594,4.5594,4.5594,4.5594,4.5594,4.5594,4.5594,4.5594,4.5586,4.5577,4.5533,4.5399,4.5203,4.4986,4.4712,4.451,4.4218,4.3945,4.3835,4.3666,4.3402,4.2872,4.2523,4.2304,4.1697,4.0983,4.0467,4.021,3.968,3.9129,3.8961,3.8937,3.878,3.8792,3.8837,3.8892,3.895,3.9036,3.9069,3.8994,3.9087,3.9034,3.8431,3.7561,3.6785,3.5895,3.495,3.4397,3.4028,3.3972,3.3959,3.3934,3.3895,3.3868,3.3842,3.3834,3.382,3.3807,3.3807,3.3495,3.3201,3.2357,3.1403,3.0161,2.9537,2.9244,2.884,2.8913,2.876,2.8404,2.8385,2.8551,2.8382,2.8084,2.7991,2.7908,2.7479,2.7074,2.7149,2.6967,4.7834,4.6285,4.6236,4.6223,4.6348,4.7123,4.7512,4.7591,4.8167,4.835,4.8198,4.7932,4.7372,4.6722,4.6572,4.6278,4.5787,4.5825,4.6067,4.6894,4.7615,4.7355,4.6624,4.6047,4.5633,4.5594,4.5594,4.5594,4.5594,4.5594,4.5594,4.5594,4.5594,4.5594,4.5594,4.5594,4.5594,4.5594,4.5594,4.5594,4.5594,4.5594,4.5594,4.5586,4.5559,4.5477,4.5398,4.5203,4.4967,4.4719,4.4496,4.4237,4.3961,4.3818,4.3703,4.3512,4.3351,4.3204,4.3075,4.2488,4.1974,4.1644,4.1093,4.0524,3.9735,3.9643,3.9347,3.894,3.8719,3.8912,3.8914,3.8914,3.8925,3.8921,3.8921,3.8906,3.8777,3.8208,3.7681,3.7137,3.6108,3.5009,3.4802,3.4191,3.4007,3.3884,3.3829,3.3815,3.3802,3.382,3.382,3.3807,3.3807,3.3807,3.366,3.3256,3.2467,3.1604,3.0467,2.9464,2.9152,2.8987,2.8987,2.8987,2.8932,2.8987,2.8987,2.8968,2.8573,2.8618,2.8588,2.821,2.7913,2.7927,2.768,4.7812,4.6284,4.6206,4.6407,4.6862,4.7694,4.8284,4.8686,4.9051,4.921,4.9006,4.8621,4.806,4.7552,4.7131,4.6759,4.6951,4.7221,4.7625,4.8144,4.8548,4.8452,4.7894,4.6817,4.6047,4.571,4.5594,4.5594,4.5594,4.5594,4.5594,4.5594,4.5594,4.5594,4.5594,4.5594,4.5594,4.5594,4.5594,4.5594,4.5594,4.5594,4.5594,4.5577,4.5504,4.5419,4.5348,4.5144,4.487,4.4613,4.4378,4.4158,4.3929,4.3786,4.3634,4.3532,4.3479,4.3479,4.3314,4.3112,4.269,4.2341,4.1901,4.1277,4.0689,4.0469,4.0304,3.9955,3.9827,3.9732,3.9338,3.8891,3.8847,3.881,3.8825,3.8777,3.8707,3.839,3.7982,3.7584,3.6791,3.5858,3.522,3.4619,3.4137,3.4036,3.3834,3.382,3.382,3.3807,3.3807,3.3807,3.3807,3.3788,3.3697,3.3256,3.2504,3.1623,3.065,2.9739,2.9152,2.9042,2.8987,2.8987,2.8987,2.8987,2.8987,2.8987,2.8987,2.8911,2.8809,2.8762,2.8706,2.8566,2.8192,4.7657,4.6192,4.6176,4.6567,4.728,4.8217,4.9006,4.961,5.0026,5.0027,4.9841,4.903,4.8817,4.8345,4.7747,4.774,4.8105,4.8817,4.9067,4.9106,4.9433,4.9327,4.8875,4.7905,4.6953,4.6049,4.5701,4.5624,4.5577,4.5577,4.5568,4.5568,4.5549,4.5568,4.5577,4.5577,4.5586,4.5586,4.5577,4.5577,4.5568,4.5549,4.554,4.5522,4.5448,4.5351,4.5246,4.5026,4.477,4.4515,4.4248,4.4036,4.3881,4.3718,4.3565,4.3496,4.3479,4.3479,4.3479,4.3406,4.3149,4.2506,4.2488,4.2103,4.1499,4.1242,4.1113,4.1022,4.0838,4.0671,4.012,3.9457,3.9053,3.8924,3.8836,3.8707,3.8704,3.8732,3.8364,3.7908,3.7364,3.6633,3.5881,3.5206,3.4637,3.4156,3.3972,3.3844,3.3844,3.3807,3.3807,3.3807,3.3807,3.3807,3.3733,3.3623,3.2834,3.2045,3.1054,3.0338,2.9574,2.9445,2.9409,2.9042,2.8987,2.8987,2.8987,2.8987,2.9005,2.9017,2.9003,2.8908,2.899,2.9134,2.8698,4.7034,4.6115,4.6047,4.6124,4.6489,4.7941,4.8702,4.899,5.0292,5.0816,5.0666,5.0518,4.9903,4.939,4.9143,4.8702,4.85,4.9087,4.9471,4.9557,4.9912,4.9997,4.9304,4.8814,4.822,4.7415,4.6483,4.5781,4.5628,4.5513,4.5485,4.5457,4.5457,4.5467,4.5495,4.5513,4.5531,4.5568,4.555,4.5513,4.5495,4.5448,4.5448,4.5438,4.537,4.5277,4.5162,4.4955,4.4706,4.4496,4.4188,4.3976,4.3816,4.3684,4.3565,4.3513,4.3479,4.3479,4.3479,4.3479,4.3424,4.3314,4.3222,4.2892,4.2341,4.2084,4.1882,4.1425,4.1242,4.1058,4.0893,4.0175,3.9772,3.957,3.9166,3.8799,3.8781,3.8704,3.8683,3.834,3.7863,3.7401,3.6633,3.5954,3.5422,3.4835,3.4394,3.4174,3.4064,3.3954,3.3807,3.3807,3.3807,3.3807,3.3788,3.3733,3.3348,3.2656,3.1849,3.1256,3.0601,3.0173,2.9898,2.9696,2.9262,2.8987,2.8987,2.9005,2.8987,2.9005,2.9017,2.9028,2.9062,2.9096,2.9108,4.6828,4.6011,4.5972,4.6214,4.6758,4.7941,4.8722,4.9245,5.0431,5.0968,5.0885,5.0799,5.0573,5.0076,4.9548,4.9115,4.9038,4.9566,4.9919,5.004,5.0259,5.0284,4.9655,4.9338,4.8928,4.8288,4.7315,4.6435,4.6071,4.5611,4.5467,4.538,4.539,4.5419,4.5438,4.5448,4.5448,4.5485,4.5476,4.5448,4.5438,4.537,4.5341,4.5329,4.5256,4.517,4.5068,4.4833,4.4619,4.4426,4.4147,4.3931,4.3786,4.3634,4.3549,4.3496,4.3479,4.3479,4.3479,4.3479,4.3461,4.3479,4.3479,4.3332,4.3039,4.2873,4.269,4.2378,4.1829,4.1717,4.1699,4.0983,4.0598,4.0377,3.9808,3.9386,3.9221,3.8946,3.8817,3.8781,3.8395,3.7918,3.7419,3.6762,3.6211,3.5587,3.4912,3.4619,3.4431,3.4156,3.399,3.3807,3.3807,3.3807,3.3807,3.377,3.366,3.306,3.2601,3.2027,3.1476,3.0962,3.0723,3.0577,3.0044,2.9354,2.9023,2.9023,2.9005,2.9005,2.8987,2.9017,2.9017,2.9028,2.9051,4.6551,4.588,4.586,4.6213,4.6926,4.7963,4.8725,4.9452,5.0425,5.0872,5.0846,5.0757,5.0692,5.05,5.0019,4.9576,4.9583,5.0232,5.032,5.0279,5.0306,5.0271,5.0014,4.9628,4.9196,4.9089,4.8281,4.7468,4.6492,4.594,4.5526,4.5273,4.5286,4.5328,4.5319,4.533,4.5351,4.5371,4.5361,4.537,4.5328,4.5265,4.5233,4.5213,4.5114,4.5003,4.4962,4.4738,4.4551,4.4354,4.4135,4.3883,4.3788,4.3618,4.3515,4.3479,4.3479,4.3479,4.3479,4.3479,4.3479,4.3479,4.3479,4.3478,4.346,4.3351,4.3387,4.3351,4.2983,4.2543,4.2433,4.1827,4.1423,4.1185,4.0671,4.0102,3.9937,3.9643,3.9184,3.9038,3.8836,3.8487,3.7973,3.7401,3.6795,3.645,3.5807,3.5459,3.5183,3.4541,3.4247,3.3935,3.3807,3.3807,3.3807,3.3807,3.366,3.333,3.3023,3.2674,3.2155,3.1659,3.1476,3.1256,3.0632,2.9989,2.9537,2.917,2.9225,2.9225,2.9078,2.8987,2.9005,2.9017,2.9028,4.5904,4.5803,4.5746,4.5781,4.6129,4.7626,4.834,4.8668,5.0145,5.0756,5.073,5.072,5.0654,5.0546,5.0446,5.0278,5.0281,5.0275,5.0278,5.0145,5.012,5.0057,4.9946,4.9895,4.9629,4.9502,4.8857,4.77,4.6742,4.629,4.5734,4.5207,4.5071,4.5061,4.5106,4.5173,4.5275,4.5277,4.5227,4.5151,4.5068,4.4979,4.4943,4.4919,4.487,4.4808,4.4789,4.4592,4.4473,4.4368,4.407,4.3883,4.3788,4.3618,4.3532,4.3479,4.3479,4.3479,4.3479,4.3479,4.3479,4.3479,4.3479,4.3479,4.3479,4.3479,4.3479,4.3479,4.3332,4.3259,4.3075,4.2598,4.2268,4.1901,4.146,4.1075,4.0836,4.0286,3.9827,3.9533,3.9405,3.9038,3.8597,3.797,3.7382,3.7088,3.6743,3.6376,3.5936,3.5312,3.455,3.4238,3.4055,3.4037,3.3753,3.3753,3.3688,3.3468,3.3358,3.3225,3.2852,3.2394,3.21,3.177,3.1237,3.0834,3.0473,3.0143,2.9757,2.9427,2.9207,2.9078,2.8987,2.8987,2.8987,4.5711,4.5758,4.569,4.5618,4.5804,4.7432,4.8115,4.8481,4.9875,5.0615,5.0595,5.0595,5.0563,5.0478,5.0382,5.0302,5.0231,5.0194,5.005,4.9893,4.9857,4.9788,4.9655,4.9625,4.9607,4.9512,4.9177,4.846,4.7358,4.6414,4.576,4.5391,4.5022,4.4833,4.4883,4.4967,4.5026,4.5026,4.4967,4.4883,4.4808,4.4738,4.4667,4.4653,4.46,4.4573,4.4519,4.443,4.4333,4.424,4.3995,4.3853,4.3753,4.3617,4.3479,4.3479,4.3479,4.3479,4.3479,4.3479,4.3479,4.3479,4.3479,4.3479,4.3479,4.3479,4.3479,4.3479,4.3479,4.3479,4.3479,4.3185,4.3057,4.2745,4.2194,4.1974,4.1607,4.1001,4.0524,4.023,3.9937,3.9625,3.9258,3.867,3.819,3.7863,3.7496,3.7074,3.6688,3.6211,3.5394,3.46,3.4435,3.4311,3.3922,3.3689,3.3698,3.3565,3.3593,3.3478,3.3445,3.3146,3.2816,3.2834,3.2779,3.2284,3.1623,3.0852,3.0228,2.9757,2.9335,2.9189,2.906,2.9005,2.9005,4.5587,4.5631,4.5605,4.5656,4.5937,4.7356,4.8112,4.8466,4.9816,5.0438,5.0446,5.0404,5.0359,5.0302,5.0194,5.0076,5.0024,4.9952,4.9774,4.9648,4.9559,4.9464,4.9337,4.9289,4.9289,4.9289,4.9196,4.8739,4.7978,4.7011,4.6202,4.5604,4.5186,4.4804,4.4651,4.4706,4.4796,4.4783,4.4667,4.4581,4.4546,4.4454,4.4397,4.4368,4.434,4.4292,4.4262,4.4177,4.4138,4.4076,4.3883,4.3736,4.3703,4.3583,4.3496,4.3479,4.3479,4.3479,4.3479,4.3479,4.3479,4.3479,4.3479,4.3479,4.3479,4.3479,4.3479,4.3479,4.3479,4.3479,4.3479,4.3478,4.3387,4.3185,4.291,4.2727,4.2451,4.1827,4.1368,4.1167,4.0836,4.0377,3.9955,3.9405,3.8982,3.867,3.8248,3.7771,3.7331,3.6909,3.6208,3.5322,3.4804,3.4625,3.4268,3.3911,3.383,3.3643,3.3671,3.3662,3.3593,3.3647,3.3495,3.366,3.3807,3.344,3.2632,3.1623,3.065,3.0136,2.9666,2.9317,2.9152,2.9067,2.8982,4.5429,4.5429,4.5505,4.5947,4.6617,4.7524,4.8345,4.8955,4.9905,5.0302,5.0278,5.0175,5.0133,5.0082,4.9959,4.9843,4.9736,4.9721,4.951,4.9324,4.923,4.9129,4.9027,4.8959,4.896,4.8959,4.894,4.8852,4.8542,4.7779,4.6566,4.5427,4.5341,4.4898,4.4583,4.4515,4.451,4.4477,4.4345,4.4288,4.421,4.414,4.4067,4.4051,4.4036,4.4036,4.402,4.3976,4.3947,4.3947,4.3751,4.3651,4.3634,4.3566,4.3515,4.3479,4.3479,4.3479,4.3479,4.3479,4.3479,4.3479,4.3479,4.3479,4.3479,4.3479,4.3479,4.3479,4.3479,4.3479,4.3479,4.3479,4.3479,4.3406,4.3259,4.3204,4.2947,4.2616,4.2213,4.2066,4.1699,4.1168,4.0712,4.0182,3.9499,3.915,3.8652,3.8157,3.7848,3.7411,3.6875,3.612,3.5349,3.4954,3.4685,3.4379,3.3967,3.3686,3.3587,3.3661,3.368,3.3758,3.3753,3.378,3.378,3.372,3.361,3.2674,3.1689,3.0638,3.0044,2.9867,2.9404,2.9093,2.899,4.553,4.6009,4.6044,4.6247,4.6687,4.7926,4.8593,4.8958,4.9695,5.005,5.0038,4.9906,4.9843,4.9802,4.9669,4.9521,4.9402,4.9387,4.9214,4.9047,4.8945,4.8856,4.875,4.8713,4.8713,4.8732,4.8714,4.8678,4.855,4.8163,4.7518,4.6574,4.5764,4.5159,4.4792,4.437,4.4207,4.4173,4.4079,4.4036,4.4005,4.3945,4.3883,4.3883,4.3883,4.3883,4.3883,4.3869,4.3853,4.3802,4.3684,4.3634,4.36,4.3532,4.3515,4.3479,4.3479,4.3479,4.3479,4.3479,4.3479,4.3479,4.3479,4.3479,4.3479,4.3479,4.3479,4.3479,4.3479,4.3479,4.3479,4.3479,4.3479,4.3479,4.3479,4.3462,4.3333,4.2968,4.2858,4.2639,4.2307,4.1867,4.1431,4.1011,4.0274,3.9591,3.9074,3.8563,3.8203,3.7937,3.7418,3.6936,3.62,3.5418,3.5112,3.4588,3.4014,3.3786,3.356,3.3563,3.3605,3.3647,3.3675,3.3698,3.3739,3.3716,3.3625,3.346,3.2727,3.164,3.0974,3.0601,3.0003,2.9247,2.8986,4.5504,4.6311,4.6594,4.6912,4.7339,4.8307,4.8878,4.913,4.9592,4.9769,4.9741,4.9615,4.954,4.9495,4.9337,4.9193,4.9113,4.9062,4.8927,4.8804,4.8697,4.8624,4.855,4.8514,4.8514,4.8514,4.8513,4.8495,4.8457,4.8438,4.7978,4.7243,4.6321,4.5689,4.4813,4.4341,4.3963,4.3929,4.3846,4.3798,4.3781,4.3753,4.3703,4.3703,4.3703,4.3703,4.3703,4.3703,4.3703,4.3667,4.3617,4.3583,4.3566,4.3549,4.3496,4.3479,4.3479,4.3479,4.3479,4.3479,4.3479,4.3479,4.3479,4.3479,4.3479,4.3479,4.3479,4.3479,4.3479,4.3479,4.3479,4.348,4.3463,4.3464,4.3357,4.3339,4.3357,4.3156,4.3211,4.3156,4.2808,4.2498,4.2171,4.1662,4.0658,3.9977,3.9443,3.8894,3.8418,3.8191,3.8018,3.7569,3.7069,3.63,3.5553,3.492,3.4307,3.3951,3.3725,3.3477,3.3466,3.3524,3.3581,3.3605,3.3643,3.3684,3.3611,3.3506,3.3131,3.2585,3.1827,3.094,3.0221,2.9453,2.9002,4.5274,4.6165,4.7011,4.7884,4.8662,4.8662,4.907,4.9616,4.9621,4.9525,4.9396,4.9257,4.9211,4.9179,4.901,4.889,4.8821,4.8822,4.8715,4.8569,4.8532,4.842,4.8382,4.8344,4.8364,4.8325,4.8363,4.8382,4.8343,4.8343,4.8214,4.7976,4.7114,4.6176,4.4904,4.4179,4.3859,4.3824,4.3852,4.389,4.3781,4.3767,4.3733,4.3549,4.3566,4.3566,4.3566,4.3566,4.3566,4.3531,4.3531,4.3513,4.3496,4.3496,4.3479,4.3479,4.3479,4.3479,4.3479,4.3479,4.3479,4.3479,4.3479,4.3479,4.3479,4.3479,4.3479,4.3479,4.3479,4.3479,4.348,4.3446,4.3429,4.3394,4.3322,4.3251,4.3269,4.3251,4.3251,4.3214,4.3196,4.3087,4.2796,4.2286,4.1141,4.0339,3.9806,3.9258,3.8713,3.8316,3.8143,3.7949,3.7519,3.693,3.6089,3.5225,3.4614,3.4225,3.3903,3.3664,3.3436,3.3439,3.3477,3.3513,3.352,3.3549,3.3559,3.3555,3.3162,3.272,3.1869,3.1029,3.0313,2.9626,2.9093,4.5382,4.6801,4.7084,4.8064,4.9291,4.9263,4.9343,4.948,4.9321,4.9158,4.9127,4.8995,4.8945,4.8892,4.8804,4.866,4.8606,4.8587,4.8494,4.8382,4.8382,4.8363,4.8306,4.8324,4.8324,4.8324,4.8324,4.8324,4.8324,4.8324,4.8324,4.8104,4.7572,4.6581,4.5773,4.5257,4.5201,4.5201,4.5129,4.4928,4.4413,4.4286,4.4066,4.3626,4.3608,4.3644,4.3663,4.3699,4.3699,4.3681,4.3699,4.3663,4.3626,4.3626,4.357,4.3533,4.3497,4.3479,4.3479,4.3479,4.3479,4.3479,4.3479,4.3479,4.3479,4.3479,4.3479,4.3479,4.3479,4.3479,4.3497,4.3429,4.3394,4.3394,4.3305,4.3215,4.3178,4.3142,4.3123,4.3031,4.3013,4.2863,4.2642,4.2421,4.15,4.0671,4.0113,3.9532,3.8969,3.839,3.8033,3.8016,3.7748,3.7301,3.6674,3.5851,3.5246,3.4927,3.4396,3.3862,3.3691,3.3463,3.3273,3.3247,3.3337,3.3426,3.3375,3.3324,3.3163,3.2703,3.1977,3.1322,3.0706,2.9884,2.9011,4.5308,4.6888,4.6955,4.7943,4.9378,4.9472,4.9415,4.9276,4.9061,4.8959,4.889,4.8769,4.8697,4.8661,4.8569,4.8495,4.8438,4.842,4.8419,4.8324,4.8324,4.8324,4.8324,4.8324,4.8324,4.8324,4.8324,4.8324,4.8324,4.8324,4.8324,4.8158,4.7773,4.737,4.6728,4.6324,4.5791,4.5736,4.5644,4.5571,4.5223,4.5057,4.4892,4.4562,4.4433,4.4397,4.4342,4.4305,4.4304,4.4286,4.4286,4.4287,4.425,4.4066,4.3975,4.3901,4.3608,4.3552,4.3479,4.3479,4.3479,4.3479,4.3479,4.3479,4.3479,4.3479,4.3479,4.3479,4.3479,4.3479,4.3479,4.3429,4.3376,4.3359,4.3269,4.316,4.3012,4.2974,4.2899,4.2843,4.271,4.2573,4.2394,4.2221,4.18,4.1069,4.0394,3.9817,3.9229,3.86,3.7989,3.7827,3.781,3.747,3.7041,3.6523,3.5988,3.5615,3.4959,3.4251,3.3754,3.35,3.3244,3.3001,3.3078,3.3137,3.3135,3.3068,3.289,3.269,3.2293,3.168,3.1124,3.0181,2.9169,4.5018,4.6475,4.6647,4.7666,4.9062,4.9321,4.9276,4.9101,4.8943,4.8856,4.8787,4.8587,4.8531,4.8494,4.8382,4.8343,4.8343,4.8306,4.8306,4.8306,4.8324,4.8324,4.8324,4.8324,4.8324,4.8324,4.8324,4.8324,4.8324,4.8324,4.8324,4.8324,4.8177,4.7976,4.7553,4.7003,4.6434,4.6452,4.6434,4.6287,4.6012,4.592,4.5755,4.5535,4.5461,4.548,4.548,4.5516,4.559,4.5645,4.57,4.5755,4.559,4.5149,4.4874,4.4562,4.4048,4.392,4.3864,4.3938,4.3883,4.403,4.3882,4.368,4.3479,4.3479,4.3479,4.3479,4.3479,4.3479,4.3479,4.341,4.334,4.3269,4.3178,4.3012,4.2841,4.2764,4.2688,4.2571,4.2414,4.2251,4.2002,4.1817,4.1717,4.1331,4.0627,4.0002,3.939,3.8789,3.8164,3.7577,3.7559,3.7559,3.7183,3.6772,3.6538,3.6091,3.5381,3.4673,3.4128,3.3671,3.3458,3.3241,3.2948,3.2836,3.2818,3.2737,3.2622,3.2383,3.2176,3.1753,3.111,3.0342,2.9411,4.486,4.6351,4.6508,4.752,4.8949,4.9148,4.9116,4.8926,4.8767,4.866,4.8642,4.8439,4.84,4.8363,4.8306,4.8324,4.8324,4.8324,4.8324,4.8324,4.8324,4.8324,4.8324,4.8324,4.8324,4.8324,4.8324,4.8324,4.8324,4.8324,4.8324,4.8324,4.8324,4.8324,4.8159,4.7847,4.7609,4.7462,4.7388,4.715,4.6874,4.6746,4.6526,4.625,4.614,4.614,4.6122,4.6085,4.6085,4.6012,4.5957,4.592,4.5847,4.5681,4.5571,4.5553,4.5333,4.5241,4.5204,4.5186,4.5094,4.5002,4.5057,4.4397,4.3956,4.3626,4.3663,4.3791,4.3828,4.3883,4.3773,4.3648,4.345,4.3251,4.3141,4.2993,4.2803,4.2609,4.2512,4.2249,4.2107,4.1874,4.1613,4.1458,4.1333,4.1197,4.0833,4.0182,3.9547,3.891,3.8263,3.7648,3.7299,3.7299,3.7242,3.69,3.6784,3.6527,3.5801,3.52,3.4831,3.438,3.3895,3.3441,3.3037,3.2684,3.2454,3.237,3.2249,3.2144,3.1915,3.1533,3.1046,3.0264,2.952,4.4509,4.574,4.6231,4.7336,4.8688,4.8892,4.8856,4.8767,4.8641,4.8587,4.8587,4.8383,4.8324,4.8324,4.8324,4.8324,4.8324,4.8324,4.8324,4.8324,4.8324,4.8324,4.8324,4.8324,4.8324,4.8324,4.8324,4.8324,4.8324,4.8324,4.8324,4.8324,4.8324,4.8324,4.8269,4.8196,4.8251,4.8214,4.8177,4.7994,4.7736,4.7535,4.7223,4.6929,4.6783,4.6783,4.6783,4.6783,4.6801,4.6838,4.6838,4.6856,4.6764,4.6636,4.6104,4.6012,4.5792,4.5736,4.5718,4.5773,4.5865,4.592,4.5938,4.5406,4.4966,4.4672,4.4654,4.4672,4.4544,4.4415,4.4159,4.3904,4.3578,4.3287,4.3141,4.2993,4.2765,4.2512,4.2249,4.1956,4.1719,4.1498,4.1295,4.1134,4.0971,4.0836,4.0651,4.022,3.96,3.9012,3.8307,3.7638,3.7286,3.7048,3.6987,3.6891,3.6721,3.6551,3.6241,3.5708,3.5426,3.4975,3.4356,3.3703,3.3046,3.2788,3.2562,3.2089,3.1875,3.1784,3.1728,3.145,3.0918,3.0109,2.9386,4.4114,4.4978,4.582,4.6998,4.831,4.842,4.8476,4.8532,4.855,4.8587,4.8532,4.8382,4.8324,4.8324,4.8324,4.8324,4.8324,4.8324,4.8324,4.8306,4.8324,4.8324,4.8324,4.8324,4.8324,4.8324,4.8324,4.8324,4.8324,4.8324,4.8324,4.8324,4.8324,4.8324,4.8324,4.8324,4.8324,4.8324,4.8324,4.8214,4.8251,4.8269,4.8324,4.8214,4.8159,4.8159,4.8196,4.8251,4.8324,4.8288,4.8233,4.8141,4.7884,4.7572,4.6856,4.6562,4.6471,4.6471,4.6507,4.6526,4.6397,4.6305,4.6104,4.6232,4.6159,4.5535,4.5369,4.5333,4.5223,4.5094,4.4874,4.4765,4.451,4.4108,4.3853,4.3557,4.3201,4.2761,4.2124,4.1827,4.1542,4.1318,4.1129,4.0965,4.0799,4.059,4.0383,4.0127,3.9761,3.9187,3.8437,3.7733,3.7374,3.7042,3.6687,3.6606,3.6509,3.6371,3.6236,3.6017,3.5576,3.5177,3.4792,3.4152,3.3544,3.3076,3.2731,3.2292,3.1857,3.1579,3.1504,3.1353,3.0806,3.0131,2.9448,4.4009,4.4836,4.5733,4.6393,4.6851,4.7442,4.7682,4.7737,4.8274,4.8458,4.8495,4.8345,4.8269,4.8195,4.8214,4.8177,4.8141,4.8104,4.8288,4.8288,4.8269,4.8324,4.8324,4.8324,4.8324,4.8324,4.8324,4.8324,4.8324,4.8324,4.8324,4.8324,4.8324,4.8324,4.8324,4.8324,4.8324,4.8324,4.8324,4.8324,4.8324,4.8324,4.8324,4.8324,4.8324,4.8324,4.8324,4.8324,4.8324,4.8306,4.8306,4.8306,4.8269,4.8086,4.7921,4.7755,4.7535,4.748,4.748,4.7443,4.7443,4.7572,4.7609,4.7682,4.7388,4.6471,4.5993,4.5993,4.5957,4.5847,4.57,4.5608,4.5407,4.4986,4.4565,4.4141,4.3711,4.2902,4.2111,4.174,4.1453,4.1221,4.1029,4.0817,4.0607,4.0436,4.0288,4.006,3.9931,3.9464,3.8671,3.799,3.7555,3.7172,3.6736,3.6456,3.6448,3.6264,3.6071,3.5869,3.5668,3.5343,3.4968,3.4616,3.4127,3.3631,3.3094,3.2573,3.2156,3.1747,3.1351,3.1254,3.1063,3.0493,2.9776,4.3754,4.425,4.5092,4.5716,4.6119,4.6542,4.6745,4.6819,4.7187,4.7353,4.75,4.7903,4.8085,4.7828,4.7755,4.7517,4.7462,4.7645,4.7645,4.7773,4.8159,4.8306,4.8324,4.8324,4.8324,4.8324,4.8324,4.8324,4.8324,4.8324,4.8324,4.8324,4.8324,4.8324,4.8324,4.8324,4.8324,4.8324,4.8324,4.8324,4.8324,4.8324,4.8324,4.8324,4.8324,4.8324,4.8324,4.8324,4.8324,4.8324,4.8324,4.8324,4.8324,4.8269,4.8288,4.8251,4.8214,4.8324,4.8324,4.8324,4.8324,4.8324,4.8324,4.8086,4.8086,4.7297,4.726,4.7241,4.7241,4.715,4.6636,4.6415,4.6012,4.5571,4.5241,4.4854,4.3967,4.2981,4.2326,4.1849,4.1525,4.1249,4.1059,4.0817,4.0631,4.0485,4.0288,4.0205,4.0043,3.9841,3.9013,3.8434,3.8094,3.7499,3.695,3.6671,3.6507,3.6266,3.6029,3.5832,3.5669,3.5448,3.5159,3.4942,3.4619,3.4121,3.3586,3.3039,3.2479,3.2038,3.1591,3.121,3.1004,3.0835,3.0294,4.3497,4.3608,4.425,4.4929,4.5553,4.5718,4.5755,4.5791,4.5883,4.5957,4.6195,4.7388,4.748,4.7149,4.6911,4.6415,4.6324,4.6764,4.6892,4.7333,4.781,4.8086,4.8251,4.8324,4.8324,4.8324,4.8324,4.8324,4.8324,4.8324,4.8324,4.8324,4.8324,4.8324,4.8324,4.8324,4.8324,4.8324,4.8324,4.8324,4.8324,4.8324,4.8324,4.8324,4.8324,4.8324,4.8324,4.8324,4.8324,4.8324,4.8324,4.8324,4.8324,4.8324,4.8324,4.8324,4.8324,4.8324,4.8324,4.8324,4.8324,4.8324,4.8324,4.8306,4.8288,4.8251,4.8196,4.8196,4.8196,4.8012,4.7461,4.7131,4.669,4.6322,4.601,4.5386,4.4261,4.3224,4.267,4.2104,4.1679,4.1368,4.1157,4.0901,4.0704,4.0558,4.0453,4.0355,4.0246,4.0052,3.9561,3.921,3.8942,3.824,3.7393,3.7121,3.6956,3.6491,3.6254,3.5949,3.5667,3.5503,3.5418,3.543,3.5052,3.4621,3.4113,3.3567,3.3008,3.2415,3.1972,3.1546,3.1157,3.0987,3.0818,4.3479,4.3533,4.368,4.3846,4.4084,4.4654,4.4929,4.5057,4.559,4.5902,4.5865,4.603,4.6214,4.6122,4.6122,4.5847,4.5663,4.6012,4.6599,4.7131,4.7351,4.7755,4.8141,4.8324,4.8324,4.8324,4.8324,4.8324,4.8305,4.8305,4.8287,4.8287,4.8324,4.8324,4.8324,4.8324,4.8324,4.8324,4.8324,4.8324,4.8324,4.8324,4.8324,4.8324,4.8324,4.8324,4.8324,4.8324,4.8324,4.8324,4.8324,4.8324,4.8324,4.8324,4.8324,4.8324,4.8324,4.8324,4.8324,4.8324,4.8324,4.8324,4.8324,4.8324,4.8306,4.8306,4.8269,4.8269,4.8269,4.8269,4.7939,4.7939,4.7626,4.7387,4.711,4.5862,4.4631,4.3928,4.331,4.2608,4.1956,4.1697,4.1475,4.1203,4.0912,4.0728,4.0461,4.0404,4.033,4.0179,4.0011,3.9816,3.9611,3.8901,3.8045,3.7838,3.7594,3.7028,3.6463,3.6135,3.5842,3.5656,3.5583,3.5532,3.5447,3.5131,3.4624,3.4117,3.3512,3.2936,3.2446,3.2005,3.1546,3.1157,3.0987]}]]